<?xml version="1.0" encoding="UTF-8" standalone="no" ?>
<gpx xmlns="http://www.topografix.com/GPX/1/1" xmlns:xsi="http://www.w3.org/2001/XMLSchema-instance" xsi:schemaLocation="http://www.topografix.com/GPX/1/1 http://www.topografix.com/GPX/1/1/gpx.xsd" version="1.1" creator="VisuGPX - https://www.visugpx.com">
  <metadata>
    <name>plus beau circuit du cézallier</name>
  </metadata>
  <wpt lat="45.25412" lon="2.89181">
    <ele>1053.5</ele>
    <name><![CDATA[cascade de Veyrines]]></name>
    <type><![CDATA[attraction]]></type>
  </wpt>
  <wpt lat="45.31813" lon="3.01712">
    <ele>1254.1</ele>
    <name><![CDATA[cascade]]></name>
    <type><![CDATA[attraction]]></type>
  </wpt>
  <wpt lat="45.38628" lon="3.26608">
    <ele>432.6</ele>
    <name><![CDATA[Le Pont d’Allagnon ⭐⭐⭐]]></name>
    <cmt><![CDATA[+33471765369]]></cmt>
    <type><![CDATA[camping]]></type>
  </wpt>
  <wpt lat="45.3127" lon="3.18626">
    <ele>494</ele>
    <name><![CDATA[Le Scorpion]]></name>
    <type><![CDATA[camping]]></type>
  </wpt>
  <trk>
    <name><![CDATA[15191226-plus beau circuit du cézallier]]></name>
    <extensions>
      <line xmlns="http://www.topografix.com/GPX/gpx_style/0/2">
        <color>ff0000</color>
        <width>4</width>
      </line>
    </extensions>
    <trkseg>
      <trkpt lat="45.38499" lon="3.26909">
        <ele>435</ele>
        <time>2022-07-23T09:05:54Z</time>
      </trkpt>
      <trkpt lat="45.38344" lon="3.26813">
        <ele>438</ele>
        <time>2022-07-23T09:06:24Z</time>
      </trkpt>
      <trkpt lat="45.38327" lon="3.26811">
        <ele>439</ele>
        <time>2022-07-23T09:06:27Z</time>
      </trkpt>
      <trkpt lat="45.38308" lon="3.26766">
        <ele>440</ele>
        <time>2022-07-23T09:06:34Z</time>
      </trkpt>
      <trkpt lat="45.38305" lon="3.26754">
        <ele>440</ele>
        <time>2022-07-23T09:06:35Z</time>
      </trkpt>
      <trkpt lat="45.38302" lon="3.26631">
        <ele>439</ele>
        <time>2022-07-23T09:06:51Z</time>
      </trkpt>
      <trkpt lat="45.38298" lon="3.26598">
        <ele>439</ele>
        <time>2022-07-23T09:06:55Z</time>
      </trkpt>
      <trkpt lat="45.38289" lon="3.26569">
        <ele>439</ele>
        <time>2022-07-23T09:06:59Z</time>
      </trkpt>
      <trkpt lat="45.38264" lon="3.2652">
        <ele>442</ele>
        <time>2022-07-23T09:07:06Z</time>
      </trkpt>
      <trkpt lat="45.38243" lon="3.26488">
        <ele>443</ele>
        <time>2022-07-23T09:07:12Z</time>
      </trkpt>
      <trkpt lat="45.38233" lon="3.26477">
        <ele>445</ele>
        <time>2022-07-23T09:07:14Z</time>
      </trkpt>
      <trkpt lat="45.38214" lon="3.26451">
        <ele>446</ele>
        <time>2022-07-23T09:07:19Z</time>
      </trkpt>
      <trkpt lat="45.3817" lon="3.26379">
        <ele>446</ele>
        <time>2022-07-23T09:07:31Z</time>
      </trkpt>
      <trkpt lat="45.38107" lon="3.2628">
        <ele>453</ele>
        <time>2022-07-23T09:07:47Z</time>
      </trkpt>
      <trkpt lat="45.38093" lon="3.26253">
        <ele>450</ele>
        <time>2022-07-23T09:07:52Z</time>
      </trkpt>
      <trkpt lat="45.38086" lon="3.26233">
        <ele>449</ele>
        <time>2022-07-23T09:07:54Z</time>
      </trkpt>
      <trkpt lat="45.3808" lon="3.26207">
        <ele>449</ele>
        <time>2022-07-23T09:07:58Z</time>
      </trkpt>
      <trkpt lat="45.38077" lon="3.26177">
        <ele>449</ele>
        <time>2022-07-23T09:08:02Z</time>
      </trkpt>
      <trkpt lat="45.38076" lon="3.26103">
        <ele>445</ele>
        <time>2022-07-23T09:08:11Z</time>
      </trkpt>
      <trkpt lat="45.38073" lon="3.26076">
        <ele>445</ele>
        <time>2022-07-23T09:08:14Z</time>
      </trkpt>
      <trkpt lat="45.38068" lon="3.26062">
        <ele>446</ele>
        <time>2022-07-23T09:08:16Z</time>
      </trkpt>
      <trkpt lat="45.38038" lon="3.25997">
        <ele>452</ele>
        <time>2022-07-23T09:08:26Z</time>
      </trkpt>
      <trkpt lat="45.38023" lon="3.25958">
        <ele>450</ele>
        <time>2022-07-23T09:08:31Z</time>
      </trkpt>
      <trkpt lat="45.38016" lon="3.25933">
        <ele>447</ele>
        <time>2022-07-23T09:08:35Z</time>
      </trkpt>
      <trkpt lat="45.38006" lon="3.25884">
        <ele>445</ele>
        <time>2022-07-23T09:08:41Z</time>
      </trkpt>
      <trkpt lat="45.37973" lon="3.25611">
        <ele>455</ele>
        <time>2022-07-23T09:09:16Z</time>
      </trkpt>
      <trkpt lat="45.37961" lon="3.2553">
        <ele>456</ele>
        <time>2022-07-23T09:09:26Z</time>
      </trkpt>
      <trkpt lat="45.37951" lon="3.25486">
        <ele>456</ele>
        <time>2022-07-23T09:09:32Z</time>
      </trkpt>
      <trkpt lat="45.37937" lon="3.25451">
        <ele>454</ele>
        <time>2022-07-23T09:09:37Z</time>
      </trkpt>
      <trkpt lat="45.37929" lon="3.25435">
        <ele>451</ele>
        <time>2022-07-23T09:09:39Z</time>
      </trkpt>
      <trkpt lat="45.37912" lon="3.25408">
        <ele>447</ele>
        <time>2022-07-23T09:09:44Z</time>
      </trkpt>
      <trkpt lat="45.37897" lon="3.2539">
        <ele>451</ele>
        <time>2022-07-23T09:09:47Z</time>
      </trkpt>
      <trkpt lat="45.37883" lon="3.25377">
        <ele>452</ele>
        <time>2022-07-23T09:09:50Z</time>
      </trkpt>
      <trkpt lat="45.37857" lon="3.25358">
        <ele>453</ele>
        <time>2022-07-23T09:09:56Z</time>
      </trkpt>
      <trkpt lat="45.37834" lon="3.25348">
        <ele>452</ele>
        <time>2022-07-23T09:10:00Z</time>
      </trkpt>
      <trkpt lat="45.37786" lon="3.25332">
        <ele>456</ele>
        <time>2022-07-23T09:10:09Z</time>
      </trkpt>
      <trkpt lat="45.37768" lon="3.25322">
        <ele>459</ele>
        <time>2022-07-23T09:10:12Z</time>
      </trkpt>
      <trkpt lat="45.37755" lon="3.25309">
        <ele>459</ele>
        <time>2022-07-23T09:10:15Z</time>
      </trkpt>
      <trkpt lat="45.37742" lon="3.25289">
        <ele>459</ele>
        <time>2022-07-23T09:10:18Z</time>
      </trkpt>
      <trkpt lat="45.37738" lon="3.25277">
        <ele>458</ele>
        <time>2022-07-23T09:10:20Z</time>
      </trkpt>
      <trkpt lat="45.37731" lon="3.2525">
        <ele>457</ele>
        <time>2022-07-23T09:10:24Z</time>
      </trkpt>
      <trkpt lat="45.37705" lon="3.25091">
        <ele>462</ele>
        <time>2022-07-23T09:10:44Z</time>
      </trkpt>
      <trkpt lat="45.37695" lon="3.25041">
        <ele>460</ele>
        <time>2022-07-23T09:10:51Z</time>
      </trkpt>
      <trkpt lat="45.37682" lon="3.24986">
        <ele>454</ele>
        <time>2022-07-23T09:10:58Z</time>
      </trkpt>
      <trkpt lat="45.37619" lon="3.24836">
        <ele>449</ele>
        <time>2022-07-23T09:11:20Z</time>
      </trkpt>
      <trkpt lat="45.37609" lon="3.24819">
        <ele>449</ele>
        <time>2022-07-23T09:11:22Z</time>
      </trkpt>
      <trkpt lat="45.37599" lon="3.24805">
        <ele>449</ele>
        <time>2022-07-23T09:11:25Z</time>
      </trkpt>
      <trkpt lat="45.37576" lon="3.24785">
        <ele>448</ele>
        <time>2022-07-23T09:11:30Z</time>
      </trkpt>
      <trkpt lat="45.37555" lon="3.24774">
        <ele>448</ele>
        <time>2022-07-23T09:11:34Z</time>
      </trkpt>
      <trkpt lat="45.37538" lon="3.24768">
        <ele>448</ele>
        <time>2022-07-23T09:11:37Z</time>
      </trkpt>
      <trkpt lat="45.37519" lon="3.24769">
        <ele>448</ele>
        <time>2022-07-23T09:11:40Z</time>
      </trkpt>
      <trkpt lat="45.37501" lon="3.24773">
        <ele>450</ele>
        <time>2022-07-23T09:11:43Z</time>
      </trkpt>
      <trkpt lat="45.37462" lon="3.24787">
        <ele>452</ele>
        <time>2022-07-23T09:11:51Z</time>
      </trkpt>
      <trkpt lat="45.37376" lon="3.24829">
        <ele>452</ele>
        <time>2022-07-23T09:12:07Z</time>
      </trkpt>
      <trkpt lat="45.37315" lon="3.24869">
        <ele>459</ele>
        <time>2022-07-23T09:12:19Z</time>
      </trkpt>
      <trkpt lat="45.37268" lon="3.24903">
        <ele>463</ele>
        <time>2022-07-23T09:12:28Z</time>
      </trkpt>
      <trkpt lat="45.37251" lon="3.24909">
        <ele>462</ele>
        <time>2022-07-23T09:12:31Z</time>
      </trkpt>
      <trkpt lat="45.37237" lon="3.24912">
        <ele>464</ele>
        <time>2022-07-23T09:12:34Z</time>
      </trkpt>
      <trkpt lat="45.37222" lon="3.24913">
        <ele>466</ele>
        <time>2022-07-23T09:12:36Z</time>
      </trkpt>
      <trkpt lat="45.37209" lon="3.24909">
        <ele>466</ele>
        <time>2022-07-23T09:12:39Z</time>
      </trkpt>
      <trkpt lat="45.37193" lon="3.249">
        <ele>465</ele>
        <time>2022-07-23T09:12:42Z</time>
      </trkpt>
      <trkpt lat="45.37182" lon="3.24887">
        <ele>464</ele>
        <time>2022-07-23T09:12:44Z</time>
      </trkpt>
      <trkpt lat="45.37171" lon="3.24869">
        <ele>461</ele>
        <time>2022-07-23T09:12:47Z</time>
      </trkpt>
      <trkpt lat="45.37163" lon="3.24849">
        <ele>458</ele>
        <time>2022-07-23T09:12:50Z</time>
      </trkpt>
      <trkpt lat="45.37159" lon="3.2483">
        <ele>456</ele>
        <time>2022-07-23T09:12:53Z</time>
      </trkpt>
      <trkpt lat="45.37144" lon="3.24701">
        <ele>461</ele>
        <time>2022-07-23T09:13:09Z</time>
      </trkpt>
      <trkpt lat="45.37144" lon="3.24683">
        <ele>462</ele>
        <time>2022-07-23T09:13:11Z</time>
      </trkpt>
      <trkpt lat="45.37148" lon="3.24654">
        <ele>461</ele>
        <time>2022-07-23T09:13:15Z</time>
      </trkpt>
      <trkpt lat="45.37147" lon="3.24641">
        <ele>461</ele>
        <time>2022-07-23T09:13:17Z</time>
      </trkpt>
      <trkpt lat="45.37138" lon="3.24599">
        <ele>463</ele>
        <time>2022-07-23T09:13:22Z</time>
      </trkpt>
      <trkpt lat="45.37136" lon="3.24574">
        <ele>464</ele>
        <time>2022-07-23T09:13:25Z</time>
      </trkpt>
      <trkpt lat="45.37136" lon="3.24549">
        <ele>466</ele>
        <time>2022-07-23T09:13:28Z</time>
      </trkpt>
      <trkpt lat="45.37139" lon="3.24521">
        <ele>467</ele>
        <time>2022-07-23T09:13:32Z</time>
      </trkpt>
      <trkpt lat="45.37148" lon="3.24487">
        <ele>466</ele>
        <time>2022-07-23T09:13:36Z</time>
      </trkpt>
      <trkpt lat="45.3717" lon="3.24423">
        <ele>464</ele>
        <time>2022-07-23T09:13:45Z</time>
      </trkpt>
      <trkpt lat="45.37177" lon="3.24394">
        <ele>466</ele>
        <time>2022-07-23T09:13:49Z</time>
      </trkpt>
      <trkpt lat="45.37183" lon="3.24344">
        <ele>467</ele>
        <time>2022-07-23T09:13:56Z</time>
      </trkpt>
      <trkpt lat="45.37182" lon="3.24305">
        <ele>466</ele>
        <time>2022-07-23T09:14:00Z</time>
      </trkpt>
      <trkpt lat="45.37173" lon="3.24198">
        <ele>462</ele>
        <time>2022-07-23T09:14:14Z</time>
      </trkpt>
      <trkpt lat="45.37168" lon="3.24165">
        <ele>459</ele>
        <time>2022-07-23T09:14:18Z</time>
      </trkpt>
      <trkpt lat="45.37157" lon="3.2411">
        <ele>464</ele>
        <time>2022-07-23T09:14:25Z</time>
      </trkpt>
      <trkpt lat="45.37154" lon="3.24076">
        <ele>465</ele>
        <time>2022-07-23T09:14:30Z</time>
      </trkpt>
      <trkpt lat="45.37154" lon="3.24047">
        <ele>467</ele>
        <time>2022-07-23T09:14:33Z</time>
      </trkpt>
      <trkpt lat="45.37156" lon="3.24019">
        <ele>468</ele>
        <time>2022-07-23T09:14:37Z</time>
      </trkpt>
      <trkpt lat="45.37162" lon="3.23986">
        <ele>468</ele>
        <time>2022-07-23T09:14:41Z</time>
      </trkpt>
      <trkpt lat="45.37169" lon="3.23963">
        <ele>469</ele>
        <time>2022-07-23T09:14:44Z</time>
      </trkpt>
      <trkpt lat="45.37179" lon="3.23933">
        <ele>472</ele>
        <time>2022-07-23T09:14:48Z</time>
      </trkpt>
      <trkpt lat="45.37188" lon="3.23913">
        <ele>472</ele>
        <time>2022-07-23T09:14:51Z</time>
      </trkpt>
      <trkpt lat="45.37215" lon="3.23876">
        <ele>469</ele>
        <time>2022-07-23T09:14:58Z</time>
      </trkpt>
      <trkpt lat="45.37255" lon="3.23839">
        <ele>457</ele>
        <time>2022-07-23T09:15:06Z</time>
      </trkpt>
      <trkpt lat="45.37358" lon="3.23751">
        <ele>453</ele>
        <time>2022-07-23T09:15:28Z</time>
      </trkpt>
      <trkpt lat="45.37372" lon="3.23733">
        <ele>454</ele>
        <time>2022-07-23T09:15:31Z</time>
      </trkpt>
      <trkpt lat="45.37392" lon="3.23701">
        <ele>455</ele>
        <time>2022-07-23T09:15:36Z</time>
      </trkpt>
      <trkpt lat="45.37402" lon="3.23682">
        <ele>455</ele>
        <time>2022-07-23T09:15:39Z</time>
      </trkpt>
      <trkpt lat="45.37406" lon="3.23668">
        <ele>455</ele>
        <time>2022-07-23T09:15:41Z</time>
      </trkpt>
      <trkpt lat="45.37409" lon="3.23652">
        <ele>454</ele>
        <time>2022-07-23T09:15:43Z</time>
      </trkpt>
      <trkpt lat="45.37407" lon="3.23634">
        <ele>455</ele>
        <time>2022-07-23T09:15:46Z</time>
      </trkpt>
      <trkpt lat="45.37403" lon="3.23617">
        <ele>455</ele>
        <time>2022-07-23T09:15:48Z</time>
      </trkpt>
      <trkpt lat="45.37398" lon="3.23604">
        <ele>455</ele>
        <time>2022-07-23T09:15:50Z</time>
      </trkpt>
      <trkpt lat="45.37389" lon="3.23592">
        <ele>455</ele>
        <time>2022-07-23T09:15:52Z</time>
      </trkpt>
      <trkpt lat="45.3738" lon="3.23583">
        <ele>455</ele>
        <time>2022-07-23T09:15:54Z</time>
      </trkpt>
      <trkpt lat="45.37344" lon="3.23562">
        <ele>454</ele>
        <time>2022-07-23T09:16:01Z</time>
      </trkpt>
      <trkpt lat="45.37288" lon="3.23545">
        <ele>458</ele>
        <time>2022-07-23T09:16:11Z</time>
      </trkpt>
      <trkpt lat="45.37251" lon="3.23527">
        <ele>457</ele>
        <time>2022-07-23T09:16:18Z</time>
      </trkpt>
      <trkpt lat="45.37204" lon="3.235">
        <ele>457</ele>
        <time>2022-07-23T09:16:27Z</time>
      </trkpt>
      <trkpt lat="45.37164" lon="3.23473">
        <ele>459</ele>
        <time>2022-07-23T09:16:35Z</time>
      </trkpt>
      <trkpt lat="45.37096" lon="3.23425">
        <ele>464</ele>
        <time>2022-07-23T09:16:48Z</time>
      </trkpt>
      <trkpt lat="45.37079" lon="3.23411">
        <ele>464</ele>
        <time>2022-07-23T09:16:52Z</time>
      </trkpt>
      <trkpt lat="45.37067" lon="3.23395">
        <ele>469</ele>
        <time>2022-07-23T09:16:55Z</time>
      </trkpt>
      <trkpt lat="45.37052" lon="3.23363">
        <ele>474</ele>
        <time>2022-07-23T09:17:00Z</time>
      </trkpt>
      <trkpt lat="45.37048" lon="3.23347">
        <ele>474</ele>
        <time>2022-07-23T09:17:02Z</time>
      </trkpt>
      <trkpt lat="45.37046" lon="3.23325">
        <ele>475</ele>
        <time>2022-07-23T09:17:04Z</time>
      </trkpt>
      <trkpt lat="45.37047" lon="3.23305">
        <ele>478</ele>
        <time>2022-07-23T09:17:07Z</time>
      </trkpt>
      <trkpt lat="45.37052" lon="3.23287">
        <ele>478</ele>
        <time>2022-07-23T09:17:09Z</time>
      </trkpt>
      <trkpt lat="45.3706" lon="3.2327">
        <ele>477</ele>
        <time>2022-07-23T09:17:12Z</time>
      </trkpt>
      <trkpt lat="45.37069" lon="3.23257">
        <ele>474</ele>
        <time>2022-07-23T09:17:14Z</time>
      </trkpt>
      <trkpt lat="45.3709" lon="3.23237">
        <ele>469</ele>
        <time>2022-07-23T09:17:19Z</time>
      </trkpt>
      <trkpt lat="45.37106" lon="3.23229">
        <ele>470</ele>
        <time>2022-07-23T09:17:22Z</time>
      </trkpt>
      <trkpt lat="45.37223" lon="3.23196">
        <ele>467</ele>
        <time>2022-07-23T09:17:43Z</time>
      </trkpt>
      <trkpt lat="45.3724" lon="3.23195">
        <ele>466</ele>
        <time>2022-07-23T09:17:46Z</time>
      </trkpt>
      <trkpt lat="45.37268" lon="3.23198">
        <ele>466</ele>
        <time>2022-07-23T09:17:51Z</time>
      </trkpt>
      <trkpt lat="45.3732" lon="3.23215">
        <ele>463</ele>
        <time>2022-07-23T09:18:01Z</time>
      </trkpt>
      <trkpt lat="45.3734" lon="3.23217">
        <ele>462</ele>
        <time>2022-07-23T09:18:04Z</time>
      </trkpt>
      <trkpt lat="45.37361" lon="3.23215">
        <ele>462</ele>
        <time>2022-07-23T09:18:08Z</time>
      </trkpt>
      <trkpt lat="45.37375" lon="3.2321">
        <ele>462</ele>
        <time>2022-07-23T09:18:10Z</time>
      </trkpt>
      <trkpt lat="45.37452" lon="3.23162">
        <ele>464</ele>
        <time>2022-07-23T09:18:25Z</time>
      </trkpt>
      <trkpt lat="45.37464" lon="3.23149">
        <ele>463</ele>
        <time>2022-07-23T09:18:28Z</time>
      </trkpt>
      <trkpt lat="45.37472" lon="3.23135">
        <ele>463</ele>
        <time>2022-07-23T09:18:30Z</time>
      </trkpt>
      <trkpt lat="45.37477" lon="3.23119">
        <ele>463</ele>
        <time>2022-07-23T09:18:32Z</time>
      </trkpt>
      <trkpt lat="45.3748" lon="3.23101">
        <ele>463</ele>
        <time>2022-07-23T09:18:35Z</time>
      </trkpt>
      <trkpt lat="45.3748" lon="3.23086">
        <ele>464</ele>
        <time>2022-07-23T09:18:37Z</time>
      </trkpt>
      <trkpt lat="45.37477" lon="3.23072">
        <ele>464</ele>
        <time>2022-07-23T09:18:38Z</time>
      </trkpt>
      <trkpt lat="45.37466" lon="3.23045">
        <ele>465</ele>
        <time>2022-07-23T09:18:42Z</time>
      </trkpt>
      <trkpt lat="45.37456" lon="3.23032">
        <ele>465</ele>
        <time>2022-07-23T09:18:45Z</time>
      </trkpt>
      <trkpt lat="45.37426" lon="3.23007">
        <ele>465</ele>
        <time>2022-07-23T09:18:51Z</time>
      </trkpt>
      <trkpt lat="45.37413" lon="3.22991">
        <ele>465</ele>
        <time>2022-07-23T09:18:54Z</time>
      </trkpt>
      <trkpt lat="45.37402" lon="3.22974">
        <ele>468</ele>
        <time>2022-07-23T09:18:57Z</time>
      </trkpt>
      <trkpt lat="45.37391" lon="3.22951">
        <ele>469</ele>
        <time>2022-07-23T09:19:00Z</time>
      </trkpt>
      <trkpt lat="45.37375" lon="3.22898">
        <ele>470</ele>
        <time>2022-07-23T09:19:08Z</time>
      </trkpt>
      <trkpt lat="45.37365" lon="3.22835">
        <ele>466</ele>
        <time>2022-07-23T09:19:16Z</time>
      </trkpt>
      <trkpt lat="45.37359" lon="3.22816">
        <ele>465</ele>
        <time>2022-07-23T09:19:18Z</time>
      </trkpt>
      <trkpt lat="45.37351" lon="3.22799">
        <ele>464</ele>
        <time>2022-07-23T09:19:21Z</time>
      </trkpt>
      <trkpt lat="45.37338" lon="3.22777">
        <ele>463</ele>
        <time>2022-07-23T09:19:24Z</time>
      </trkpt>
      <trkpt lat="45.37312" lon="3.22694">
        <ele>459</ele>
        <time>2022-07-23T09:19:36Z</time>
      </trkpt>
      <trkpt lat="45.37291" lon="3.22643">
        <ele>459</ele>
        <time>2022-07-23T09:19:43Z</time>
      </trkpt>
      <trkpt lat="45.37278" lon="3.22625">
        <ele>459</ele>
        <time>2022-07-23T09:19:46Z</time>
      </trkpt>
      <trkpt lat="45.37263" lon="3.22608">
        <ele>458</ele>
        <time>2022-07-23T09:19:50Z</time>
      </trkpt>
      <trkpt lat="45.37247" lon="3.22593">
        <ele>456</ele>
        <time>2022-07-23T09:19:53Z</time>
      </trkpt>
      <trkpt lat="45.37231" lon="3.22582">
        <ele>456</ele>
        <time>2022-07-23T09:19:56Z</time>
      </trkpt>
      <trkpt lat="45.37216" lon="3.22576">
        <ele>458</ele>
        <time>2022-07-23T09:19:59Z</time>
      </trkpt>
      <trkpt lat="45.37199" lon="3.22573">
        <ele>460</ele>
        <time>2022-07-23T09:20:02Z</time>
      </trkpt>
      <trkpt lat="45.37127" lon="3.22579">
        <ele>466</ele>
        <time>2022-07-23T09:20:15Z</time>
      </trkpt>
      <trkpt lat="45.37111" lon="3.22576">
        <ele>468</ele>
        <time>2022-07-23T09:20:18Z</time>
      </trkpt>
      <trkpt lat="45.37098" lon="3.22569">
        <ele>468</ele>
        <time>2022-07-23T09:20:20Z</time>
      </trkpt>
      <trkpt lat="45.37075" lon="3.22551">
        <ele>470</ele>
        <time>2022-07-23T09:20:25Z</time>
      </trkpt>
      <trkpt lat="45.36849" lon="3.2229">
        <ele>465</ele>
        <time>2022-07-23T09:21:17Z</time>
      </trkpt>
      <trkpt lat="45.36821" lon="3.22268">
        <ele>462</ele>
        <time>2022-07-23T09:21:23Z</time>
      </trkpt>
      <trkpt lat="45.36747" lon="3.22234">
        <ele>468</ele>
        <time>2022-07-23T09:21:36Z</time>
      </trkpt>
      <trkpt lat="45.3663" lon="3.22151">
        <ele>467</ele>
        <time>2022-07-23T09:22:00Z</time>
      </trkpt>
      <trkpt lat="45.36591" lon="3.22121">
        <ele>467</ele>
        <time>2022-07-23T09:22:08Z</time>
      </trkpt>
      <trkpt lat="45.36444" lon="3.21931">
        <ele>468</ele>
        <time>2022-07-23T09:22:43Z</time>
      </trkpt>
      <trkpt lat="45.36362" lon="3.21821">
        <ele>471</ele>
        <time>2022-07-23T09:23:03Z</time>
      </trkpt>
      <trkpt lat="45.36279" lon="3.21678">
        <ele>473</ele>
        <time>2022-07-23T09:23:26Z</time>
      </trkpt>
      <trkpt lat="45.36225" lon="3.21596">
        <ele>472</ele>
        <time>2022-07-23T09:23:40Z</time>
      </trkpt>
      <trkpt lat="45.36198" lon="3.21564">
        <ele>472</ele>
        <time>2022-07-23T09:23:46Z</time>
      </trkpt>
      <trkpt lat="45.36162" lon="3.2153">
        <ele>470</ele>
        <time>2022-07-23T09:23:54Z</time>
      </trkpt>
      <trkpt lat="45.3613" lon="3.21504">
        <ele>464</ele>
        <time>2022-07-23T09:24:01Z</time>
      </trkpt>
      <trkpt lat="45.36118" lon="3.21497">
        <ele>463</ele>
        <time>2022-07-23T09:24:03Z</time>
      </trkpt>
      <trkpt lat="45.36106" lon="3.21498">
        <ele>463</ele>
        <time>2022-07-23T09:24:05Z</time>
      </trkpt>
      <trkpt lat="45.36087" lon="3.21507">
        <ele>464</ele>
        <time>2022-07-23T09:24:09Z</time>
      </trkpt>
      <trkpt lat="45.36074" lon="3.21531">
        <ele>465</ele>
        <time>2022-07-23T09:24:12Z</time>
      </trkpt>
      <trkpt lat="45.36044" lon="3.21698">
        <ele>476</ele>
        <time>2022-07-23T09:24:34Z</time>
      </trkpt>
      <trkpt lat="45.36016" lon="3.21806">
        <ele>475</ele>
        <time>2022-07-23T09:24:48Z</time>
      </trkpt>
      <trkpt lat="45.35965" lon="3.21948">
        <ele>474</ele>
        <time>2022-07-23T09:25:08Z</time>
      </trkpt>
      <trkpt lat="45.35941" lon="3.21991">
        <ele>472</ele>
        <time>2022-07-23T09:25:15Z</time>
      </trkpt>
      <trkpt lat="45.35921" lon="3.22018">
        <ele>469</ele>
        <time>2022-07-23T09:25:20Z</time>
      </trkpt>
      <trkpt lat="45.35812" lon="3.22088">
        <ele>467</ele>
        <time>2022-07-23T09:25:41Z</time>
      </trkpt>
      <trkpt lat="45.35713" lon="3.22156">
        <ele>471</ele>
        <time>2022-07-23T09:26:01Z</time>
      </trkpt>
      <trkpt lat="45.35694" lon="3.22164">
        <ele>470</ele>
        <time>2022-07-23T09:26:04Z</time>
      </trkpt>
      <trkpt lat="45.35682" lon="3.22164">
        <ele>469</ele>
        <time>2022-07-23T09:26:07Z</time>
      </trkpt>
      <trkpt lat="45.35672" lon="3.22162">
        <ele>467</ele>
        <time>2022-07-23T09:26:08Z</time>
      </trkpt>
      <trkpt lat="45.35663" lon="3.22158">
        <ele>467</ele>
        <time>2022-07-23T09:26:10Z</time>
      </trkpt>
      <trkpt lat="45.35647" lon="3.22138">
        <ele>466</ele>
        <time>2022-07-23T09:26:14Z</time>
      </trkpt>
      <trkpt lat="45.35639" lon="3.22122">
        <ele>466</ele>
        <time>2022-07-23T09:26:16Z</time>
      </trkpt>
      <trkpt lat="45.35628" lon="3.22098">
        <ele>466</ele>
        <time>2022-07-23T09:26:20Z</time>
      </trkpt>
      <trkpt lat="45.35613" lon="3.22075">
        <ele>467</ele>
        <time>2022-07-23T09:26:24Z</time>
      </trkpt>
      <trkpt lat="45.356" lon="3.2206">
        <ele>467</ele>
        <time>2022-07-23T09:26:27Z</time>
      </trkpt>
      <trkpt lat="45.35552" lon="3.22018">
        <ele>468</ele>
        <time>2022-07-23T09:26:37Z</time>
      </trkpt>
      <trkpt lat="45.35561" lon="3.21972">
        <ele>465</ele>
        <time>2022-07-23T09:26:43Z</time>
      </trkpt>
      <trkpt lat="45.35561" lon="3.21925">
        <ele>464</ele>
        <time>2022-07-23T09:26:49Z</time>
      </trkpt>
      <trkpt lat="45.35562" lon="3.21916">
        <ele>463</ele>
        <time>2022-07-23T09:26:50Z</time>
      </trkpt>
      <trkpt lat="45.35562" lon="3.21863">
        <ele>478</ele>
        <time>2022-07-23T09:26:56Z</time>
      </trkpt>
      <trkpt lat="45.35564" lon="3.21849">
        <ele>481</ele>
        <time>2022-07-23T09:26:58Z</time>
      </trkpt>
      <trkpt lat="45.35604" lon="3.21846">
        <ele>479</ele>
        <time>2022-07-23T09:27:05Z</time>
      </trkpt>
      <trkpt lat="45.35633" lon="3.2184">
        <ele>477</ele>
        <time>2022-07-23T09:27:11Z</time>
      </trkpt>
      <trkpt lat="45.35658" lon="3.21826">
        <ele>477</ele>
        <time>2022-07-23T09:27:15Z</time>
      </trkpt>
      <trkpt lat="45.35676" lon="3.21813">
        <ele>479</ele>
        <time>2022-07-23T09:27:19Z</time>
      </trkpt>
      <trkpt lat="45.35744" lon="3.2175">
        <ele>484</ele>
        <time>2022-07-23T09:27:33Z</time>
      </trkpt>
      <trkpt lat="45.35764" lon="3.21726">
        <ele>486</ele>
        <time>2022-07-23T09:27:38Z</time>
      </trkpt>
      <trkpt lat="45.35789" lon="3.21687">
        <ele>489</ele>
        <time>2022-07-23T09:27:45Z</time>
      </trkpt>
      <trkpt lat="45.35817" lon="3.21652">
        <ele>489</ele>
        <time>2022-07-23T09:27:51Z</time>
      </trkpt>
      <trkpt lat="45.35832" lon="3.21626">
        <ele>489</ele>
        <time>2022-07-23T09:27:55Z</time>
      </trkpt>
      <trkpt lat="45.35865" lon="3.2152">
        <ele>493</ele>
        <time>2022-07-23T09:28:10Z</time>
      </trkpt>
      <trkpt lat="45.35886" lon="3.2147">
        <ele>490</ele>
        <time>2022-07-23T09:28:17Z</time>
      </trkpt>
      <trkpt lat="45.35903" lon="3.21391">
        <ele>488</ele>
        <time>2022-07-23T09:28:28Z</time>
      </trkpt>
      <trkpt lat="45.35902" lon="3.2136">
        <ele>490</ele>
        <time>2022-07-23T09:28:31Z</time>
      </trkpt>
      <trkpt lat="45.35897" lon="3.21338">
        <ele>493</ele>
        <time>2022-07-23T09:28:34Z</time>
      </trkpt>
      <trkpt lat="45.35895" lon="3.21313">
        <ele>493</ele>
        <time>2022-07-23T09:28:37Z</time>
      </trkpt>
      <trkpt lat="45.35898" lon="3.21274">
        <ele>491</ele>
        <time>2022-07-23T09:28:42Z</time>
      </trkpt>
      <trkpt lat="45.35891" lon="3.21253">
        <ele>492</ele>
        <time>2022-07-23T09:28:45Z</time>
      </trkpt>
      <trkpt lat="45.35883" lon="3.21241">
        <ele>492</ele>
        <time>2022-07-23T09:28:47Z</time>
      </trkpt>
      <trkpt lat="45.35844" lon="3.21214">
        <ele>494</ele>
        <time>2022-07-23T09:28:55Z</time>
      </trkpt>
      <trkpt lat="45.35818" lon="3.21183">
        <ele>494</ele>
        <time>2022-07-23T09:29:01Z</time>
      </trkpt>
      <trkpt lat="45.3578" lon="3.21153">
        <ele>500</ele>
        <time>2022-07-23T09:29:09Z</time>
      </trkpt>
      <trkpt lat="45.35774" lon="3.21143">
        <ele>501</ele>
        <time>2022-07-23T09:29:10Z</time>
      </trkpt>
      <trkpt lat="45.35785" lon="3.21084">
        <ele>493</ele>
        <time>2022-07-23T09:29:18Z</time>
      </trkpt>
      <trkpt lat="45.35792" lon="3.21026">
        <ele>488</ele>
        <time>2022-07-23T09:29:25Z</time>
      </trkpt>
      <trkpt lat="45.35791" lon="3.20992">
        <ele>487</ele>
        <time>2022-07-23T09:29:30Z</time>
      </trkpt>
      <trkpt lat="45.35784" lon="3.20964">
        <ele>488</ele>
        <time>2022-07-23T09:29:33Z</time>
      </trkpt>
      <trkpt lat="45.35768" lon="3.2092">
        <ele>489</ele>
        <time>2022-07-23T09:29:40Z</time>
      </trkpt>
      <trkpt lat="45.35723" lon="3.20836">
        <ele>489</ele>
        <time>2022-07-23T09:29:53Z</time>
      </trkpt>
      <trkpt lat="45.35716" lon="3.20806">
        <ele>490</ele>
        <time>2022-07-23T09:29:57Z</time>
      </trkpt>
      <trkpt lat="45.35717" lon="3.20792">
        <ele>488</ele>
        <time>2022-07-23T09:29:59Z</time>
      </trkpt>
      <trkpt lat="45.35733" lon="3.20771">
        <ele>483</ele>
        <time>2022-07-23T09:30:02Z</time>
      </trkpt>
      <trkpt lat="45.35753" lon="3.20754">
        <ele>479</ele>
        <time>2022-07-23T09:30:07Z</time>
      </trkpt>
      <trkpt lat="45.35767" lon="3.20742">
        <ele>484</ele>
        <time>2022-07-23T09:30:09Z</time>
      </trkpt>
      <trkpt lat="45.35773" lon="3.20728">
        <ele>486</ele>
        <time>2022-07-23T09:30:12Z</time>
      </trkpt>
      <trkpt lat="45.35765" lon="3.2069">
        <ele>483</ele>
        <time>2022-07-23T09:30:16Z</time>
      </trkpt>
      <trkpt lat="45.35765" lon="3.20679">
        <ele>483</ele>
        <time>2022-07-23T09:30:18Z</time>
      </trkpt>
      <trkpt lat="45.35768" lon="3.20663">
        <ele>484</ele>
        <time>2022-07-23T09:30:20Z</time>
      </trkpt>
      <trkpt lat="45.35778" lon="3.20644">
        <ele>487</ele>
        <time>2022-07-23T09:30:23Z</time>
      </trkpt>
      <trkpt lat="45.35799" lon="3.20618">
        <ele>493</ele>
        <time>2022-07-23T09:30:28Z</time>
      </trkpt>
      <trkpt lat="45.35807" lon="3.20594">
        <ele>494</ele>
        <time>2022-07-23T09:30:31Z</time>
      </trkpt>
      <trkpt lat="45.3581" lon="3.20563">
        <ele>495</ele>
        <time>2022-07-23T09:30:35Z</time>
      </trkpt>
      <trkpt lat="45.35809" lon="3.20536">
        <ele>496</ele>
        <time>2022-07-23T09:30:38Z</time>
      </trkpt>
      <trkpt lat="45.35803" lon="3.20504">
        <ele>495</ele>
        <time>2022-07-23T09:30:43Z</time>
      </trkpt>
      <trkpt lat="45.35776" lon="3.20449">
        <ele>496</ele>
        <time>2022-07-23T09:30:51Z</time>
      </trkpt>
      <trkpt lat="45.35775" lon="3.2043">
        <ele>497</ele>
        <time>2022-07-23T09:30:53Z</time>
      </trkpt>
      <trkpt lat="45.35785" lon="3.20381">
        <ele>503</ele>
        <time>2022-07-23T09:31:00Z</time>
      </trkpt>
      <trkpt lat="45.35806" lon="3.20331">
        <ele>509</ele>
        <time>2022-07-23T09:31:07Z</time>
      </trkpt>
      <trkpt lat="45.3581" lon="3.20269">
        <ele>512</ele>
        <time>2022-07-23T09:31:15Z</time>
      </trkpt>
      <trkpt lat="45.35817" lon="3.20235">
        <ele>513</ele>
        <time>2022-07-23T09:31:19Z</time>
      </trkpt>
      <trkpt lat="45.35849" lon="3.20162">
        <ele>511</ele>
        <time>2022-07-23T09:31:30Z</time>
      </trkpt>
      <trkpt lat="45.35853" lon="3.20148">
        <ele>513</ele>
        <time>2022-07-23T09:31:32Z</time>
      </trkpt>
      <trkpt lat="45.35859" lon="3.20083">
        <ele>517</ele>
        <time>2022-07-23T09:31:40Z</time>
      </trkpt>
      <trkpt lat="45.35865" lon="3.20056">
        <ele>519</ele>
        <time>2022-07-23T09:31:44Z</time>
      </trkpt>
      <trkpt lat="45.35872" lon="3.20041">
        <ele>520</ele>
        <time>2022-07-23T09:31:46Z</time>
      </trkpt>
      <trkpt lat="45.35886" lon="3.20023">
        <ele>521</ele>
        <time>2022-07-23T09:31:49Z</time>
      </trkpt>
      <trkpt lat="45.35931" lon="3.1998">
        <ele>520</ele>
        <time>2022-07-23T09:31:59Z</time>
      </trkpt>
      <trkpt lat="45.35953" lon="3.19973">
        <ele>523</ele>
        <time>2022-07-23T09:32:03Z</time>
      </trkpt>
      <trkpt lat="45.35986" lon="3.19966">
        <ele>526</ele>
        <time>2022-07-23T09:32:09Z</time>
      </trkpt>
      <trkpt lat="45.36001" lon="3.19956">
        <ele>526</ele>
        <time>2022-07-23T09:32:12Z</time>
      </trkpt>
      <trkpt lat="45.36014" lon="3.19944">
        <ele>525</ele>
        <time>2022-07-23T09:32:15Z</time>
      </trkpt>
      <trkpt lat="45.36034" lon="3.19931">
        <ele>524</ele>
        <time>2022-07-23T09:32:18Z</time>
      </trkpt>
      <trkpt lat="45.36086" lon="3.19912">
        <ele>527</ele>
        <time>2022-07-23T09:32:28Z</time>
      </trkpt>
      <trkpt lat="45.36103" lon="3.19901">
        <ele>530</ele>
        <time>2022-07-23T09:32:31Z</time>
      </trkpt>
      <trkpt lat="45.36145" lon="3.19864">
        <ele>532</ele>
        <time>2022-07-23T09:32:40Z</time>
      </trkpt>
      <trkpt lat="45.36174" lon="3.19851">
        <ele>533</ele>
        <time>2022-07-23T09:32:46Z</time>
      </trkpt>
      <trkpt lat="45.36183" lon="3.19842">
        <ele>534</ele>
        <time>2022-07-23T09:32:47Z</time>
      </trkpt>
      <trkpt lat="45.36191" lon="3.19819">
        <ele>536</ele>
        <time>2022-07-23T09:32:51Z</time>
      </trkpt>
      <trkpt lat="45.362" lon="3.1978">
        <ele>539</ele>
        <time>2022-07-23T09:32:56Z</time>
      </trkpt>
      <trkpt lat="45.3621" lon="3.19757">
        <ele>542</ele>
        <time>2022-07-23T09:32:59Z</time>
      </trkpt>
      <trkpt lat="45.36298" lon="3.196">
        <ele>550</ele>
        <time>2022-07-23T09:33:24Z</time>
      </trkpt>
      <trkpt lat="45.36312" lon="3.19563">
        <ele>549</ele>
        <time>2022-07-23T09:33:30Z</time>
      </trkpt>
      <trkpt lat="45.36316" lon="3.19546">
        <ele>549</ele>
        <time>2022-07-23T09:33:32Z</time>
      </trkpt>
      <trkpt lat="45.36319" lon="3.19511">
        <ele>548</ele>
        <time>2022-07-23T09:33:36Z</time>
      </trkpt>
      <trkpt lat="45.36325" lon="3.1949">
        <ele>549</ele>
        <time>2022-07-23T09:33:39Z</time>
      </trkpt>
      <trkpt lat="45.36327" lon="3.19476">
        <ele>551</ele>
        <time>2022-07-23T09:33:41Z</time>
      </trkpt>
      <trkpt lat="45.36319" lon="3.19457">
        <ele>552</ele>
        <time>2022-07-23T09:33:44Z</time>
      </trkpt>
      <trkpt lat="45.36311" lon="3.19447">
        <ele>553</ele>
        <time>2022-07-23T09:33:46Z</time>
      </trkpt>
      <trkpt lat="45.36306" lon="3.19437">
        <ele>553</ele>
        <time>2022-07-23T09:33:47Z</time>
      </trkpt>
      <trkpt lat="45.36303" lon="3.19416">
        <ele>554</ele>
        <time>2022-07-23T09:33:50Z</time>
      </trkpt>
      <trkpt lat="45.36305" lon="3.19395">
        <ele>557</ele>
        <time>2022-07-23T09:33:52Z</time>
      </trkpt>
      <trkpt lat="45.36316" lon="3.19357">
        <ele>561</ele>
        <time>2022-07-23T09:33:58Z</time>
      </trkpt>
      <trkpt lat="45.36317" lon="3.19302">
        <ele>564</ele>
        <time>2022-07-23T09:34:04Z</time>
      </trkpt>
      <trkpt lat="45.36326" lon="3.19178">
        <ele>566</ele>
        <time>2022-07-23T09:34:20Z</time>
      </trkpt>
      <trkpt lat="45.36335" lon="3.19156">
        <ele>565</ele>
        <time>2022-07-23T09:34:23Z</time>
      </trkpt>
      <trkpt lat="45.36346" lon="3.19133">
        <ele>568</ele>
        <time>2022-07-23T09:34:27Z</time>
      </trkpt>
      <trkpt lat="45.36363" lon="3.19091">
        <ele>570</ele>
        <time>2022-07-23T09:34:33Z</time>
      </trkpt>
      <trkpt lat="45.36379" lon="3.19075">
        <ele>573</ele>
        <time>2022-07-23T09:34:36Z</time>
      </trkpt>
      <trkpt lat="45.36384" lon="3.19061">
        <ele>575</ele>
        <time>2022-07-23T09:34:38Z</time>
      </trkpt>
      <trkpt lat="45.36382" lon="3.19043">
        <ele>576</ele>
        <time>2022-07-23T09:34:40Z</time>
      </trkpt>
      <trkpt lat="45.36364" lon="3.19015">
        <ele>574</ele>
        <time>2022-07-23T09:34:45Z</time>
      </trkpt>
      <trkpt lat="45.36356" lon="3.18983">
        <ele>575</ele>
        <time>2022-07-23T09:34:49Z</time>
      </trkpt>
      <trkpt lat="45.36328" lon="3.18898">
        <ele>577</ele>
        <time>2022-07-23T09:35:01Z</time>
      </trkpt>
      <trkpt lat="45.36327" lon="3.18882">
        <ele>578</ele>
        <time>2022-07-23T09:35:03Z</time>
      </trkpt>
      <trkpt lat="45.36348" lon="3.18798">
        <ele>585</ele>
        <time>2022-07-23T09:35:14Z</time>
      </trkpt>
      <trkpt lat="45.36347" lon="3.1873">
        <ele>587</ele>
        <time>2022-07-23T09:35:23Z</time>
      </trkpt>
      <trkpt lat="45.36351" lon="3.1871">
        <ele>589</ele>
        <time>2022-07-23T09:35:25Z</time>
      </trkpt>
      <trkpt lat="45.36354" lon="3.18693">
        <ele>590</ele>
        <time>2022-07-23T09:35:28Z</time>
      </trkpt>
      <trkpt lat="45.36372" lon="3.18643">
        <ele>595</ele>
        <time>2022-07-23T09:35:35Z</time>
      </trkpt>
      <trkpt lat="45.36386" lon="3.1861">
        <ele>598</ele>
        <time>2022-07-23T09:35:39Z</time>
      </trkpt>
      <trkpt lat="45.36419" lon="3.18547">
        <ele>597</ele>
        <time>2022-07-23T09:35:49Z</time>
      </trkpt>
      <trkpt lat="45.36444" lon="3.1848">
        <ele>602</ele>
        <time>2022-07-23T09:35:59Z</time>
      </trkpt>
      <trkpt lat="45.36465" lon="3.18436">
        <ele>608</ele>
        <time>2022-07-23T09:36:05Z</time>
      </trkpt>
      <trkpt lat="45.36463" lon="3.18384">
        <ele>609</ele>
        <time>2022-07-23T09:36:12Z</time>
      </trkpt>
      <trkpt lat="45.36476" lon="3.18322">
        <ele>611</ele>
        <time>2022-07-23T09:36:20Z</time>
      </trkpt>
      <trkpt lat="45.36493" lon="3.18278">
        <ele>610</ele>
        <time>2022-07-23T09:36:26Z</time>
      </trkpt>
      <trkpt lat="45.36503" lon="3.18233">
        <ele>608</ele>
        <time>2022-07-23T09:36:32Z</time>
      </trkpt>
      <trkpt lat="45.36517" lon="3.18208">
        <ele>609</ele>
        <time>2022-07-23T09:36:36Z</time>
      </trkpt>
      <trkpt lat="45.36544" lon="3.18181">
        <ele>610</ele>
        <time>2022-07-23T09:36:42Z</time>
      </trkpt>
      <trkpt lat="45.36548" lon="3.18174">
        <ele>610</ele>
        <time>2022-07-23T09:36:43Z</time>
      </trkpt>
      <trkpt lat="45.36549" lon="3.18165">
        <ele>609</ele>
        <time>2022-07-23T09:36:44Z</time>
      </trkpt>
      <trkpt lat="45.36547" lon="3.18154">
        <ele>610</ele>
        <time>2022-07-23T09:36:46Z</time>
      </trkpt>
      <trkpt lat="45.36542" lon="3.18142">
        <ele>610</ele>
        <time>2022-07-23T09:36:47Z</time>
      </trkpt>
      <trkpt lat="45.36526" lon="3.18131">
        <ele>609</ele>
        <time>2022-07-23T09:36:51Z</time>
      </trkpt>
      <trkpt lat="45.36518" lon="3.1812">
        <ele>609</ele>
        <time>2022-07-23T09:36:53Z</time>
      </trkpt>
      <trkpt lat="45.36514" lon="3.18104">
        <ele>609</ele>
        <time>2022-07-23T09:36:55Z</time>
      </trkpt>
      <trkpt lat="45.36524" lon="3.18061">
        <ele>613</ele>
        <time>2022-07-23T09:37:00Z</time>
      </trkpt>
      <trkpt lat="45.3652" lon="3.18047">
        <ele>613</ele>
        <time>2022-07-23T09:37:02Z</time>
      </trkpt>
      <trkpt lat="45.36515" lon="3.18039">
        <ele>613</ele>
        <time>2022-07-23T09:37:04Z</time>
      </trkpt>
      <trkpt lat="45.3649" lon="3.18022">
        <ele>613</ele>
        <time>2022-07-23T09:37:09Z</time>
      </trkpt>
      <trkpt lat="45.36444" lon="3.17915">
        <ele>620</ele>
        <time>2022-07-23T09:37:24Z</time>
      </trkpt>
      <trkpt lat="45.36428" lon="3.17886">
        <ele>621</ele>
        <time>2022-07-23T09:37:29Z</time>
      </trkpt>
      <trkpt lat="45.36413" lon="3.17822">
        <ele>625</ele>
        <time>2022-07-23T09:37:37Z</time>
      </trkpt>
      <trkpt lat="45.36372" lon="3.17755">
        <ele>632</ele>
        <time>2022-07-23T09:37:48Z</time>
      </trkpt>
      <trkpt lat="45.36366" lon="3.17727">
        <ele>633</ele>
        <time>2022-07-23T09:37:52Z</time>
      </trkpt>
      <trkpt lat="45.3636" lon="3.17677">
        <ele>634</ele>
        <time>2022-07-23T09:37:58Z</time>
      </trkpt>
      <trkpt lat="45.36365" lon="3.17649">
        <ele>636</ele>
        <time>2022-07-23T09:38:02Z</time>
      </trkpt>
      <trkpt lat="45.36371" lon="3.17635">
        <ele>636</ele>
        <time>2022-07-23T09:38:04Z</time>
      </trkpt>
      <trkpt lat="45.36408" lon="3.17586">
        <ele>639</ele>
        <time>2022-07-23T09:38:13Z</time>
      </trkpt>
      <trkpt lat="45.36443" lon="3.17508">
        <ele>640</ele>
        <time>2022-07-23T09:38:25Z</time>
      </trkpt>
      <trkpt lat="45.36469" lon="3.17469">
        <ele>642</ele>
        <time>2022-07-23T09:38:31Z</time>
      </trkpt>
      <trkpt lat="45.36492" lon="3.17451">
        <ele>644</ele>
        <time>2022-07-23T09:38:36Z</time>
      </trkpt>
      <trkpt lat="45.3655" lon="3.17416">
        <ele>646</ele>
        <time>2022-07-23T09:38:47Z</time>
      </trkpt>
      <trkpt lat="45.36567" lon="3.17394">
        <ele>647</ele>
        <time>2022-07-23T09:38:51Z</time>
      </trkpt>
      <trkpt lat="45.36571" lon="3.17378">
        <ele>647</ele>
        <time>2022-07-23T09:38:53Z</time>
      </trkpt>
      <trkpt lat="45.36572" lon="3.17362">
        <ele>647</ele>
        <time>2022-07-23T09:38:55Z</time>
      </trkpt>
      <trkpt lat="45.36567" lon="3.16977">
        <ele>656</ele>
        <time>2022-07-23T09:39:44Z</time>
      </trkpt>
      <trkpt lat="45.36568" lon="3.16934">
        <ele>657</ele>
        <time>2022-07-23T09:39:49Z</time>
      </trkpt>
      <trkpt lat="45.36593" lon="3.16828">
        <ele>659</ele>
        <time>2022-07-23T09:40:03Z</time>
      </trkpt>
      <trkpt lat="45.36618" lon="3.16729">
        <ele>660</ele>
        <time>2022-07-23T09:40:16Z</time>
      </trkpt>
      <trkpt lat="45.36626" lon="3.16718">
        <ele>660</ele>
        <time>2022-07-23T09:40:18Z</time>
      </trkpt>
      <trkpt lat="45.36647" lon="3.16696">
        <ele>660</ele>
        <time>2022-07-23T09:40:23Z</time>
      </trkpt>
      <trkpt lat="45.36714" lon="3.16655">
        <ele>661</ele>
        <time>2022-07-23T09:40:36Z</time>
      </trkpt>
      <trkpt lat="45.3679" lon="3.16628">
        <ele>662</ele>
        <time>2022-07-23T09:40:50Z</time>
      </trkpt>
      <trkpt lat="45.36819" lon="3.16613">
        <ele>663</ele>
        <time>2022-07-23T09:40:55Z</time>
      </trkpt>
      <trkpt lat="45.36846" lon="3.16592">
        <ele>665</ele>
        <time>2022-07-23T09:41:01Z</time>
      </trkpt>
      <trkpt lat="45.36871" lon="3.16567">
        <ele>665</ele>
        <time>2022-07-23T09:41:06Z</time>
      </trkpt>
      <trkpt lat="45.36926" lon="3.16487">
        <ele>667</ele>
        <time>2022-07-23T09:41:20Z</time>
      </trkpt>
      <trkpt lat="45.37009" lon="3.16346">
        <ele>673</ele>
        <time>2022-07-23T09:41:43Z</time>
      </trkpt>
      <trkpt lat="45.37029" lon="3.16321">
        <ele>674</ele>
        <time>2022-07-23T09:41:48Z</time>
      </trkpt>
      <trkpt lat="45.37071" lon="3.16305">
        <ele>675</ele>
        <time>2022-07-23T09:41:55Z</time>
      </trkpt>
      <trkpt lat="45.3714" lon="3.16262">
        <ele>680</ele>
        <time>2022-07-23T09:42:09Z</time>
      </trkpt>
      <trkpt lat="45.37168" lon="3.1625">
        <ele>681</ele>
        <time>2022-07-23T09:42:14Z</time>
      </trkpt>
      <trkpt lat="45.37225" lon="3.16237">
        <ele>682</ele>
        <time>2022-07-23T09:42:24Z</time>
      </trkpt>
      <trkpt lat="45.37266" lon="3.16213">
        <ele>683</ele>
        <time>2022-07-23T09:42:32Z</time>
      </trkpt>
      <trkpt lat="45.37347" lon="3.16148">
        <ele>685</ele>
        <time>2022-07-23T09:42:49Z</time>
      </trkpt>
      <trkpt lat="45.3737" lon="3.16125">
        <ele>685</ele>
        <time>2022-07-23T09:42:54Z</time>
      </trkpt>
      <trkpt lat="45.3741" lon="3.16068">
        <ele>687</ele>
        <time>2022-07-23T09:43:04Z</time>
      </trkpt>
      <trkpt lat="45.37442" lon="3.1601">
        <ele>687</ele>
        <time>2022-07-23T09:43:13Z</time>
      </trkpt>
      <trkpt lat="45.37469" lon="3.15973">
        <ele>687</ele>
        <time>2022-07-23T09:43:20Z</time>
      </trkpt>
      <trkpt lat="45.37521" lon="3.15878">
        <ele>690</ele>
        <time>2022-07-23T09:43:35Z</time>
      </trkpt>
      <trkpt lat="45.37532" lon="3.15865">
        <ele>690</ele>
        <time>2022-07-23T09:43:37Z</time>
      </trkpt>
      <trkpt lat="45.37581" lon="3.15824">
        <ele>689</ele>
        <time>2022-07-23T09:43:47Z</time>
      </trkpt>
      <trkpt lat="45.37604" lon="3.15798">
        <ele>690</ele>
        <time>2022-07-23T09:43:53Z</time>
      </trkpt>
      <trkpt lat="45.3764" lon="3.15743">
        <ele>691</ele>
        <time>2022-07-23T09:44:02Z</time>
      </trkpt>
      <trkpt lat="45.37669" lon="3.15645">
        <ele>690</ele>
        <time>2022-07-23T09:44:15Z</time>
      </trkpt>
      <trkpt lat="45.37692" lon="3.15593">
        <ele>688</ele>
        <time>2022-07-23T09:44:23Z</time>
      </trkpt>
      <trkpt lat="45.37797" lon="3.15453">
        <ele>686</ele>
        <time>2022-07-23T09:44:49Z</time>
      </trkpt>
      <trkpt lat="45.37818" lon="3.15438">
        <ele>686</ele>
        <time>2022-07-23T09:44:53Z</time>
      </trkpt>
      <trkpt lat="45.37858" lon="3.15427">
        <ele>681</ele>
        <time>2022-07-23T09:45:00Z</time>
      </trkpt>
      <trkpt lat="45.37865" lon="3.1542">
        <ele>680</ele>
        <time>2022-07-23T09:45:02Z</time>
      </trkpt>
      <trkpt lat="45.37875" lon="3.15396">
        <ele>679</ele>
        <time>2022-07-23T09:45:05Z</time>
      </trkpt>
      <trkpt lat="45.37887" lon="3.15328">
        <ele>678</ele>
        <time>2022-07-23T09:45:14Z</time>
      </trkpt>
      <trkpt lat="45.37897" lon="3.15294">
        <ele>677</ele>
        <time>2022-07-23T09:45:18Z</time>
      </trkpt>
      <trkpt lat="45.37911" lon="3.15263">
        <ele>676</ele>
        <time>2022-07-23T09:45:23Z</time>
      </trkpt>
      <trkpt lat="45.37932" lon="3.15242">
        <ele>676</ele>
        <time>2022-07-23T09:45:28Z</time>
      </trkpt>
      <trkpt lat="45.37956" lon="3.15235">
        <ele>675</ele>
        <time>2022-07-23T09:45:32Z</time>
      </trkpt>
      <trkpt lat="45.37985" lon="3.15239">
        <ele>674</ele>
        <time>2022-07-23T09:45:37Z</time>
      </trkpt>
      <trkpt lat="45.38002" lon="3.1523">
        <ele>674</ele>
        <time>2022-07-23T09:45:40Z</time>
      </trkpt>
      <trkpt lat="45.38018" lon="3.15209">
        <ele>673</ele>
        <time>2022-07-23T09:45:44Z</time>
      </trkpt>
      <trkpt lat="45.38067" lon="3.1513">
        <ele>670</ele>
        <time>2022-07-23T09:45:57Z</time>
      </trkpt>
      <trkpt lat="45.38117" lon="3.15033">
        <ele>669</ele>
        <time>2022-07-23T09:46:12Z</time>
      </trkpt>
      <trkpt lat="45.38155" lon="3.14938">
        <ele>668</ele>
        <time>2022-07-23T09:46:26Z</time>
      </trkpt>
      <trkpt lat="45.38175" lon="3.14907">
        <ele>668</ele>
        <time>2022-07-23T09:46:31Z</time>
      </trkpt>
      <trkpt lat="45.38187" lon="3.14894">
        <ele>668</ele>
        <time>2022-07-23T09:46:34Z</time>
      </trkpt>
      <trkpt lat="45.38247" lon="3.14848">
        <ele>669</ele>
        <time>2022-07-23T09:46:46Z</time>
      </trkpt>
      <trkpt lat="45.38422" lon="3.14688">
        <ele>679</ele>
        <time>2022-07-23T09:47:23Z</time>
      </trkpt>
      <trkpt lat="45.38448" lon="3.1467">
        <ele>682</ele>
        <time>2022-07-23T09:47:28Z</time>
      </trkpt>
      <trkpt lat="45.38585" lon="3.14595">
        <ele>693</ele>
        <time>2022-07-23T09:47:54Z</time>
      </trkpt>
      <trkpt lat="45.38618" lon="3.14567">
        <ele>693</ele>
        <time>2022-07-23T09:48:01Z</time>
      </trkpt>
      <trkpt lat="45.3864" lon="3.14552">
        <ele>693</ele>
        <time>2022-07-23T09:48:06Z</time>
      </trkpt>
      <trkpt lat="45.38787" lon="3.14513">
        <ele>695</ele>
        <time>2022-07-23T09:48:32Z</time>
      </trkpt>
      <trkpt lat="45.38817" lon="3.14495">
        <ele>696</ele>
        <time>2022-07-23T09:48:38Z</time>
      </trkpt>
      <trkpt lat="45.38856" lon="3.14459">
        <ele>698</ele>
        <time>2022-07-23T09:48:46Z</time>
      </trkpt>
      <trkpt lat="45.38895" lon="3.14442">
        <ele>701</ele>
        <time>2022-07-23T09:48:54Z</time>
      </trkpt>
      <trkpt lat="45.38901" lon="3.14437">
        <ele>701</ele>
        <time>2022-07-23T09:48:55Z</time>
      </trkpt>
      <trkpt lat="45.38909" lon="3.14419">
        <ele>702</ele>
        <time>2022-07-23T09:48:57Z</time>
      </trkpt>
      <trkpt lat="45.38941" lon="3.14327">
        <ele>704</ele>
        <time>2022-07-23T09:49:10Z</time>
      </trkpt>
      <trkpt lat="45.38948" lon="3.1429">
        <ele>703</ele>
        <time>2022-07-23T09:49:15Z</time>
      </trkpt>
      <trkpt lat="45.3895" lon="3.14263">
        <ele>702</ele>
        <time>2022-07-23T09:49:18Z</time>
      </trkpt>
      <trkpt lat="45.38954" lon="3.14247">
        <ele>701</ele>
        <time>2022-07-23T09:49:21Z</time>
      </trkpt>
      <trkpt lat="45.38962" lon="3.14232">
        <ele>700</ele>
        <time>2022-07-23T09:49:23Z</time>
      </trkpt>
      <trkpt lat="45.38972" lon="3.14219">
        <ele>699</ele>
        <time>2022-07-23T09:49:25Z</time>
      </trkpt>
      <trkpt lat="45.38995" lon="3.14198">
        <ele>697</ele>
        <time>2022-07-23T09:49:30Z</time>
      </trkpt>
      <trkpt lat="45.39009" lon="3.14178">
        <ele>696</ele>
        <time>2022-07-23T09:49:34Z</time>
      </trkpt>
      <trkpt lat="45.39062" lon="3.14076">
        <ele>690</ele>
        <time>2022-07-23T09:49:50Z</time>
      </trkpt>
      <trkpt lat="45.39154" lon="3.13989">
        <ele>681</ele>
        <time>2022-07-23T09:50:09Z</time>
      </trkpt>
      <trkpt lat="45.39188" lon="3.13975">
        <ele>681</ele>
        <time>2022-07-23T09:50:16Z</time>
      </trkpt>
      <trkpt lat="45.392" lon="3.13966">
        <ele>681</ele>
        <time>2022-07-23T09:50:18Z</time>
      </trkpt>
      <trkpt lat="45.39209" lon="3.13948">
        <ele>680</ele>
        <time>2022-07-23T09:50:21Z</time>
      </trkpt>
      <trkpt lat="45.39214" lon="3.13922">
        <ele>679</ele>
        <time>2022-07-23T09:50:24Z</time>
      </trkpt>
      <trkpt lat="45.39219" lon="3.13882">
        <ele>677</ele>
        <time>2022-07-23T09:50:29Z</time>
      </trkpt>
      <trkpt lat="45.39231" lon="3.1384">
        <ele>676</ele>
        <time>2022-07-23T09:50:35Z</time>
      </trkpt>
      <trkpt lat="45.39265" lon="3.13785">
        <ele>671</ele>
        <time>2022-07-23T09:50:44Z</time>
      </trkpt>
      <trkpt lat="45.39289" lon="3.13762">
        <ele>668</ele>
        <time>2022-07-23T09:50:49Z</time>
      </trkpt>
      <trkpt lat="45.3935" lon="3.13721">
        <ele>667</ele>
        <time>2022-07-23T09:51:01Z</time>
      </trkpt>
      <trkpt lat="45.39395" lon="3.13675">
        <ele>664</ele>
        <time>2022-07-23T09:51:11Z</time>
      </trkpt>
      <trkpt lat="45.39483" lon="3.13609">
        <ele>656</ele>
        <time>2022-07-23T09:51:29Z</time>
      </trkpt>
      <trkpt lat="45.3956" lon="3.13563">
        <ele>651</ele>
        <time>2022-07-23T09:51:44Z</time>
      </trkpt>
      <trkpt lat="45.39605" lon="3.1354">
        <ele>651</ele>
        <time>2022-07-23T09:51:52Z</time>
      </trkpt>
      <trkpt lat="45.39659" lon="3.13465">
        <ele>645</ele>
        <time>2022-07-23T09:52:05Z</time>
      </trkpt>
      <trkpt lat="45.397" lon="3.1342">
        <ele>640</ele>
        <time>2022-07-23T09:52:15Z</time>
      </trkpt>
      <trkpt lat="45.39718" lon="3.13394">
        <ele>639</ele>
        <time>2022-07-23T09:52:19Z</time>
      </trkpt>
      <trkpt lat="45.39746" lon="3.13334">
        <ele>636</ele>
        <time>2022-07-23T09:52:28Z</time>
      </trkpt>
      <trkpt lat="45.39757" lon="3.133">
        <ele>637</ele>
        <time>2022-07-23T09:52:33Z</time>
      </trkpt>
      <trkpt lat="45.39772" lon="3.13226">
        <ele>637</ele>
        <time>2022-07-23T09:52:43Z</time>
      </trkpt>
      <trkpt lat="45.39781" lon="3.13191">
        <ele>637</ele>
        <time>2022-07-23T09:52:47Z</time>
      </trkpt>
      <trkpt lat="45.39801" lon="3.13136">
        <ele>635</ele>
        <time>2022-07-23T09:52:55Z</time>
      </trkpt>
      <trkpt lat="45.39813" lon="3.13067">
        <ele>631</ele>
        <time>2022-07-23T09:53:04Z</time>
      </trkpt>
      <trkpt lat="45.39833" lon="3.12987">
        <ele>625</ele>
        <time>2022-07-23T09:53:14Z</time>
      </trkpt>
      <trkpt lat="45.39846" lon="3.12962">
        <ele>625</ele>
        <time>2022-07-23T09:53:18Z</time>
      </trkpt>
      <trkpt lat="45.39874" lon="3.12932">
        <ele>624</ele>
        <time>2022-07-23T09:53:25Z</time>
      </trkpt>
      <trkpt lat="45.39888" lon="3.12905">
        <ele>625</ele>
        <time>2022-07-23T09:53:29Z</time>
      </trkpt>
      <trkpt lat="45.39896" lon="3.12855">
        <ele>628</ele>
        <time>2022-07-23T09:53:35Z</time>
      </trkpt>
      <trkpt lat="45.39906" lon="3.12824">
        <ele>630</ele>
        <time>2022-07-23T09:53:39Z</time>
      </trkpt>
      <trkpt lat="45.39934" lon="3.12768">
        <ele>637</ele>
        <time>2022-07-23T09:53:48Z</time>
      </trkpt>
      <trkpt lat="45.39956" lon="3.12705">
        <ele>642</ele>
        <time>2022-07-23T09:53:57Z</time>
      </trkpt>
      <trkpt lat="45.39971" lon="3.12678">
        <ele>643</ele>
        <time>2022-07-23T09:54:01Z</time>
      </trkpt>
      <trkpt lat="45.39991" lon="3.12661">
        <ele>643</ele>
        <time>2022-07-23T09:54:05Z</time>
      </trkpt>
      <trkpt lat="45.40073" lon="3.12629">
        <ele>641</ele>
        <time>2022-07-23T09:54:20Z</time>
      </trkpt>
      <trkpt lat="45.40089" lon="3.12616">
        <ele>641</ele>
        <time>2022-07-23T09:54:24Z</time>
      </trkpt>
      <trkpt lat="45.4011" lon="3.12593">
        <ele>640</ele>
        <time>2022-07-23T09:54:28Z</time>
      </trkpt>
      <trkpt lat="45.40176" lon="3.12542">
        <ele>634</ele>
        <time>2022-07-23T09:54:42Z</time>
      </trkpt>
      <trkpt lat="45.40174" lon="3.12533">
        <ele>634</ele>
        <time>2022-07-23T09:54:43Z</time>
      </trkpt>
      <trkpt lat="45.40161" lon="3.12498">
        <ele>636</ele>
        <time>2022-07-23T09:54:48Z</time>
      </trkpt>
      <trkpt lat="45.40162" lon="3.1248">
        <ele>637</ele>
        <time>2022-07-23T09:54:50Z</time>
      </trkpt>
      <trkpt lat="45.40168" lon="3.12472">
        <ele>636</ele>
        <time>2022-07-23T09:54:52Z</time>
      </trkpt>
      <trkpt lat="45.4018" lon="3.12463">
        <ele>637</ele>
        <time>2022-07-23T09:54:54Z</time>
      </trkpt>
      <trkpt lat="45.40205" lon="3.12453">
        <ele>637</ele>
        <time>2022-07-23T09:54:59Z</time>
      </trkpt>
      <trkpt lat="45.4022" lon="3.12454">
        <ele>637</ele>
        <time>2022-07-23T09:55:01Z</time>
      </trkpt>
      <trkpt lat="45.4023" lon="3.12461">
        <ele>636</ele>
        <time>2022-07-23T09:55:03Z</time>
      </trkpt>
      <trkpt lat="45.40268" lon="3.12489">
        <ele>633</ele>
        <time>2022-07-23T09:55:11Z</time>
      </trkpt>
      <trkpt lat="45.40279" lon="3.12502">
        <ele>632</ele>
        <time>2022-07-23T09:55:13Z</time>
      </trkpt>
      <trkpt lat="45.4029" lon="3.12489">
        <ele>631</ele>
        <time>2022-07-23T09:55:16Z</time>
      </trkpt>
      <trkpt lat="45.40302" lon="3.12483">
        <ele>630</ele>
        <time>2022-07-23T09:55:18Z</time>
      </trkpt>
      <trkpt lat="45.40311" lon="3.12482">
        <ele>629</ele>
        <time>2022-07-23T09:55:20Z</time>
      </trkpt>
      <trkpt lat="45.40325" lon="3.12489">
        <ele>628</ele>
        <time>2022-07-23T09:55:22Z</time>
      </trkpt>
      <trkpt lat="45.40376" lon="3.12526">
        <ele>623</ele>
        <time>2022-07-23T09:55:33Z</time>
      </trkpt>
      <trkpt lat="45.40396" lon="3.12529">
        <ele>620</ele>
        <time>2022-07-23T09:55:36Z</time>
      </trkpt>
      <trkpt lat="45.40426" lon="3.12526">
        <ele>615</ele>
        <time>2022-07-23T09:55:42Z</time>
      </trkpt>
      <trkpt lat="45.4045" lon="3.12531">
        <ele>612</ele>
        <time>2022-07-23T09:55:46Z</time>
      </trkpt>
      <trkpt lat="45.40475" lon="3.12532">
        <ele>609</ele>
        <time>2022-07-23T09:55:50Z</time>
      </trkpt>
      <trkpt lat="45.40499" lon="3.12545">
        <ele>606</ele>
        <time>2022-07-23T09:55:55Z</time>
      </trkpt>
      <trkpt lat="45.40505" lon="3.12546">
        <ele>605</ele>
        <time>2022-07-23T09:55:56Z</time>
      </trkpt>
      <trkpt lat="45.4051" lon="3.12612">
        <ele>609</ele>
        <time>2022-07-23T09:56:04Z</time>
      </trkpt>
      <trkpt lat="45.40525" lon="3.12677">
        <ele>611</ele>
        <time>2022-07-23T09:56:13Z</time>
      </trkpt>
      <trkpt lat="45.4053" lon="3.12687">
        <ele>611</ele>
        <time>2022-07-23T09:56:14Z</time>
      </trkpt>
      <trkpt lat="45.40525" lon="3.12677">
        <ele>611</ele>
        <time>2022-07-23T09:56:16Z</time>
      </trkpt>
      <trkpt lat="45.4051" lon="3.12612">
        <ele>609</ele>
        <time>2022-07-23T09:56:24Z</time>
      </trkpt>
      <trkpt lat="45.40505" lon="3.12542">
        <ele>605</ele>
        <time>2022-07-23T09:56:33Z</time>
      </trkpt>
      <trkpt lat="45.405" lon="3.12521">
        <ele>604</ele>
        <time>2022-07-23T09:56:36Z</time>
      </trkpt>
      <trkpt lat="45.40493" lon="3.12504">
        <ele>604</ele>
        <time>2022-07-23T09:56:38Z</time>
      </trkpt>
      <trkpt lat="45.40491" lon="3.12488">
        <ele>604</ele>
        <time>2022-07-23T09:56:40Z</time>
      </trkpt>
      <trkpt lat="45.40493" lon="3.12468">
        <ele>603</ele>
        <time>2022-07-23T09:56:43Z</time>
      </trkpt>
      <trkpt lat="45.4051" lon="3.12403">
        <ele>601</ele>
        <time>2022-07-23T09:56:52Z</time>
      </trkpt>
      <trkpt lat="45.40515" lon="3.12367">
        <ele>601</ele>
        <time>2022-07-23T09:56:56Z</time>
      </trkpt>
      <trkpt lat="45.40513" lon="3.12269">
        <ele>601</ele>
        <time>2022-07-23T09:57:08Z</time>
      </trkpt>
      <trkpt lat="45.4051" lon="3.12235">
        <ele>602</ele>
        <time>2022-07-23T09:57:13Z</time>
      </trkpt>
      <trkpt lat="45.40502" lon="3.12222">
        <ele>603</ele>
        <time>2022-07-23T09:57:15Z</time>
      </trkpt>
      <trkpt lat="45.40498" lon="3.12207">
        <ele>604</ele>
        <time>2022-07-23T09:57:17Z</time>
      </trkpt>
      <trkpt lat="45.40494" lon="3.12137">
        <ele>608</ele>
        <time>2022-07-23T09:57:26Z</time>
      </trkpt>
      <trkpt lat="45.405" lon="3.12105">
        <ele>608</ele>
        <time>2022-07-23T09:57:30Z</time>
      </trkpt>
      <trkpt lat="45.40514" lon="3.12065">
        <ele>610</ele>
        <time>2022-07-23T09:57:35Z</time>
      </trkpt>
      <trkpt lat="45.40522" lon="3.1203">
        <ele>612</ele>
        <time>2022-07-23T09:57:40Z</time>
      </trkpt>
      <trkpt lat="45.40539" lon="3.11944">
        <ele>616</ele>
        <time>2022-07-23T09:57:51Z</time>
      </trkpt>
      <trkpt lat="45.40569" lon="3.11848">
        <ele>612</ele>
        <time>2022-07-23T09:58:04Z</time>
      </trkpt>
      <trkpt lat="45.40589" lon="3.11769">
        <ele>608</ele>
        <time>2022-07-23T09:58:15Z</time>
      </trkpt>
      <trkpt lat="45.40606" lon="3.11716">
        <ele>612</ele>
        <time>2022-07-23T09:58:22Z</time>
      </trkpt>
      <trkpt lat="45.40615" lon="3.117">
        <ele>613</ele>
        <time>2022-07-23T09:58:25Z</time>
      </trkpt>
      <trkpt lat="45.40651" lon="3.11649">
        <ele>615</ele>
        <time>2022-07-23T09:58:34Z</time>
      </trkpt>
      <trkpt lat="45.40664" lon="3.11628">
        <ele>616</ele>
        <time>2022-07-23T09:58:37Z</time>
      </trkpt>
      <trkpt lat="45.40714" lon="3.1152">
        <ele>624</ele>
        <time>2022-07-23T09:58:53Z</time>
      </trkpt>
      <trkpt lat="45.40788" lon="3.11393">
        <ele>623</ele>
        <time>2022-07-23T09:59:14Z</time>
      </trkpt>
      <trkpt lat="45.40811" lon="3.1136">
        <ele>623</ele>
        <time>2022-07-23T09:59:20Z</time>
      </trkpt>
      <trkpt lat="45.40916" lon="3.11247">
        <ele>620</ele>
        <time>2022-07-23T09:59:43Z</time>
      </trkpt>
      <trkpt lat="45.40948" lon="3.11207">
        <ele>630</ele>
        <time>2022-07-23T09:59:51Z</time>
      </trkpt>
      <trkpt lat="45.40968" lon="3.11188">
        <ele>631</ele>
        <time>2022-07-23T09:59:55Z</time>
      </trkpt>
      <trkpt lat="45.40981" lon="3.11182">
        <ele>630</ele>
        <time>2022-07-23T09:59:57Z</time>
      </trkpt>
      <trkpt lat="45.41021" lon="3.11177">
        <ele>625</ele>
        <time>2022-07-23T10:00:05Z</time>
      </trkpt>
      <trkpt lat="45.41047" lon="3.11169">
        <ele>625</ele>
        <time>2022-07-23T10:00:09Z</time>
      </trkpt>
      <trkpt lat="45.41079" lon="3.11151">
        <ele>625</ele>
        <time>2022-07-23T10:00:15Z</time>
      </trkpt>
      <trkpt lat="45.41087" lon="3.11141">
        <ele>627</ele>
        <time>2022-07-23T10:00:17Z</time>
      </trkpt>
      <trkpt lat="45.41094" lon="3.11127">
        <ele>629</ele>
        <time>2022-07-23T10:00:20Z</time>
      </trkpt>
      <trkpt lat="45.41117" lon="3.11042">
        <ele>638</ele>
        <time>2022-07-23T10:00:31Z</time>
      </trkpt>
      <trkpt lat="45.41129" lon="3.11017">
        <ele>639</ele>
        <time>2022-07-23T10:00:35Z</time>
      </trkpt>
      <trkpt lat="45.41149" lon="3.10997">
        <ele>635</ele>
        <time>2022-07-23T10:00:39Z</time>
      </trkpt>
      <trkpt lat="45.41168" lon="3.10971">
        <ele>634</ele>
        <time>2022-07-23T10:00:44Z</time>
      </trkpt>
      <trkpt lat="45.41175" lon="3.10956">
        <ele>637</ele>
        <time>2022-07-23T10:00:46Z</time>
      </trkpt>
      <trkpt lat="45.41185" lon="3.10921">
        <ele>641</ele>
        <time>2022-07-23T10:00:51Z</time>
      </trkpt>
      <trkpt lat="45.41209" lon="3.10773">
        <ele>650</ele>
        <time>2022-07-23T10:01:10Z</time>
      </trkpt>
      <trkpt lat="45.41224" lon="3.10731">
        <ele>650</ele>
        <time>2022-07-23T10:01:16Z</time>
      </trkpt>
      <trkpt lat="45.41253" lon="3.10702">
        <ele>643</ele>
        <time>2022-07-23T10:01:22Z</time>
      </trkpt>
      <trkpt lat="45.41267" lon="3.10698">
        <ele>642</ele>
        <time>2022-07-23T10:01:24Z</time>
      </trkpt>
      <trkpt lat="45.41289" lon="3.107">
        <ele>640</ele>
        <time>2022-07-23T10:01:28Z</time>
      </trkpt>
      <trkpt lat="45.4132" lon="3.10703">
        <ele>637</ele>
        <time>2022-07-23T10:01:34Z</time>
      </trkpt>
      <trkpt lat="45.41332" lon="3.10702">
        <ele>635</ele>
        <time>2022-07-23T10:01:36Z</time>
      </trkpt>
      <trkpt lat="45.41345" lon="3.10695">
        <ele>638</ele>
        <time>2022-07-23T10:01:38Z</time>
      </trkpt>
      <trkpt lat="45.41364" lon="3.10682">
        <ele>640</ele>
        <time>2022-07-23T10:01:42Z</time>
      </trkpt>
      <trkpt lat="45.41426" lon="3.10615">
        <ele>641</ele>
        <time>2022-07-23T10:01:56Z</time>
      </trkpt>
      <trkpt lat="45.41442" lon="3.10587">
        <ele>643</ele>
        <time>2022-07-23T10:02:01Z</time>
      </trkpt>
      <trkpt lat="45.41451" lon="3.10563">
        <ele>648</ele>
        <time>2022-07-23T10:02:04Z</time>
      </trkpt>
      <trkpt lat="45.41464" lon="3.10513">
        <ele>654</ele>
        <time>2022-07-23T10:02:11Z</time>
      </trkpt>
      <trkpt lat="45.41466" lon="3.10489">
        <ele>655</ele>
        <time>2022-07-23T10:02:14Z</time>
      </trkpt>
      <trkpt lat="45.41467" lon="3.10459">
        <ele>656</ele>
        <time>2022-07-23T10:02:17Z</time>
      </trkpt>
      <trkpt lat="45.41458" lon="3.10274">
        <ele>656</ele>
        <time>2022-07-23T10:02:41Z</time>
      </trkpt>
      <trkpt lat="45.41457" lon="3.10266">
        <ele>656</ele>
        <time>2022-07-23T10:02:42Z</time>
      </trkpt>
      <trkpt lat="45.41455" lon="3.10235">
        <ele>656</ele>
        <time>2022-07-23T10:02:45Z</time>
      </trkpt>
      <trkpt lat="45.41449" lon="3.10198">
        <ele>655</ele>
        <time>2022-07-23T10:02:50Z</time>
      </trkpt>
      <trkpt lat="45.41424" lon="3.10114">
        <ele>653</ele>
        <time>2022-07-23T10:03:02Z</time>
      </trkpt>
      <trkpt lat="45.41397" lon="3.10036">
        <ele>657</ele>
        <time>2022-07-23T10:03:12Z</time>
      </trkpt>
      <trkpt lat="45.41393" lon="3.10012">
        <ele>658</ele>
        <time>2022-07-23T10:03:16Z</time>
      </trkpt>
      <trkpt lat="45.41396" lon="3.09994">
        <ele>657</ele>
        <time>2022-07-23T10:03:18Z</time>
      </trkpt>
      <trkpt lat="45.41409" lon="3.09955">
        <ele>653</ele>
        <time>2022-07-23T10:03:23Z</time>
      </trkpt>
      <trkpt lat="45.41425" lon="3.09924">
        <ele>652</ele>
        <time>2022-07-23T10:03:28Z</time>
      </trkpt>
      <trkpt lat="45.41447" lon="3.09884">
        <ele>661</ele>
        <time>2022-07-23T10:03:34Z</time>
      </trkpt>
      <trkpt lat="45.41457" lon="3.09863">
        <ele>663</ele>
        <time>2022-07-23T10:03:38Z</time>
      </trkpt>
      <trkpt lat="45.4147" lon="3.09818">
        <ele>665</ele>
        <time>2022-07-23T10:03:44Z</time>
      </trkpt>
      <trkpt lat="45.41482" lon="3.09762">
        <ele>665</ele>
        <time>2022-07-23T10:03:51Z</time>
      </trkpt>
      <trkpt lat="45.415" lon="3.09663">
        <ele>658</ele>
        <time>2022-07-23T10:04:04Z</time>
      </trkpt>
      <trkpt lat="45.41515" lon="3.09517">
        <ele>659</ele>
        <time>2022-07-23T10:04:22Z</time>
      </trkpt>
      <trkpt lat="45.41519" lon="3.095">
        <ele>659</ele>
        <time>2022-07-23T10:04:24Z</time>
      </trkpt>
      <trkpt lat="45.41522" lon="3.09489">
        <ele>661</ele>
        <time>2022-07-23T10:04:26Z</time>
      </trkpt>
      <trkpt lat="45.41527" lon="3.0948">
        <ele>663</ele>
        <time>2022-07-23T10:04:27Z</time>
      </trkpt>
      <trkpt lat="45.41533" lon="3.09472">
        <ele>664</ele>
        <time>2022-07-23T10:04:29Z</time>
      </trkpt>
      <trkpt lat="45.41552" lon="3.09455">
        <ele>667</ele>
        <time>2022-07-23T10:04:33Z</time>
      </trkpt>
      <trkpt lat="45.41557" lon="3.09447">
        <ele>667</ele>
        <time>2022-07-23T10:04:34Z</time>
      </trkpt>
      <trkpt lat="45.41564" lon="3.09431">
        <ele>665</ele>
        <time>2022-07-23T10:04:36Z</time>
      </trkpt>
      <trkpt lat="45.41566" lon="3.09419">
        <ele>664</ele>
        <time>2022-07-23T10:04:38Z</time>
      </trkpt>
      <trkpt lat="45.41568" lon="3.09389">
        <ele>665</ele>
        <time>2022-07-23T10:04:42Z</time>
      </trkpt>
      <trkpt lat="45.41575" lon="3.09336">
        <ele>666</ele>
        <time>2022-07-23T10:04:48Z</time>
      </trkpt>
      <trkpt lat="45.41591" lon="3.09264">
        <ele>669</ele>
        <time>2022-07-23T10:04:58Z</time>
      </trkpt>
      <trkpt lat="45.4159" lon="3.09233">
        <ele>671</ele>
        <time>2022-07-23T10:05:02Z</time>
      </trkpt>
      <trkpt lat="45.41582" lon="3.09142">
        <ele>678</ele>
        <time>2022-07-23T10:05:13Z</time>
      </trkpt>
      <trkpt lat="45.41587" lon="3.09104">
        <ele>679</ele>
        <time>2022-07-23T10:05:18Z</time>
      </trkpt>
      <trkpt lat="45.41599" lon="3.09079">
        <ele>681</ele>
        <time>2022-07-23T10:05:22Z</time>
      </trkpt>
      <trkpt lat="45.41614" lon="3.09051">
        <ele>681</ele>
        <time>2022-07-23T10:05:26Z</time>
      </trkpt>
      <trkpt lat="45.41621" lon="3.09015">
        <ele>682</ele>
        <time>2022-07-23T10:05:31Z</time>
      </trkpt>
      <trkpt lat="45.41633" lon="3.08903">
        <ele>689</ele>
        <time>2022-07-23T10:05:45Z</time>
      </trkpt>
      <trkpt lat="45.41639" lon="3.08868">
        <ele>688</ele>
        <time>2022-07-23T10:05:50Z</time>
      </trkpt>
      <trkpt lat="45.41654" lon="3.08814">
        <ele>683</ele>
        <time>2022-07-23T10:05:57Z</time>
      </trkpt>
      <trkpt lat="45.41661" lon="3.08759">
        <ele>681</ele>
        <time>2022-07-23T10:06:04Z</time>
      </trkpt>
      <trkpt lat="45.41657" lon="3.08717">
        <ele>683</ele>
        <time>2022-07-23T10:06:09Z</time>
      </trkpt>
      <trkpt lat="45.41621" lon="3.08648">
        <ele>695</ele>
        <time>2022-07-23T10:06:20Z</time>
      </trkpt>
      <trkpt lat="45.41587" lon="3.08579">
        <ele>698</ele>
        <time>2022-07-23T10:06:30Z</time>
      </trkpt>
      <trkpt lat="45.41583" lon="3.08528">
        <ele>702</ele>
        <time>2022-07-23T10:06:37Z</time>
      </trkpt>
      <trkpt lat="45.41585" lon="3.08501">
        <ele>703</ele>
        <time>2022-07-23T10:06:40Z</time>
      </trkpt>
      <trkpt lat="45.41592" lon="3.08489">
        <ele>704</ele>
        <time>2022-07-23T10:06:42Z</time>
      </trkpt>
      <trkpt lat="45.41655" lon="3.08413">
        <ele>688</ele>
        <time>2022-07-23T10:06:57Z</time>
      </trkpt>
      <trkpt lat="45.41676" lon="3.08362">
        <ele>686</ele>
        <time>2022-07-23T10:07:04Z</time>
      </trkpt>
      <trkpt lat="45.4168" lon="3.08338">
        <ele>686</ele>
        <time>2022-07-23T10:07:07Z</time>
      </trkpt>
      <trkpt lat="45.41679" lon="3.08285">
        <ele>688</ele>
        <time>2022-07-23T10:07:14Z</time>
      </trkpt>
      <trkpt lat="45.41684" lon="3.0826">
        <ele>690</ele>
        <time>2022-07-23T10:07:17Z</time>
      </trkpt>
      <trkpt lat="45.41698" lon="3.08231">
        <ele>694</ele>
        <time>2022-07-23T10:07:22Z</time>
      </trkpt>
      <trkpt lat="45.41701" lon="3.08218">
        <ele>695</ele>
        <time>2022-07-23T10:07:23Z</time>
      </trkpt>
      <trkpt lat="45.417" lon="3.08204">
        <ele>696</ele>
        <time>2022-07-23T10:07:25Z</time>
      </trkpt>
      <trkpt lat="45.41692" lon="3.08169">
        <ele>696</ele>
        <time>2022-07-23T10:07:30Z</time>
      </trkpt>
      <trkpt lat="45.41686" lon="3.0813">
        <ele>695</ele>
        <time>2022-07-23T10:07:35Z</time>
      </trkpt>
      <trkpt lat="45.41686" lon="3.08122">
        <ele>696</ele>
        <time>2022-07-23T10:07:36Z</time>
      </trkpt>
      <trkpt lat="45.4169" lon="3.08094">
        <ele>697</ele>
        <time>2022-07-23T10:07:39Z</time>
      </trkpt>
      <trkpt lat="45.41709" lon="3.08037">
        <ele>700</ele>
        <time>2022-07-23T10:07:47Z</time>
      </trkpt>
      <trkpt lat="45.41713" lon="3.08002">
        <ele>702</ele>
        <time>2022-07-23T10:07:51Z</time>
      </trkpt>
      <trkpt lat="45.41715" lon="3.07904">
        <ele>710</ele>
        <time>2022-07-23T10:08:04Z</time>
      </trkpt>
      <trkpt lat="45.41714" lon="3.07888">
        <ele>714</ele>
        <time>2022-07-23T10:08:06Z</time>
      </trkpt>
      <trkpt lat="45.4171" lon="3.07873">
        <ele>717</ele>
        <time>2022-07-23T10:08:08Z</time>
      </trkpt>
      <trkpt lat="45.41704" lon="3.07861">
        <ele>718</ele>
        <time>2022-07-23T10:08:10Z</time>
      </trkpt>
      <trkpt lat="45.41694" lon="3.07848">
        <ele>717</ele>
        <time>2022-07-23T10:08:12Z</time>
      </trkpt>
      <trkpt lat="45.41676" lon="3.07834">
        <ele>713</ele>
        <time>2022-07-23T10:08:16Z</time>
      </trkpt>
      <trkpt lat="45.41643" lon="3.07824">
        <ele>711</ele>
        <time>2022-07-23T10:08:22Z</time>
      </trkpt>
      <trkpt lat="45.41589" lon="3.07825">
        <ele>707</ele>
        <time>2022-07-23T10:08:31Z</time>
      </trkpt>
      <trkpt lat="45.41575" lon="3.07823">
        <ele>708</ele>
        <time>2022-07-23T10:08:34Z</time>
      </trkpt>
      <trkpt lat="45.4155" lon="3.07811">
        <ele>711</ele>
        <time>2022-07-23T10:08:38Z</time>
      </trkpt>
      <trkpt lat="45.4154" lon="3.078">
        <ele>712</ele>
        <time>2022-07-23T10:08:41Z</time>
      </trkpt>
      <trkpt lat="45.41519" lon="3.07755">
        <ele>711</ele>
        <time>2022-07-23T10:08:47Z</time>
      </trkpt>
      <trkpt lat="45.41511" lon="3.07742">
        <ele>714</ele>
        <time>2022-07-23T10:08:50Z</time>
      </trkpt>
      <trkpt lat="45.41504" lon="3.07734">
        <ele>716</ele>
        <time>2022-07-23T10:08:51Z</time>
      </trkpt>
      <trkpt lat="45.41488" lon="3.07725">
        <ele>721</ele>
        <time>2022-07-23T10:08:54Z</time>
      </trkpt>
      <trkpt lat="45.4147" lon="3.07726">
        <ele>723</ele>
        <time>2022-07-23T10:08:57Z</time>
      </trkpt>
      <trkpt lat="45.41461" lon="3.0773">
        <ele>722</ele>
        <time>2022-07-23T10:08:59Z</time>
      </trkpt>
      <trkpt lat="45.41452" lon="3.07737">
        <ele>721</ele>
        <time>2022-07-23T10:09:01Z</time>
      </trkpt>
      <trkpt lat="45.41424" lon="3.07779">
        <ele>715</ele>
        <time>2022-07-23T10:09:08Z</time>
      </trkpt>
      <trkpt lat="45.41414" lon="3.07787">
        <ele>715</ele>
        <time>2022-07-23T10:09:10Z</time>
      </trkpt>
      <trkpt lat="45.41402" lon="3.07794">
        <ele>714</ele>
        <time>2022-07-23T10:09:13Z</time>
      </trkpt>
      <trkpt lat="45.41363" lon="3.0781">
        <ele>711</ele>
        <time>2022-07-23T10:09:20Z</time>
      </trkpt>
      <trkpt lat="45.41314" lon="3.07815">
        <ele>711</ele>
        <time>2022-07-23T10:09:28Z</time>
      </trkpt>
      <trkpt lat="45.41304" lon="3.07813">
        <ele>712</ele>
        <time>2022-07-23T10:09:30Z</time>
      </trkpt>
      <trkpt lat="45.41294" lon="3.07807">
        <ele>714</ele>
        <time>2022-07-23T10:09:32Z</time>
      </trkpt>
      <trkpt lat="45.41285" lon="3.07797">
        <ele>715</ele>
        <time>2022-07-23T10:09:34Z</time>
      </trkpt>
      <trkpt lat="45.41277" lon="3.07786">
        <ele>715</ele>
        <time>2022-07-23T10:09:36Z</time>
      </trkpt>
      <trkpt lat="45.41269" lon="3.07772">
        <ele>714</ele>
        <time>2022-07-23T10:09:38Z</time>
      </trkpt>
      <trkpt lat="45.41256" lon="3.07741">
        <ele>711</ele>
        <time>2022-07-23T10:09:43Z</time>
      </trkpt>
      <trkpt lat="45.41234" lon="3.07648">
        <ele>717</ele>
        <time>2022-07-23T10:09:55Z</time>
      </trkpt>
      <trkpt lat="45.4123" lon="3.07593">
        <ele>718</ele>
        <time>2022-07-23T10:10:02Z</time>
      </trkpt>
      <trkpt lat="45.41233" lon="3.07476">
        <ele>727</ele>
        <time>2022-07-23T10:10:17Z</time>
      </trkpt>
      <trkpt lat="45.41231" lon="3.07438">
        <ele>730</ele>
        <time>2022-07-23T10:10:22Z</time>
      </trkpt>
      <trkpt lat="45.41219" lon="3.07401">
        <ele>731</ele>
        <time>2022-07-23T10:10:27Z</time>
      </trkpt>
      <trkpt lat="45.41188" lon="3.07335">
        <ele>727</ele>
        <time>2022-07-23T10:10:37Z</time>
      </trkpt>
      <trkpt lat="45.41179" lon="3.0731">
        <ele>725</ele>
        <time>2022-07-23T10:10:40Z</time>
      </trkpt>
      <trkpt lat="45.41173" lon="3.07286">
        <ele>724</ele>
        <time>2022-07-23T10:10:43Z</time>
      </trkpt>
      <trkpt lat="45.41171" lon="3.07269">
        <ele>724</ele>
        <time>2022-07-23T10:10:45Z</time>
      </trkpt>
      <trkpt lat="45.41173" lon="3.07243">
        <ele>725</ele>
        <time>2022-07-23T10:10:49Z</time>
      </trkpt>
      <trkpt lat="45.41177" lon="3.07233">
        <ele>727</ele>
        <time>2022-07-23T10:10:50Z</time>
      </trkpt>
      <trkpt lat="45.41192" lon="3.07213">
        <ele>730</ele>
        <time>2022-07-23T10:10:54Z</time>
      </trkpt>
      <trkpt lat="45.41222" lon="3.0718">
        <ele>733</ele>
        <time>2022-07-23T10:11:00Z</time>
      </trkpt>
      <trkpt lat="45.41235" lon="3.07163">
        <ele>733</ele>
        <time>2022-07-23T10:11:04Z</time>
      </trkpt>
      <trkpt lat="45.41242" lon="3.07149">
        <ele>733</ele>
        <time>2022-07-23T10:11:06Z</time>
      </trkpt>
      <trkpt lat="45.41247" lon="3.07124">
        <ele>731</ele>
        <time>2022-07-23T10:11:09Z</time>
      </trkpt>
      <trkpt lat="45.41247" lon="3.0711">
        <ele>729</ele>
        <time>2022-07-23T10:11:11Z</time>
      </trkpt>
      <trkpt lat="45.41245" lon="3.07096">
        <ele>728</ele>
        <time>2022-07-23T10:11:13Z</time>
      </trkpt>
      <trkpt lat="45.41237" lon="3.07079">
        <ele>728</ele>
        <time>2022-07-23T10:11:15Z</time>
      </trkpt>
      <trkpt lat="45.41191" lon="3.07003">
        <ele>726</ele>
        <time>2022-07-23T10:11:28Z</time>
      </trkpt>
      <trkpt lat="45.41182" lon="3.06985">
        <ele>726</ele>
        <time>2022-07-23T10:11:30Z</time>
      </trkpt>
      <trkpt lat="45.41176" lon="3.06969">
        <ele>726</ele>
        <time>2022-07-23T10:11:33Z</time>
      </trkpt>
      <trkpt lat="45.4117" lon="3.0695">
        <ele>725</ele>
        <time>2022-07-23T10:11:35Z</time>
      </trkpt>
      <trkpt lat="45.41162" lon="3.06887">
        <ele>731</ele>
        <time>2022-07-23T10:11:43Z</time>
      </trkpt>
      <trkpt lat="45.41156" lon="3.06853">
        <ele>737</ele>
        <time>2022-07-23T10:11:48Z</time>
      </trkpt>
      <trkpt lat="45.41135" lon="3.0679">
        <ele>745</ele>
        <time>2022-07-23T10:11:56Z</time>
      </trkpt>
      <trkpt lat="45.41129" lon="3.06775">
        <ele>745</ele>
        <time>2022-07-23T10:11:59Z</time>
      </trkpt>
      <trkpt lat="45.4112" lon="3.06761">
        <ele>744</ele>
        <time>2022-07-23T10:12:01Z</time>
      </trkpt>
      <trkpt lat="45.41113" lon="3.06743">
        <ele>742</ele>
        <time>2022-07-23T10:12:03Z</time>
      </trkpt>
      <trkpt lat="45.41108" lon="3.06723">
        <ele>740</ele>
        <time>2022-07-23T10:12:06Z</time>
      </trkpt>
      <trkpt lat="45.41103" lon="3.06685">
        <ele>738</ele>
        <time>2022-07-23T10:12:11Z</time>
      </trkpt>
      <trkpt lat="45.411" lon="3.06566">
        <ele>732</ele>
        <time>2022-07-23T10:12:26Z</time>
      </trkpt>
      <trkpt lat="45.41099" lon="3.06548">
        <ele>732</ele>
        <time>2022-07-23T10:12:28Z</time>
      </trkpt>
      <trkpt lat="45.41088" lon="3.06502">
        <ele>729</ele>
        <time>2022-07-23T10:12:34Z</time>
      </trkpt>
      <trkpt lat="45.4108" lon="3.0648">
        <ele>730</ele>
        <time>2022-07-23T10:12:37Z</time>
      </trkpt>
      <trkpt lat="45.41062" lon="3.06447">
        <ele>734</ele>
        <time>2022-07-23T10:12:42Z</time>
      </trkpt>
      <trkpt lat="45.41007" lon="3.06371">
        <ele>741</ele>
        <time>2022-07-23T10:12:56Z</time>
      </trkpt>
      <trkpt lat="45.40996" lon="3.0635">
        <ele>744</ele>
        <time>2022-07-23T10:12:59Z</time>
      </trkpt>
      <trkpt lat="45.40979" lon="3.06304">
        <ele>754</ele>
        <time>2022-07-23T10:13:06Z</time>
      </trkpt>
      <trkpt lat="45.40966" lon="3.06242">
        <ele>761</ele>
        <time>2022-07-23T10:13:14Z</time>
      </trkpt>
      <trkpt lat="45.40961" lon="3.06194">
        <ele>763</ele>
        <time>2022-07-23T10:13:20Z</time>
      </trkpt>
      <trkpt lat="45.40954" lon="3.06104">
        <ele>761</ele>
        <time>2022-07-23T10:13:31Z</time>
      </trkpt>
      <trkpt lat="45.40953" lon="3.06058">
        <ele>758</ele>
        <time>2022-07-23T10:13:37Z</time>
      </trkpt>
      <trkpt lat="45.40955" lon="3.06039">
        <ele>756</ele>
        <time>2022-07-23T10:13:39Z</time>
      </trkpt>
      <trkpt lat="45.40959" lon="3.06017">
        <ele>754</ele>
        <time>2022-07-23T10:13:42Z</time>
      </trkpt>
      <trkpt lat="45.40965" lon="3.06001">
        <ele>752</ele>
        <time>2022-07-23T10:13:45Z</time>
      </trkpt>
      <trkpt lat="45.40981" lon="3.05969">
        <ele>750</ele>
        <time>2022-07-23T10:13:49Z</time>
      </trkpt>
      <trkpt lat="45.41" lon="3.05943">
        <ele>746</ele>
        <time>2022-07-23T10:13:54Z</time>
      </trkpt>
      <trkpt lat="45.41042" lon="3.05911">
        <ele>752</ele>
        <time>2022-07-23T10:14:03Z</time>
      </trkpt>
      <trkpt lat="45.41085" lon="3.05882">
        <ele>758</ele>
        <time>2022-07-23T10:14:11Z</time>
      </trkpt>
      <trkpt lat="45.41099" lon="3.05869">
        <ele>762</ele>
        <time>2022-07-23T10:14:14Z</time>
      </trkpt>
      <trkpt lat="45.4111" lon="3.05856">
        <ele>764</ele>
        <time>2022-07-23T10:14:17Z</time>
      </trkpt>
      <trkpt lat="45.41132" lon="3.05811">
        <ele>770</ele>
        <time>2022-07-23T10:14:23Z</time>
      </trkpt>
      <trkpt lat="45.41141" lon="3.05775">
        <ele>774</ele>
        <time>2022-07-23T10:14:28Z</time>
      </trkpt>
      <trkpt lat="45.41154" lon="3.0563">
        <ele>777</ele>
        <time>2022-07-23T10:14:46Z</time>
      </trkpt>
      <trkpt lat="45.41153" lon="3.05615">
        <ele>777</ele>
        <time>2022-07-23T10:14:48Z</time>
      </trkpt>
      <trkpt lat="45.4115" lon="3.05601">
        <ele>777</ele>
        <time>2022-07-23T10:14:50Z</time>
      </trkpt>
      <trkpt lat="45.41144" lon="3.05588">
        <ele>776</ele>
        <time>2022-07-23T10:14:52Z</time>
      </trkpt>
      <trkpt lat="45.41137" lon="3.05577">
        <ele>777</ele>
        <time>2022-07-23T10:14:54Z</time>
      </trkpt>
      <trkpt lat="45.41119" lon="3.05559">
        <ele>776</ele>
        <time>2022-07-23T10:14:58Z</time>
      </trkpt>
      <trkpt lat="45.4111" lon="3.05547">
        <ele>775</ele>
        <time>2022-07-23T10:15:00Z</time>
      </trkpt>
      <trkpt lat="45.41102" lon="3.05529">
        <ele>773</ele>
        <time>2022-07-23T10:15:03Z</time>
      </trkpt>
      <trkpt lat="45.41092" lon="3.05494">
        <ele>771</ele>
        <time>2022-07-23T10:15:07Z</time>
      </trkpt>
      <trkpt lat="45.41071" lon="3.05438">
        <ele>779</ele>
        <time>2022-07-23T10:15:15Z</time>
      </trkpt>
      <trkpt lat="45.41043" lon="3.054">
        <ele>780</ele>
        <time>2022-07-23T10:15:22Z</time>
      </trkpt>
      <trkpt lat="45.41014" lon="3.05368">
        <ele>780</ele>
        <time>2022-07-23T10:15:29Z</time>
      </trkpt>
      <trkpt lat="45.40955" lon="3.05309">
        <ele>778</ele>
        <time>2022-07-23T10:15:42Z</time>
      </trkpt>
      <trkpt lat="45.4089" lon="3.05202">
        <ele>786</ele>
        <time>2022-07-23T10:15:59Z</time>
      </trkpt>
      <trkpt lat="45.4087" lon="3.05163">
        <ele>787</ele>
        <time>2022-07-23T10:16:05Z</time>
      </trkpt>
      <trkpt lat="45.4086" lon="3.05139">
        <ele>788</ele>
        <time>2022-07-23T10:16:09Z</time>
      </trkpt>
      <trkpt lat="45.40833" lon="3.05039">
        <ele>788</ele>
        <time>2022-07-23T10:16:22Z</time>
      </trkpt>
      <trkpt lat="45.40827" lon="3.05009">
        <ele>791</ele>
        <time>2022-07-23T10:16:26Z</time>
      </trkpt>
      <trkpt lat="45.40827" lon="3.0496">
        <ele>793</ele>
        <time>2022-07-23T10:16:32Z</time>
      </trkpt>
      <trkpt lat="45.40829" lon="3.04937">
        <ele>795</ele>
        <time>2022-07-23T10:16:35Z</time>
      </trkpt>
      <trkpt lat="45.4085" lon="3.04824">
        <ele>804</ele>
        <time>2022-07-23T10:16:50Z</time>
      </trkpt>
      <trkpt lat="45.40874" lon="3.046">
        <ele>802</ele>
        <time>2022-07-23T10:17:18Z</time>
      </trkpt>
      <trkpt lat="45.40885" lon="3.04515">
        <ele>806</ele>
        <time>2022-07-23T10:17:29Z</time>
      </trkpt>
      <trkpt lat="45.40887" lon="3.04485">
        <ele>809</ele>
        <time>2022-07-23T10:17:33Z</time>
      </trkpt>
      <trkpt lat="45.40887" lon="3.04473">
        <ele>811</ele>
        <time>2022-07-23T10:17:34Z</time>
      </trkpt>
      <trkpt lat="45.40883" lon="3.04456">
        <ele>812</ele>
        <time>2022-07-23T10:17:36Z</time>
      </trkpt>
      <trkpt lat="45.40857" lon="3.04383">
        <ele>807</ele>
        <time>2022-07-23T10:17:47Z</time>
      </trkpt>
      <trkpt lat="45.40849" lon="3.04345">
        <ele>806</ele>
        <time>2022-07-23T10:17:52Z</time>
      </trkpt>
      <trkpt lat="45.40847" lon="3.0431">
        <ele>806</ele>
        <time>2022-07-23T10:17:56Z</time>
      </trkpt>
      <trkpt lat="45.40852" lon="3.0428">
        <ele>810</ele>
        <time>2022-07-23T10:18:00Z</time>
      </trkpt>
      <trkpt lat="45.40869" lon="3.04224">
        <ele>819</ele>
        <time>2022-07-23T10:18:07Z</time>
      </trkpt>
      <trkpt lat="45.40873" lon="3.042">
        <ele>819</ele>
        <time>2022-07-23T10:18:10Z</time>
      </trkpt>
      <trkpt lat="45.4088" lon="3.04172">
        <ele>821</ele>
        <time>2022-07-23T10:18:14Z</time>
      </trkpt>
      <trkpt lat="45.40896" lon="3.04127">
        <ele>825</ele>
        <time>2022-07-23T10:18:20Z</time>
      </trkpt>
      <trkpt lat="45.40915" lon="3.0405">
        <ele>827</ele>
        <time>2022-07-23T10:18:31Z</time>
      </trkpt>
      <trkpt lat="45.40915" lon="3.04033">
        <ele>827</ele>
        <time>2022-07-23T10:18:33Z</time>
      </trkpt>
      <trkpt lat="45.40905" lon="3.03984">
        <ele>825</ele>
        <time>2022-07-23T10:18:39Z</time>
      </trkpt>
      <trkpt lat="45.40904" lon="3.03961">
        <ele>826</ele>
        <time>2022-07-23T10:18:42Z</time>
      </trkpt>
      <trkpt lat="45.4091" lon="3.03905">
        <ele>833</ele>
        <time>2022-07-23T10:18:49Z</time>
      </trkpt>
      <trkpt lat="45.40921" lon="3.03819">
        <ele>838</ele>
        <time>2022-07-23T10:19:00Z</time>
      </trkpt>
      <trkpt lat="45.40922" lon="3.03802">
        <ele>839</ele>
        <time>2022-07-23T10:19:02Z</time>
      </trkpt>
      <trkpt lat="45.4092" lon="3.03768">
        <ele>839</ele>
        <time>2022-07-23T10:19:06Z</time>
      </trkpt>
      <trkpt lat="45.40905" lon="3.0371">
        <ele>837</ele>
        <time>2022-07-23T10:19:14Z</time>
      </trkpt>
      <trkpt lat="45.40902" lon="3.03685">
        <ele>837</ele>
        <time>2022-07-23T10:19:17Z</time>
      </trkpt>
      <trkpt lat="45.40902" lon="3.03641">
        <ele>839</ele>
        <time>2022-07-23T10:19:23Z</time>
      </trkpt>
      <trkpt lat="45.40903" lon="3.03615">
        <ele>841</ele>
        <time>2022-07-23T10:19:26Z</time>
      </trkpt>
      <trkpt lat="45.40902" lon="3.0359">
        <ele>843</ele>
        <time>2022-07-23T10:19:29Z</time>
      </trkpt>
      <trkpt lat="45.40896" lon="3.03531">
        <ele>847</ele>
        <time>2022-07-23T10:19:37Z</time>
      </trkpt>
      <trkpt lat="45.40889" lon="3.03486">
        <ele>851</ele>
        <time>2022-07-23T10:19:42Z</time>
      </trkpt>
      <trkpt lat="45.40877" lon="3.03434">
        <ele>857</ele>
        <time>2022-07-23T10:19:49Z</time>
      </trkpt>
      <trkpt lat="45.40859" lon="3.034">
        <ele>859</ele>
        <time>2022-07-23T10:19:55Z</time>
      </trkpt>
      <trkpt lat="45.40839" lon="3.03381">
        <ele>857</ele>
        <time>2022-07-23T10:19:59Z</time>
      </trkpt>
      <trkpt lat="45.40802" lon="3.03352">
        <ele>848</ele>
        <time>2022-07-23T10:20:06Z</time>
      </trkpt>
      <trkpt lat="45.40795" lon="3.03335">
        <ele>848</ele>
        <time>2022-07-23T10:20:09Z</time>
      </trkpt>
      <trkpt lat="45.40794" lon="3.0332">
        <ele>848</ele>
        <time>2022-07-23T10:20:11Z</time>
      </trkpt>
      <trkpt lat="45.408" lon="3.03289">
        <ele>851</ele>
        <time>2022-07-23T10:20:15Z</time>
      </trkpt>
      <trkpt lat="45.40811" lon="3.03252">
        <ele>855</ele>
        <time>2022-07-23T10:20:20Z</time>
      </trkpt>
      <trkpt lat="45.40825" lon="3.03227">
        <ele>855</ele>
        <time>2022-07-23T10:20:24Z</time>
      </trkpt>
      <trkpt lat="45.4087" lon="3.03202">
        <ele>866</ele>
        <time>2022-07-23T10:20:32Z</time>
      </trkpt>
      <trkpt lat="45.4088" lon="3.03194">
        <ele>868</ele>
        <time>2022-07-23T10:20:34Z</time>
      </trkpt>
      <trkpt lat="45.40894" lon="3.03174">
        <ele>869</ele>
        <time>2022-07-23T10:20:38Z</time>
      </trkpt>
      <trkpt lat="45.409" lon="3.03159">
        <ele>869</ele>
        <time>2022-07-23T10:20:40Z</time>
      </trkpt>
      <trkpt lat="45.40919" lon="3.03089">
        <ele>868</ele>
        <time>2022-07-23T10:20:49Z</time>
      </trkpt>
      <trkpt lat="45.40921" lon="3.0307">
        <ele>870</ele>
        <time>2022-07-23T10:20:52Z</time>
      </trkpt>
      <trkpt lat="45.40921" lon="3.03053">
        <ele>872</ele>
        <time>2022-07-23T10:20:54Z</time>
      </trkpt>
      <trkpt lat="45.40918" lon="3.03039">
        <ele>872</ele>
        <time>2022-07-23T10:20:56Z</time>
      </trkpt>
      <trkpt lat="45.40906" lon="3.03003">
        <ele>872</ele>
        <time>2022-07-23T10:21:01Z</time>
      </trkpt>
      <trkpt lat="45.40896" lon="3.02965">
        <ele>878</ele>
        <time>2022-07-23T10:21:06Z</time>
      </trkpt>
      <trkpt lat="45.40892" lon="3.02956">
        <ele>878</ele>
        <time>2022-07-23T10:21:07Z</time>
      </trkpt>
      <trkpt lat="45.40871" lon="3.02932">
        <ele>874</ele>
        <time>2022-07-23T10:21:12Z</time>
      </trkpt>
      <trkpt lat="45.40854" lon="3.02901">
        <ele>874</ele>
        <time>2022-07-23T10:21:17Z</time>
      </trkpt>
      <trkpt lat="45.40827" lon="3.02843">
        <ele>877</ele>
        <time>2022-07-23T10:21:26Z</time>
      </trkpt>
      <trkpt lat="45.40816" lon="3.02809">
        <ele>880</ele>
        <time>2022-07-23T10:21:30Z</time>
      </trkpt>
      <trkpt lat="45.40796" lon="3.02713">
        <ele>883</ele>
        <time>2022-07-23T10:21:43Z</time>
      </trkpt>
      <trkpt lat="45.40783" lon="3.02636">
        <ele>888</ele>
        <time>2022-07-23T10:21:53Z</time>
      </trkpt>
      <trkpt lat="45.40779" lon="3.0262">
        <ele>890</ele>
        <time>2022-07-23T10:21:55Z</time>
      </trkpt>
      <trkpt lat="45.40771" lon="3.02606">
        <ele>891</ele>
        <time>2022-07-23T10:21:57Z</time>
      </trkpt>
      <trkpt lat="45.40761" lon="3.02598">
        <ele>890</ele>
        <time>2022-07-23T10:21:59Z</time>
      </trkpt>
      <trkpt lat="45.4073" lon="3.02579">
        <ele>888</ele>
        <time>2022-07-23T10:22:05Z</time>
      </trkpt>
      <trkpt lat="45.4071" lon="3.02562">
        <ele>890</ele>
        <time>2022-07-23T10:22:09Z</time>
      </trkpt>
      <trkpt lat="45.40679" lon="3.02511">
        <ele>896</ele>
        <time>2022-07-23T10:22:18Z</time>
      </trkpt>
      <trkpt lat="45.40635" lon="3.02463">
        <ele>897</ele>
        <time>2022-07-23T10:22:27Z</time>
      </trkpt>
      <trkpt lat="45.40624" lon="3.02449">
        <ele>898</ele>
        <time>2022-07-23T10:22:30Z</time>
      </trkpt>
      <trkpt lat="45.40596" lon="3.02396">
        <ele>901</ele>
        <time>2022-07-23T10:22:38Z</time>
      </trkpt>
      <trkpt lat="45.40589" lon="3.02377">
        <ele>902</ele>
        <time>2022-07-23T10:22:41Z</time>
      </trkpt>
      <trkpt lat="45.40582" lon="3.02354">
        <ele>904</ele>
        <time>2022-07-23T10:22:44Z</time>
      </trkpt>
      <trkpt lat="45.40576" lon="3.02328">
        <ele>908</ele>
        <time>2022-07-23T10:22:48Z</time>
      </trkpt>
      <trkpt lat="45.40564" lon="3.02266">
        <ele>914</ele>
        <time>2022-07-23T10:22:56Z</time>
      </trkpt>
      <trkpt lat="45.4056" lon="3.02233">
        <ele>916</ele>
        <time>2022-07-23T10:23:00Z</time>
      </trkpt>
      <trkpt lat="45.40558" lon="3.02203">
        <ele>919</ele>
        <time>2022-07-23T10:23:04Z</time>
      </trkpt>
      <trkpt lat="45.40552" lon="3.02165">
        <ele>920</ele>
        <time>2022-07-23T10:23:08Z</time>
      </trkpt>
      <trkpt lat="45.40537" lon="3.02128">
        <ele>919</ele>
        <time>2022-07-23T10:23:14Z</time>
      </trkpt>
      <trkpt lat="45.40513" lon="3.02089">
        <ele>914</ele>
        <time>2022-07-23T10:23:20Z</time>
      </trkpt>
      <trkpt lat="45.40494" lon="3.02063">
        <ele>909</ele>
        <time>2022-07-23T10:23:25Z</time>
      </trkpt>
      <trkpt lat="45.4049" lon="3.02055">
        <ele>909</ele>
        <time>2022-07-23T10:23:26Z</time>
      </trkpt>
      <trkpt lat="45.40487" lon="3.02044">
        <ele>909</ele>
        <time>2022-07-23T10:23:28Z</time>
      </trkpt>
      <trkpt lat="45.40487" lon="3.02034">
        <ele>910</ele>
        <time>2022-07-23T10:23:29Z</time>
      </trkpt>
      <trkpt lat="45.40491" lon="3.02015">
        <ele>911</ele>
        <time>2022-07-23T10:23:31Z</time>
      </trkpt>
      <trkpt lat="45.40605" lon="3.01788">
        <ele>930</ele>
        <time>2022-07-23T10:24:06Z</time>
      </trkpt>
      <trkpt lat="45.40613" lon="3.01759">
        <ele>932</ele>
        <time>2022-07-23T10:24:10Z</time>
      </trkpt>
      <trkpt lat="45.40623" lon="3.01712">
        <ele>937</ele>
        <time>2022-07-23T10:24:16Z</time>
      </trkpt>
      <trkpt lat="45.40643" lon="3.01653">
        <ele>941</ele>
        <time>2022-07-23T10:24:24Z</time>
      </trkpt>
      <trkpt lat="45.40647" lon="3.01638">
        <ele>942</ele>
        <time>2022-07-23T10:24:26Z</time>
      </trkpt>
      <trkpt lat="45.4065" lon="3.01582">
        <ele>941</ele>
        <time>2022-07-23T10:24:34Z</time>
      </trkpt>
      <trkpt lat="45.40652" lon="3.01565">
        <ele>941</ele>
        <time>2022-07-23T10:24:36Z</time>
      </trkpt>
      <trkpt lat="45.40666" lon="3.01512">
        <ele>938</ele>
        <time>2022-07-23T10:24:43Z</time>
      </trkpt>
      <trkpt lat="45.40667" lon="3.01443">
        <ele>941</ele>
        <time>2022-07-23T10:24:51Z</time>
      </trkpt>
      <trkpt lat="45.40675" lon="3.0137">
        <ele>948</ele>
        <time>2022-07-23T10:25:01Z</time>
      </trkpt>
      <trkpt lat="45.40675" lon="3.01352">
        <ele>949</ele>
        <time>2022-07-23T10:25:03Z</time>
      </trkpt>
      <trkpt lat="45.40672" lon="3.0131">
        <ele>950</ele>
        <time>2022-07-23T10:25:08Z</time>
      </trkpt>
      <trkpt lat="45.40666" lon="3.01287">
        <ele>949</ele>
        <time>2022-07-23T10:25:11Z</time>
      </trkpt>
      <trkpt lat="45.40656" lon="3.01278">
        <ele>951</ele>
        <time>2022-07-23T10:25:13Z</time>
      </trkpt>
      <trkpt lat="45.40641" lon="3.01276">
        <ele>955</ele>
        <time>2022-07-23T10:25:16Z</time>
      </trkpt>
      <trkpt lat="45.40628" lon="3.01279">
        <ele>957</ele>
        <time>2022-07-23T10:25:18Z</time>
      </trkpt>
      <trkpt lat="45.40616" lon="3.01288">
        <ele>959</ele>
        <time>2022-07-23T10:25:21Z</time>
      </trkpt>
      <trkpt lat="45.40604" lon="3.01307">
        <ele>960</ele>
        <time>2022-07-23T10:25:24Z</time>
      </trkpt>
      <trkpt lat="45.40598" lon="3.01324">
        <ele>959</ele>
        <time>2022-07-23T10:25:26Z</time>
      </trkpt>
      <trkpt lat="45.40579" lon="3.0142">
        <ele>961</ele>
        <time>2022-07-23T10:25:39Z</time>
      </trkpt>
      <trkpt lat="45.40546" lon="3.01546">
        <ele>968</ele>
        <time>2022-07-23T10:25:56Z</time>
      </trkpt>
      <trkpt lat="45.40527" lon="3.016">
        <ele>969</ele>
        <time>2022-07-23T10:26:03Z</time>
      </trkpt>
      <trkpt lat="45.40504" lon="3.01638">
        <ele>968</ele>
        <time>2022-07-23T10:26:09Z</time>
      </trkpt>
      <trkpt lat="45.40467" lon="3.01681">
        <ele>975</ele>
        <time>2022-07-23T10:26:18Z</time>
      </trkpt>
      <trkpt lat="45.40458" lon="3.01698">
        <ele>975</ele>
        <time>2022-07-23T10:26:21Z</time>
      </trkpt>
      <trkpt lat="45.40444" lon="3.01733">
        <ele>972</ele>
        <time>2022-07-23T10:26:26Z</time>
      </trkpt>
      <trkpt lat="45.40428" lon="3.01761">
        <ele>972</ele>
        <time>2022-07-23T10:26:30Z</time>
      </trkpt>
      <trkpt lat="45.40404" lon="3.01789">
        <ele>973</ele>
        <time>2022-07-23T10:26:36Z</time>
      </trkpt>
      <trkpt lat="45.40378" lon="3.01813">
        <ele>973</ele>
        <time>2022-07-23T10:26:41Z</time>
      </trkpt>
      <trkpt lat="45.40364" lon="3.01819">
        <ele>975</ele>
        <time>2022-07-23T10:26:44Z</time>
      </trkpt>
      <trkpt lat="45.40351" lon="3.01818">
        <ele>979</ele>
        <time>2022-07-23T10:26:46Z</time>
      </trkpt>
      <trkpt lat="45.40331" lon="3.01821">
        <ele>984</ele>
        <time>2022-07-23T10:26:50Z</time>
      </trkpt>
      <trkpt lat="45.40244" lon="3.01875">
        <ele>993</ele>
        <time>2022-07-23T10:27:06Z</time>
      </trkpt>
      <trkpt lat="45.4017" lon="3.01907">
        <ele>993</ele>
        <time>2022-07-23T10:27:20Z</time>
      </trkpt>
      <trkpt lat="45.40159" lon="3.01909">
        <ele>992</ele>
        <time>2022-07-23T10:27:22Z</time>
      </trkpt>
      <trkpt lat="45.40137" lon="3.01908">
        <ele>991</ele>
        <time>2022-07-23T10:27:26Z</time>
      </trkpt>
      <trkpt lat="45.40124" lon="3.01904">
        <ele>992</ele>
        <time>2022-07-23T10:27:28Z</time>
      </trkpt>
      <trkpt lat="45.40109" lon="3.01894">
        <ele>996</ele>
        <time>2022-07-23T10:27:31Z</time>
      </trkpt>
      <trkpt lat="45.40076" lon="3.01878">
        <ele>1003</ele>
        <time>2022-07-23T10:27:38Z</time>
      </trkpt>
      <trkpt lat="45.39987" lon="3.01851">
        <ele>1006</ele>
        <time>2022-07-23T10:27:54Z</time>
      </trkpt>
      <trkpt lat="45.39955" lon="3.01835">
        <ele>1006</ele>
        <time>2022-07-23T10:28:00Z</time>
      </trkpt>
      <trkpt lat="45.39916" lon="3.0181">
        <ele>1011</ele>
        <time>2022-07-23T10:28:07Z</time>
      </trkpt>
      <trkpt lat="45.39894" lon="3.01793">
        <ele>1013</ele>
        <time>2022-07-23T10:28:12Z</time>
      </trkpt>
      <trkpt lat="45.39855" lon="3.01777">
        <ele>1006</ele>
        <time>2022-07-23T10:28:19Z</time>
      </trkpt>
      <trkpt lat="45.39829" lon="3.0176">
        <ele>1005</ele>
        <time>2022-07-23T10:28:24Z</time>
      </trkpt>
      <trkpt lat="45.39821" lon="3.01752">
        <ele>1007</ele>
        <time>2022-07-23T10:28:26Z</time>
      </trkpt>
      <trkpt lat="45.39817" lon="3.01744">
        <ele>1009</ele>
        <time>2022-07-23T10:28:27Z</time>
      </trkpt>
      <trkpt lat="45.3981" lon="3.01719">
        <ele>1020</ele>
        <time>2022-07-23T10:28:31Z</time>
      </trkpt>
      <trkpt lat="45.39802" lon="3.01694">
        <ele>1030</ele>
        <time>2022-07-23T10:28:34Z</time>
      </trkpt>
      <trkpt lat="45.39795" lon="3.01683">
        <ele>1033</ele>
        <time>2022-07-23T10:28:36Z</time>
      </trkpt>
      <trkpt lat="45.39787" lon="3.01678">
        <ele>1032</ele>
        <time>2022-07-23T10:28:37Z</time>
      </trkpt>
      <trkpt lat="45.39763" lon="3.0168">
        <ele>1022</ele>
        <time>2022-07-23T10:28:42Z</time>
      </trkpt>
      <trkpt lat="45.39752" lon="3.01677">
        <ele>1019</ele>
        <time>2022-07-23T10:28:44Z</time>
      </trkpt>
      <trkpt lat="45.39703" lon="3.01657">
        <ele>1020</ele>
        <time>2022-07-23T10:28:53Z</time>
      </trkpt>
      <trkpt lat="45.39683" lon="3.01644">
        <ele>1022</ele>
        <time>2022-07-23T10:28:57Z</time>
      </trkpt>
      <trkpt lat="45.39646" lon="3.01604">
        <ele>1032</ele>
        <time>2022-07-23T10:29:05Z</time>
      </trkpt>
      <trkpt lat="45.39624" lon="3.01595">
        <ele>1028</ele>
        <time>2022-07-23T10:29:09Z</time>
      </trkpt>
      <trkpt lat="45.39602" lon="3.01593">
        <ele>1021</ele>
        <time>2022-07-23T10:29:13Z</time>
      </trkpt>
      <trkpt lat="45.39592" lon="3.0159">
        <ele>1019</ele>
        <time>2022-07-23T10:29:15Z</time>
      </trkpt>
      <trkpt lat="45.39584" lon="3.01586">
        <ele>1018</ele>
        <time>2022-07-23T10:29:16Z</time>
      </trkpt>
      <trkpt lat="45.39575" lon="3.01578">
        <ele>1017</ele>
        <time>2022-07-23T10:29:18Z</time>
      </trkpt>
      <trkpt lat="45.39568" lon="3.01567">
        <ele>1017</ele>
        <time>2022-07-23T10:29:20Z</time>
      </trkpt>
      <trkpt lat="45.39558" lon="3.0154">
        <ele>1018</ele>
        <time>2022-07-23T10:29:24Z</time>
      </trkpt>
      <trkpt lat="45.39555" lon="3.01524">
        <ele>1019</ele>
        <time>2022-07-23T10:29:26Z</time>
      </trkpt>
      <trkpt lat="45.39547" lon="3.01427">
        <ele>1030</ele>
        <time>2022-07-23T10:29:38Z</time>
      </trkpt>
      <trkpt lat="45.39531" lon="3.01321">
        <ele>1043</ele>
        <time>2022-07-23T10:29:52Z</time>
      </trkpt>
      <trkpt lat="45.39523" lon="3.013">
        <ele>1044</ele>
        <time>2022-07-23T10:29:55Z</time>
      </trkpt>
      <trkpt lat="45.39493" lon="3.01246">
        <ele>1041</ele>
        <time>2022-07-23T10:30:03Z</time>
      </trkpt>
      <trkpt lat="45.39474" lon="3.01198">
        <ele>1047</ele>
        <time>2022-07-23T10:30:10Z</time>
      </trkpt>
      <trkpt lat="45.39463" lon="3.01181">
        <ele>1046</ele>
        <time>2022-07-23T10:30:13Z</time>
      </trkpt>
      <trkpt lat="45.39428" lon="3.01139">
        <ele>1041</ele>
        <time>2022-07-23T10:30:21Z</time>
      </trkpt>
      <trkpt lat="45.39415" lon="3.0111">
        <ele>1045</ele>
        <time>2022-07-23T10:30:25Z</time>
      </trkpt>
      <trkpt lat="45.39411" lon="3.01097">
        <ele>1048</ele>
        <time>2022-07-23T10:30:27Z</time>
      </trkpt>
      <trkpt lat="45.39406" lon="3.01067">
        <ele>1055</ele>
        <time>2022-07-23T10:30:31Z</time>
      </trkpt>
      <trkpt lat="45.39402" lon="3.01056">
        <ele>1057</ele>
        <time>2022-07-23T10:30:33Z</time>
      </trkpt>
      <trkpt lat="45.39359" lon="3.00996">
        <ele>1053</ele>
        <time>2022-07-23T10:30:43Z</time>
      </trkpt>
      <trkpt lat="45.39355" lon="3.00985">
        <ele>1053</ele>
        <time>2022-07-23T10:30:45Z</time>
      </trkpt>
      <trkpt lat="45.3935" lon="3.00963">
        <ele>1055</ele>
        <time>2022-07-23T10:30:48Z</time>
      </trkpt>
      <trkpt lat="45.39349" lon="3.00915">
        <ele>1062</ele>
        <time>2022-07-23T10:30:54Z</time>
      </trkpt>
      <trkpt lat="45.39346" lon="3.00894">
        <ele>1065</ele>
        <time>2022-07-23T10:30:56Z</time>
      </trkpt>
      <trkpt lat="45.39343" lon="3.00879">
        <ele>1067</ele>
        <time>2022-07-23T10:30:58Z</time>
      </trkpt>
      <trkpt lat="45.39337" lon="3.00864">
        <ele>1067</ele>
        <time>2022-07-23T10:31:01Z</time>
      </trkpt>
      <trkpt lat="45.39331" lon="3.00852">
        <ele>1066</ele>
        <time>2022-07-23T10:31:02Z</time>
      </trkpt>
      <trkpt lat="45.3928" lon="3.008">
        <ele>1061</ele>
        <time>2022-07-23T10:31:14Z</time>
      </trkpt>
      <trkpt lat="45.39273" lon="3.00792">
        <ele>1060</ele>
        <time>2022-07-23T10:31:15Z</time>
      </trkpt>
      <trkpt lat="45.3926" lon="3.00762">
        <ele>1063</ele>
        <time>2022-07-23T10:31:20Z</time>
      </trkpt>
      <trkpt lat="45.39254" lon="3.00755">
        <ele>1062</ele>
        <time>2022-07-23T10:31:21Z</time>
      </trkpt>
      <trkpt lat="45.39236" lon="3.00741">
        <ele>1057</ele>
        <time>2022-07-23T10:31:25Z</time>
      </trkpt>
      <trkpt lat="45.39229" lon="3.0073">
        <ele>1056</ele>
        <time>2022-07-23T10:31:26Z</time>
      </trkpt>
      <trkpt lat="45.39225" lon="3.00715">
        <ele>1056</ele>
        <time>2022-07-23T10:31:28Z</time>
      </trkpt>
      <trkpt lat="45.39227" lon="3.00698">
        <ele>1058</ele>
        <time>2022-07-23T10:31:31Z</time>
      </trkpt>
      <trkpt lat="45.39242" lon="3.00657">
        <ele>1067</ele>
        <time>2022-07-23T10:31:36Z</time>
      </trkpt>
      <trkpt lat="45.39244" lon="3.00645">
        <ele>1069</ele>
        <time>2022-07-23T10:31:38Z</time>
      </trkpt>
      <trkpt lat="45.39245" lon="3.00627">
        <ele>1070</ele>
        <time>2022-07-23T10:31:40Z</time>
      </trkpt>
      <trkpt lat="45.39243" lon="3.00547">
        <ele>1072</ele>
        <time>2022-07-23T10:31:50Z</time>
      </trkpt>
      <trkpt lat="45.39254" lon="3.0044">
        <ele>1073</ele>
        <time>2022-07-23T10:32:04Z</time>
      </trkpt>
      <trkpt lat="45.39261" lon="3.00393">
        <ele>1074</ele>
        <time>2022-07-23T10:32:10Z</time>
      </trkpt>
      <trkpt lat="45.39288" lon="3.0028">
        <ele>1085</ele>
        <time>2022-07-23T10:32:25Z</time>
      </trkpt>
      <trkpt lat="45.39288" lon="3.00258">
        <ele>1085</ele>
        <time>2022-07-23T10:32:27Z</time>
      </trkpt>
      <trkpt lat="45.39284" lon="3.00235">
        <ele>1086</ele>
        <time>2022-07-23T10:32:30Z</time>
      </trkpt>
      <trkpt lat="45.39279" lon="3.00225">
        <ele>1086</ele>
        <time>2022-07-23T10:32:32Z</time>
      </trkpt>
      <trkpt lat="45.39257" lon="3.00194">
        <ele>1085</ele>
        <time>2022-07-23T10:32:37Z</time>
      </trkpt>
      <trkpt lat="45.39167" lon="3.00046">
        <ele>1091</ele>
        <time>2022-07-23T10:33:02Z</time>
      </trkpt>
      <trkpt lat="45.39142" lon="3.00014">
        <ele>1092</ele>
        <time>2022-07-23T10:33:08Z</time>
      </trkpt>
      <trkpt lat="45.39108" lon="2.99982">
        <ele>1090</ele>
        <time>2022-07-23T10:33:15Z</time>
      </trkpt>
      <trkpt lat="45.39102" lon="2.99974">
        <ele>1089</ele>
        <time>2022-07-23T10:33:16Z</time>
      </trkpt>
      <trkpt lat="45.39095" lon="2.99954">
        <ele>1089</ele>
        <time>2022-07-23T10:33:19Z</time>
      </trkpt>
      <trkpt lat="45.39087" lon="2.99876">
        <ele>1093</ele>
        <time>2022-07-23T10:33:29Z</time>
      </trkpt>
      <trkpt lat="45.39086" lon="2.99842">
        <ele>1095</ele>
        <time>2022-07-23T10:33:33Z</time>
      </trkpt>
      <trkpt lat="45.39089" lon="2.99816">
        <ele>1097</ele>
        <time>2022-07-23T10:33:37Z</time>
      </trkpt>
      <trkpt lat="45.39102" lon="2.99757">
        <ele>1103</ele>
        <time>2022-07-23T10:33:44Z</time>
      </trkpt>
      <trkpt lat="45.39103" lon="2.99745">
        <ele>1103</ele>
        <time>2022-07-23T10:33:46Z</time>
      </trkpt>
      <trkpt lat="45.39103" lon="2.99715">
        <ele>1104</ele>
        <time>2022-07-23T10:33:50Z</time>
      </trkpt>
      <trkpt lat="45.3909" lon="2.99633">
        <ele>1107</ele>
        <time>2022-07-23T10:34:00Z</time>
      </trkpt>
      <trkpt lat="45.39069" lon="2.99569">
        <ele>1108</ele>
        <time>2022-07-23T10:34:09Z</time>
      </trkpt>
      <trkpt lat="45.39063" lon="2.99536">
        <ele>1110</ele>
        <time>2022-07-23T10:34:13Z</time>
      </trkpt>
      <trkpt lat="45.39055" lon="2.99453">
        <ele>1116</ele>
        <time>2022-07-23T10:34:24Z</time>
      </trkpt>
      <trkpt lat="45.39051" lon="2.99425">
        <ele>1118</ele>
        <time>2022-07-23T10:34:27Z</time>
      </trkpt>
      <trkpt lat="45.39047" lon="2.99414">
        <ele>1118</ele>
        <time>2022-07-23T10:34:29Z</time>
      </trkpt>
      <trkpt lat="45.39035" lon="2.99399">
        <ele>1119</ele>
        <time>2022-07-23T10:34:32Z</time>
      </trkpt>
      <trkpt lat="45.39029" lon="2.99387">
        <ele>1120</ele>
        <time>2022-07-23T10:34:34Z</time>
      </trkpt>
      <trkpt lat="45.3899" lon="2.99293">
        <ele>1125</ele>
        <time>2022-07-23T10:34:47Z</time>
      </trkpt>
      <trkpt lat="45.38949" lon="2.99222">
        <ele>1125</ele>
        <time>2022-07-23T10:34:59Z</time>
      </trkpt>
      <trkpt lat="45.38933" lon="2.99188">
        <ele>1127</ele>
        <time>2022-07-23T10:35:04Z</time>
      </trkpt>
      <trkpt lat="45.38883" lon="2.99074">
        <ele>1132</ele>
        <time>2022-07-23T10:35:21Z</time>
      </trkpt>
      <trkpt lat="45.38866" lon="2.99044">
        <ele>1134</ele>
        <time>2022-07-23T10:35:25Z</time>
      </trkpt>
      <trkpt lat="45.38839" lon="2.99009">
        <ele>1133</ele>
        <time>2022-07-23T10:35:32Z</time>
      </trkpt>
      <trkpt lat="45.38834" lon="2.98999">
        <ele>1133</ele>
        <time>2022-07-23T10:35:33Z</time>
      </trkpt>
      <trkpt lat="45.38831" lon="2.98987">
        <ele>1132</ele>
        <time>2022-07-23T10:35:35Z</time>
      </trkpt>
      <trkpt lat="45.38828" lon="2.98963">
        <ele>1132</ele>
        <time>2022-07-23T10:35:38Z</time>
      </trkpt>
      <trkpt lat="45.38828" lon="2.9892">
        <ele>1132</ele>
        <time>2022-07-23T10:35:43Z</time>
      </trkpt>
      <trkpt lat="45.38832" lon="2.98826">
        <ele>1139</ele>
        <time>2022-07-23T10:35:55Z</time>
      </trkpt>
      <trkpt lat="45.38835" lon="2.9879">
        <ele>1140</ele>
        <time>2022-07-23T10:36:00Z</time>
      </trkpt>
      <trkpt lat="45.38846" lon="2.98752">
        <ele>1142</ele>
        <time>2022-07-23T10:36:05Z</time>
      </trkpt>
      <trkpt lat="45.38898" lon="2.98594">
        <ele>1151</ele>
        <time>2022-07-23T10:36:27Z</time>
      </trkpt>
      <trkpt lat="45.38902" lon="2.9858">
        <ele>1152</ele>
        <time>2022-07-23T10:36:29Z</time>
      </trkpt>
      <trkpt lat="45.38903" lon="2.98566">
        <ele>1153</ele>
        <time>2022-07-23T10:36:30Z</time>
      </trkpt>
      <trkpt lat="45.38903" lon="2.98553">
        <ele>1154</ele>
        <time>2022-07-23T10:36:32Z</time>
      </trkpt>
      <trkpt lat="45.38893" lon="2.98499">
        <ele>1155</ele>
        <time>2022-07-23T10:36:39Z</time>
      </trkpt>
      <trkpt lat="45.389" lon="2.98443">
        <ele>1158</ele>
        <time>2022-07-23T10:36:46Z</time>
      </trkpt>
      <trkpt lat="45.38891" lon="2.98428">
        <ele>1157</ele>
        <time>2022-07-23T10:36:48Z</time>
      </trkpt>
      <trkpt lat="45.38596" lon="2.97781">
        <ele>1140</ele>
        <time>2022-07-23T10:38:25Z</time>
      </trkpt>
      <trkpt lat="45.38577" lon="2.97743">
        <ele>1139</ele>
        <time>2022-07-23T10:38:31Z</time>
      </trkpt>
      <trkpt lat="45.38563" lon="2.9772">
        <ele>1139</ele>
        <time>2022-07-23T10:38:35Z</time>
      </trkpt>
      <trkpt lat="45.38498" lon="2.97638">
        <ele>1134</ele>
        <time>2022-07-23T10:38:50Z</time>
      </trkpt>
      <trkpt lat="45.38484" lon="2.97617">
        <ele>1134</ele>
        <time>2022-07-23T10:38:54Z</time>
      </trkpt>
      <trkpt lat="45.38469" lon="2.97581">
        <ele>1134</ele>
        <time>2022-07-23T10:38:59Z</time>
      </trkpt>
      <trkpt lat="45.38457" lon="2.97545">
        <ele>1136</ele>
        <time>2022-07-23T10:39:04Z</time>
      </trkpt>
      <trkpt lat="45.38448" lon="2.97514">
        <ele>1137</ele>
        <time>2022-07-23T10:39:08Z</time>
      </trkpt>
      <trkpt lat="45.38439" lon="2.97491">
        <ele>1138</ele>
        <time>2022-07-23T10:39:11Z</time>
      </trkpt>
      <trkpt lat="45.38429" lon="2.97471">
        <ele>1137</ele>
        <time>2022-07-23T10:39:14Z</time>
      </trkpt>
      <trkpt lat="45.38414" lon="2.97447">
        <ele>1137</ele>
        <time>2022-07-23T10:39:18Z</time>
      </trkpt>
      <trkpt lat="45.38398" lon="2.97424">
        <ele>1137</ele>
        <time>2022-07-23T10:39:22Z</time>
      </trkpt>
      <trkpt lat="45.38381" lon="2.97405">
        <ele>1138</ele>
        <time>2022-07-23T10:39:26Z</time>
      </trkpt>
      <trkpt lat="45.38363" lon="2.97388">
        <ele>1138</ele>
        <time>2022-07-23T10:39:30Z</time>
      </trkpt>
      <trkpt lat="45.38276" lon="2.97326">
        <ele>1143</ele>
        <time>2022-07-23T10:39:47Z</time>
      </trkpt>
      <trkpt lat="45.38262" lon="2.97314">
        <ele>1144</ele>
        <time>2022-07-23T10:39:50Z</time>
      </trkpt>
      <trkpt lat="45.3818" lon="2.97218">
        <ele>1150</ele>
        <time>2022-07-23T10:40:09Z</time>
      </trkpt>
      <trkpt lat="45.38158" lon="2.97189">
        <ele>1151</ele>
        <time>2022-07-23T10:40:15Z</time>
      </trkpt>
      <trkpt lat="45.38112" lon="2.97117">
        <ele>1154</ele>
        <time>2022-07-23T10:40:27Z</time>
      </trkpt>
      <trkpt lat="45.38096" lon="2.97086">
        <ele>1155</ele>
        <time>2022-07-23T10:40:32Z</time>
      </trkpt>
      <trkpt lat="45.38069" lon="2.97024">
        <ele>1157</ele>
        <time>2022-07-23T10:40:41Z</time>
      </trkpt>
      <trkpt lat="45.38054" lon="2.96975">
        <ele>1158</ele>
        <time>2022-07-23T10:40:47Z</time>
      </trkpt>
      <trkpt lat="45.38032" lon="2.96921">
        <ele>1157</ele>
        <time>2022-07-23T10:40:55Z</time>
      </trkpt>
      <trkpt lat="45.38022" lon="2.9691">
        <ele>1157</ele>
        <time>2022-07-23T10:40:57Z</time>
      </trkpt>
      <trkpt lat="45.37983" lon="2.96892">
        <ele>1156</ele>
        <time>2022-07-23T10:41:05Z</time>
      </trkpt>
      <trkpt lat="45.37966" lon="2.96886">
        <ele>1156</ele>
        <time>2022-07-23T10:41:08Z</time>
      </trkpt>
      <trkpt lat="45.3794" lon="2.96879">
        <ele>1156</ele>
        <time>2022-07-23T10:41:12Z</time>
      </trkpt>
      <trkpt lat="45.37932" lon="2.96879">
        <ele>1156</ele>
        <time>2022-07-23T10:41:14Z</time>
      </trkpt>
      <trkpt lat="45.3792" lon="2.96884">
        <ele>1156</ele>
        <time>2022-07-23T10:41:16Z</time>
      </trkpt>
      <trkpt lat="45.37913" lon="2.96891">
        <ele>1157</ele>
        <time>2022-07-23T10:41:18Z</time>
      </trkpt>
      <trkpt lat="45.37906" lon="2.96904">
        <ele>1158</ele>
        <time>2022-07-23T10:41:20Z</time>
      </trkpt>
      <trkpt lat="45.37881" lon="2.9697">
        <ele>1159</ele>
        <time>2022-07-23T10:41:29Z</time>
      </trkpt>
      <trkpt lat="45.37867" lon="2.97001">
        <ele>1160</ele>
        <time>2022-07-23T10:41:34Z</time>
      </trkpt>
      <trkpt lat="45.37861" lon="2.97012">
        <ele>1160</ele>
        <time>2022-07-23T10:41:35Z</time>
      </trkpt>
      <trkpt lat="45.37786" lon="2.97105">
        <ele>1166</ele>
        <time>2022-07-23T10:41:53Z</time>
      </trkpt>
      <trkpt lat="45.3778" lon="2.97118">
        <ele>1166</ele>
        <time>2022-07-23T10:41:55Z</time>
      </trkpt>
      <trkpt lat="45.37775" lon="2.97133">
        <ele>1166</ele>
        <time>2022-07-23T10:41:57Z</time>
      </trkpt>
      <trkpt lat="45.37767" lon="2.97176">
        <ele>1166</ele>
        <time>2022-07-23T10:42:03Z</time>
      </trkpt>
      <trkpt lat="45.37755" lon="2.97261">
        <ele>1170</ele>
        <time>2022-07-23T10:42:14Z</time>
      </trkpt>
      <trkpt lat="45.37747" lon="2.97294">
        <ele>1171</ele>
        <time>2022-07-23T10:42:18Z</time>
      </trkpt>
      <trkpt lat="45.37732" lon="2.97326">
        <ele>1172</ele>
        <time>2022-07-23T10:42:23Z</time>
      </trkpt>
      <trkpt lat="45.37726" lon="2.97335">
        <ele>1173</ele>
        <time>2022-07-23T10:42:24Z</time>
      </trkpt>
      <trkpt lat="45.37716" lon="2.9734">
        <ele>1173</ele>
        <time>2022-07-23T10:42:26Z</time>
      </trkpt>
      <trkpt lat="45.37701" lon="2.97337">
        <ele>1174</ele>
        <time>2022-07-23T10:42:29Z</time>
      </trkpt>
      <trkpt lat="45.37689" lon="2.97331">
        <ele>1175</ele>
        <time>2022-07-23T10:42:31Z</time>
      </trkpt>
      <trkpt lat="45.3765" lon="2.97301">
        <ele>1178</ele>
        <time>2022-07-23T10:42:39Z</time>
      </trkpt>
      <trkpt lat="45.37632" lon="2.97297">
        <ele>1179</ele>
        <time>2022-07-23T10:42:42Z</time>
      </trkpt>
      <trkpt lat="45.37587" lon="2.97305">
        <ele>1179</ele>
        <time>2022-07-23T10:42:50Z</time>
      </trkpt>
      <trkpt lat="45.37544" lon="2.97336">
        <ele>1178</ele>
        <time>2022-07-23T10:42:59Z</time>
      </trkpt>
      <trkpt lat="45.37528" lon="2.97338">
        <ele>1178</ele>
        <time>2022-07-23T10:43:02Z</time>
      </trkpt>
      <trkpt lat="45.37521" lon="2.97336">
        <ele>1178</ele>
        <time>2022-07-23T10:43:03Z</time>
      </trkpt>
      <trkpt lat="45.375" lon="2.97313">
        <ele>1180</ele>
        <time>2022-07-23T10:43:08Z</time>
      </trkpt>
      <trkpt lat="45.37473" lon="2.97268">
        <ele>1183</ele>
        <time>2022-07-23T10:43:15Z</time>
      </trkpt>
      <trkpt lat="45.3746" lon="2.97249">
        <ele>1184</ele>
        <time>2022-07-23T10:43:18Z</time>
      </trkpt>
      <trkpt lat="45.3744" lon="2.9723">
        <ele>1186</ele>
        <time>2022-07-23T10:43:23Z</time>
      </trkpt>
      <trkpt lat="45.3742" lon="2.97219">
        <ele>1187</ele>
        <time>2022-07-23T10:43:27Z</time>
      </trkpt>
      <trkpt lat="45.37411" lon="2.97219">
        <ele>1186</ele>
        <time>2022-07-23T10:43:28Z</time>
      </trkpt>
      <trkpt lat="45.37383" lon="2.97233">
        <ele>1182</ele>
        <time>2022-07-23T10:43:33Z</time>
      </trkpt>
      <trkpt lat="45.37366" lon="2.97235">
        <ele>1180</ele>
        <time>2022-07-23T10:43:36Z</time>
      </trkpt>
      <trkpt lat="45.37356" lon="2.9723">
        <ele>1180</ele>
        <time>2022-07-23T10:43:38Z</time>
      </trkpt>
      <trkpt lat="45.37332" lon="2.97208">
        <ele>1180</ele>
        <time>2022-07-23T10:43:43Z</time>
      </trkpt>
      <trkpt lat="45.37303" lon="2.97174">
        <ele>1182</ele>
        <time>2022-07-23T10:43:50Z</time>
      </trkpt>
      <trkpt lat="45.3728" lon="2.97136">
        <ele>1183</ele>
        <time>2022-07-23T10:43:56Z</time>
      </trkpt>
      <trkpt lat="45.37273" lon="2.9713">
        <ele>1182</ele>
        <time>2022-07-23T10:43:58Z</time>
      </trkpt>
      <trkpt lat="45.37265" lon="2.97127">
        <ele>1182</ele>
        <time>2022-07-23T10:43:59Z</time>
      </trkpt>
      <trkpt lat="45.37255" lon="2.97127">
        <ele>1180</ele>
        <time>2022-07-23T10:44:01Z</time>
      </trkpt>
      <trkpt lat="45.37245" lon="2.9713">
        <ele>1180</ele>
        <time>2022-07-23T10:44:03Z</time>
      </trkpt>
      <trkpt lat="45.37184" lon="2.97175">
        <ele>1183</ele>
        <time>2022-07-23T10:44:15Z</time>
      </trkpt>
      <trkpt lat="45.37068" lon="2.97226">
        <ele>1185</ele>
        <time>2022-07-23T10:44:37Z</time>
      </trkpt>
      <trkpt lat="45.37061" lon="2.97229">
        <ele>1185</ele>
        <time>2022-07-23T10:44:38Z</time>
      </trkpt>
      <trkpt lat="45.37042" lon="2.9723">
        <ele>1185</ele>
        <time>2022-07-23T10:44:41Z</time>
      </trkpt>
      <trkpt lat="45.37027" lon="2.97226">
        <ele>1186</ele>
        <time>2022-07-23T10:44:44Z</time>
      </trkpt>
      <trkpt lat="45.37002" lon="2.97215">
        <ele>1186</ele>
        <time>2022-07-23T10:44:49Z</time>
      </trkpt>
      <trkpt lat="45.36955" lon="2.97183">
        <ele>1190</ele>
        <time>2022-07-23T10:44:58Z</time>
      </trkpt>
      <trkpt lat="45.369" lon="2.97166">
        <ele>1194</ele>
        <time>2022-07-23T10:45:08Z</time>
      </trkpt>
      <trkpt lat="45.36874" lon="2.97163">
        <ele>1197</ele>
        <time>2022-07-23T10:45:13Z</time>
      </trkpt>
      <trkpt lat="45.36792" lon="2.97165">
        <ele>1201</ele>
        <time>2022-07-23T10:45:27Z</time>
      </trkpt>
      <trkpt lat="45.36778" lon="2.97163">
        <ele>1202</ele>
        <time>2022-07-23T10:45:30Z</time>
      </trkpt>
      <trkpt lat="45.36684" lon="2.97129">
        <ele>1206</ele>
        <time>2022-07-23T10:45:47Z</time>
      </trkpt>
      <trkpt lat="45.36676" lon="2.97122">
        <ele>1206</ele>
        <time>2022-07-23T10:45:49Z</time>
      </trkpt>
      <trkpt lat="45.36638" lon="2.97075">
        <ele>1206</ele>
        <time>2022-07-23T10:45:58Z</time>
      </trkpt>
      <trkpt lat="45.36623" lon="2.9706">
        <ele>1207</ele>
        <time>2022-07-23T10:46:01Z</time>
      </trkpt>
      <trkpt lat="45.36607" lon="2.97055">
        <ele>1207</ele>
        <time>2022-07-23T10:46:04Z</time>
      </trkpt>
      <trkpt lat="45.3655" lon="2.97054">
        <ele>1210</ele>
        <time>2022-07-23T10:46:14Z</time>
      </trkpt>
      <trkpt lat="45.36532" lon="2.97044">
        <ele>1211</ele>
        <time>2022-07-23T10:46:17Z</time>
      </trkpt>
      <trkpt lat="45.36525" lon="2.97034">
        <ele>1212</ele>
        <time>2022-07-23T10:46:19Z</time>
      </trkpt>
      <trkpt lat="45.36416" lon="2.96938">
        <ele>1221</ele>
        <time>2022-07-23T10:46:42Z</time>
      </trkpt>
      <trkpt lat="45.36403" lon="2.96934">
        <ele>1222</ele>
        <time>2022-07-23T10:46:44Z</time>
      </trkpt>
      <trkpt lat="45.36375" lon="2.96943">
        <ele>1222</ele>
        <time>2022-07-23T10:46:49Z</time>
      </trkpt>
      <trkpt lat="45.36342" lon="2.96964">
        <ele>1222</ele>
        <time>2022-07-23T10:46:56Z</time>
      </trkpt>
      <trkpt lat="45.36317" lon="2.96938">
        <ele>1224</ele>
        <time>2022-07-23T10:47:01Z</time>
      </trkpt>
      <trkpt lat="45.36313" lon="2.96937">
        <ele>1224</ele>
        <time>2022-07-23T10:47:02Z</time>
      </trkpt>
      <trkpt lat="45.36283" lon="2.96947">
        <ele>1225</ele>
        <time>2022-07-23T10:47:08Z</time>
      </trkpt>
      <trkpt lat="45.36274" lon="2.96959">
        <ele>1226</ele>
        <time>2022-07-23T10:47:10Z</time>
      </trkpt>
      <trkpt lat="45.36274" lon="2.96964">
        <ele>1226</ele>
        <time>2022-07-23T10:47:10Z</time>
      </trkpt>
      <trkpt lat="45.36273" lon="2.96969">
        <ele>1226</ele>
        <time>2022-07-23T10:47:11Z</time>
      </trkpt>
      <trkpt lat="45.36259" lon="2.96968">
        <ele>1227</ele>
        <time>2022-07-23T10:47:14Z</time>
      </trkpt>
      <trkpt lat="45.36249" lon="2.96986">
        <ele>1229</ele>
        <time>2022-07-23T10:47:16Z</time>
      </trkpt>
      <trkpt lat="45.36247" lon="2.97003">
        <ele>1230</ele>
        <time>2022-07-23T10:47:19Z</time>
      </trkpt>
      <trkpt lat="45.36239" lon="2.9702">
        <ele>1231</ele>
        <time>2022-07-23T10:47:21Z</time>
      </trkpt>
      <trkpt lat="45.36222" lon="2.96999">
        <ele>1232</ele>
        <time>2022-07-23T10:47:25Z</time>
      </trkpt>
      <trkpt lat="45.3621" lon="2.97016">
        <ele>1234</ele>
        <time>2022-07-23T10:47:28Z</time>
      </trkpt>
      <trkpt lat="45.36203" lon="2.97021">
        <ele>1234</ele>
        <time>2022-07-23T10:47:30Z</time>
      </trkpt>
      <trkpt lat="45.36195" lon="2.97032">
        <ele>1235</ele>
        <time>2022-07-23T10:47:32Z</time>
      </trkpt>
      <trkpt lat="45.36187" lon="2.97048">
        <ele>1236</ele>
        <time>2022-07-23T10:47:34Z</time>
      </trkpt>
      <trkpt lat="45.36191" lon="2.97062">
        <ele>1236</ele>
        <time>2022-07-23T10:47:36Z</time>
      </trkpt>
      <trkpt lat="45.3619" lon="2.9707">
        <ele>1237</ele>
        <time>2022-07-23T10:47:37Z</time>
      </trkpt>
      <trkpt lat="45.36185" lon="2.97082">
        <ele>1237</ele>
        <time>2022-07-23T10:47:39Z</time>
      </trkpt>
      <trkpt lat="45.36184" lon="2.97088">
        <ele>1238</ele>
        <time>2022-07-23T10:47:39Z</time>
      </trkpt>
      <trkpt lat="45.36185" lon="2.97091">
        <ele>1237</ele>
        <time>2022-07-23T10:47:40Z</time>
      </trkpt>
      <trkpt lat="45.36172" lon="2.97104">
        <ele>1239</ele>
        <time>2022-07-23T10:47:43Z</time>
      </trkpt>
      <trkpt lat="45.36164" lon="2.97091">
        <ele>1240</ele>
        <time>2022-07-23T10:47:45Z</time>
      </trkpt>
      <trkpt lat="45.36158" lon="2.97087">
        <ele>1241</ele>
        <time>2022-07-23T10:47:46Z</time>
      </trkpt>
      <trkpt lat="45.36145" lon="2.97088">
        <ele>1244</ele>
        <time>2022-07-23T10:47:48Z</time>
      </trkpt>
      <trkpt lat="45.36133" lon="2.97095">
        <ele>1247</ele>
        <time>2022-07-23T10:47:51Z</time>
      </trkpt>
      <trkpt lat="45.36128" lon="2.97101">
        <ele>1248</ele>
        <time>2022-07-23T10:47:52Z</time>
      </trkpt>
      <trkpt lat="45.36124" lon="2.9711">
        <ele>1249</ele>
        <time>2022-07-23T10:47:53Z</time>
      </trkpt>
      <trkpt lat="45.36114" lon="2.97166">
        <ele>1252</ele>
        <time>2022-07-23T10:48:00Z</time>
      </trkpt>
      <trkpt lat="45.36114" lon="2.972">
        <ele>1252</ele>
        <time>2022-07-23T10:48:05Z</time>
      </trkpt>
      <trkpt lat="45.36125" lon="2.9728">
        <ele>1252</ele>
        <time>2022-07-23T10:48:15Z</time>
      </trkpt>
      <trkpt lat="45.36131" lon="2.97301">
        <ele>1252</ele>
        <time>2022-07-23T10:48:18Z</time>
      </trkpt>
      <trkpt lat="45.36151" lon="2.97353">
        <ele>1252</ele>
        <time>2022-07-23T10:48:25Z</time>
      </trkpt>
      <trkpt lat="45.36165" lon="2.97388">
        <ele>1254</ele>
        <time>2022-07-23T10:48:30Z</time>
      </trkpt>
      <trkpt lat="45.36182" lon="2.9742">
        <ele>1255</ele>
        <time>2022-07-23T10:48:35Z</time>
      </trkpt>
      <trkpt lat="45.36185" lon="2.97429">
        <ele>1255</ele>
        <time>2022-07-23T10:48:36Z</time>
      </trkpt>
      <trkpt lat="45.36185" lon="2.97441">
        <ele>1256</ele>
        <time>2022-07-23T10:48:38Z</time>
      </trkpt>
      <trkpt lat="45.36184" lon="2.97451">
        <ele>1256</ele>
        <time>2022-07-23T10:48:39Z</time>
      </trkpt>
      <trkpt lat="45.36176" lon="2.9748">
        <ele>1259</ele>
        <time>2022-07-23T10:48:43Z</time>
      </trkpt>
      <trkpt lat="45.36159" lon="2.97515">
        <ele>1263</ele>
        <time>2022-07-23T10:48:48Z</time>
      </trkpt>
      <trkpt lat="45.36156" lon="2.97525">
        <ele>1263</ele>
        <time>2022-07-23T10:48:50Z</time>
      </trkpt>
      <trkpt lat="45.36155" lon="2.97534">
        <ele>1264</ele>
        <time>2022-07-23T10:48:51Z</time>
      </trkpt>
      <trkpt lat="45.36156" lon="2.97554">
        <ele>1264</ele>
        <time>2022-07-23T10:48:53Z</time>
      </trkpt>
      <trkpt lat="45.36167" lon="2.97586">
        <ele>1265</ele>
        <time>2022-07-23T10:48:58Z</time>
      </trkpt>
      <trkpt lat="45.36177" lon="2.97607">
        <ele>1266</ele>
        <time>2022-07-23T10:49:01Z</time>
      </trkpt>
      <trkpt lat="45.3619" lon="2.97625">
        <ele>1266</ele>
        <time>2022-07-23T10:49:04Z</time>
      </trkpt>
      <trkpt lat="45.36195" lon="2.97635">
        <ele>1266</ele>
        <time>2022-07-23T10:49:06Z</time>
      </trkpt>
      <trkpt lat="45.36198" lon="2.97647">
        <ele>1267</ele>
        <time>2022-07-23T10:49:07Z</time>
      </trkpt>
      <trkpt lat="45.362" lon="2.97674">
        <ele>1268</ele>
        <time>2022-07-23T10:49:11Z</time>
      </trkpt>
      <trkpt lat="45.36204" lon="2.97687">
        <ele>1269</ele>
        <time>2022-07-23T10:49:12Z</time>
      </trkpt>
      <trkpt lat="45.36209" lon="2.97698">
        <ele>1269</ele>
        <time>2022-07-23T10:49:14Z</time>
      </trkpt>
      <trkpt lat="45.36218" lon="2.97708">
        <ele>1270</ele>
        <time>2022-07-23T10:49:16Z</time>
      </trkpt>
      <trkpt lat="45.36252" lon="2.97741">
        <ele>1270</ele>
        <time>2022-07-23T10:49:23Z</time>
      </trkpt>
      <trkpt lat="45.36263" lon="2.97758">
        <ele>1271</ele>
        <time>2022-07-23T10:49:26Z</time>
      </trkpt>
      <trkpt lat="45.36268" lon="2.97767">
        <ele>1271</ele>
        <time>2022-07-23T10:49:28Z</time>
      </trkpt>
      <trkpt lat="45.36294" lon="2.97859">
        <ele>1274</ele>
        <time>2022-07-23T10:49:40Z</time>
      </trkpt>
      <trkpt lat="45.36307" lon="2.97893">
        <ele>1275</ele>
        <time>2022-07-23T10:49:45Z</time>
      </trkpt>
      <trkpt lat="45.36309" lon="2.97918">
        <ele>1277</ele>
        <time>2022-07-23T10:49:48Z</time>
      </trkpt>
      <trkpt lat="45.36303" lon="2.98049">
        <ele>1278</ele>
        <time>2022-07-23T10:50:05Z</time>
      </trkpt>
      <trkpt lat="45.36301" lon="2.98067">
        <ele>1279</ele>
        <time>2022-07-23T10:50:07Z</time>
      </trkpt>
      <trkpt lat="45.36292" lon="2.9811">
        <ele>1280</ele>
        <time>2022-07-23T10:50:12Z</time>
      </trkpt>
      <trkpt lat="45.3629" lon="2.98143">
        <ele>1280</ele>
        <time>2022-07-23T10:50:17Z</time>
      </trkpt>
      <trkpt lat="45.3629" lon="2.983">
        <ele>1278</ele>
        <time>2022-07-23T10:50:36Z</time>
      </trkpt>
      <trkpt lat="45.36301" lon="2.98372">
        <ele>1275</ele>
        <time>2022-07-23T10:50:45Z</time>
      </trkpt>
      <trkpt lat="45.36302" lon="2.98383">
        <ele>1275</ele>
        <time>2022-07-23T10:50:47Z</time>
      </trkpt>
      <trkpt lat="45.36301" lon="2.98393">
        <ele>1275</ele>
        <time>2022-07-23T10:50:48Z</time>
      </trkpt>
      <trkpt lat="45.36283" lon="2.98441">
        <ele>1277</ele>
        <time>2022-07-23T10:50:55Z</time>
      </trkpt>
      <trkpt lat="45.36281" lon="2.98462">
        <ele>1278</ele>
        <time>2022-07-23T10:50:58Z</time>
      </trkpt>
      <trkpt lat="45.36285" lon="2.98478">
        <ele>1278</ele>
        <time>2022-07-23T10:51:00Z</time>
      </trkpt>
      <trkpt lat="45.36306" lon="2.98509">
        <ele>1279</ele>
        <time>2022-07-23T10:51:05Z</time>
      </trkpt>
      <trkpt lat="45.36314" lon="2.98524">
        <ele>1279</ele>
        <time>2022-07-23T10:51:07Z</time>
      </trkpt>
      <trkpt lat="45.36318" lon="2.98552">
        <ele>1280</ele>
        <time>2022-07-23T10:51:11Z</time>
      </trkpt>
      <trkpt lat="45.36321" lon="2.98673">
        <ele>1286</ele>
        <time>2022-07-23T10:51:26Z</time>
      </trkpt>
      <trkpt lat="45.36323" lon="2.98684">
        <ele>1287</ele>
        <time>2022-07-23T10:51:28Z</time>
      </trkpt>
      <trkpt lat="45.36329" lon="2.98701">
        <ele>1287</ele>
        <time>2022-07-23T10:51:30Z</time>
      </trkpt>
      <trkpt lat="45.36355" lon="2.98742">
        <ele>1287</ele>
        <time>2022-07-23T10:51:37Z</time>
      </trkpt>
      <trkpt lat="45.36361" lon="2.98758">
        <ele>1287</ele>
        <time>2022-07-23T10:51:39Z</time>
      </trkpt>
      <trkpt lat="45.36363" lon="2.98776">
        <ele>1288</ele>
        <time>2022-07-23T10:51:41Z</time>
      </trkpt>
      <trkpt lat="45.36362" lon="2.98806">
        <ele>1290</ele>
        <time>2022-07-23T10:51:45Z</time>
      </trkpt>
      <trkpt lat="45.36365" lon="2.9883">
        <ele>1292</ele>
        <time>2022-07-23T10:51:48Z</time>
      </trkpt>
      <trkpt lat="45.36386" lon="2.9891">
        <ele>1292</ele>
        <time>2022-07-23T10:51:59Z</time>
      </trkpt>
      <trkpt lat="45.36388" lon="2.98932">
        <ele>1293</ele>
        <time>2022-07-23T10:52:02Z</time>
      </trkpt>
      <trkpt lat="45.36384" lon="2.99007">
        <ele>1296</ele>
        <time>2022-07-23T10:52:11Z</time>
      </trkpt>
      <trkpt lat="45.36383" lon="2.9902">
        <ele>1297</ele>
        <time>2022-07-23T10:52:13Z</time>
      </trkpt>
      <trkpt lat="45.36372" lon="2.99059">
        <ele>1299</ele>
        <time>2022-07-23T10:52:18Z</time>
      </trkpt>
      <trkpt lat="45.36372" lon="2.9907">
        <ele>1300</ele>
        <time>2022-07-23T10:52:19Z</time>
      </trkpt>
      <trkpt lat="45.36374" lon="2.99089">
        <ele>1300</ele>
        <time>2022-07-23T10:52:22Z</time>
      </trkpt>
      <trkpt lat="45.36379" lon="2.99111">
        <ele>1300</ele>
        <time>2022-07-23T10:52:25Z</time>
      </trkpt>
      <trkpt lat="45.36386" lon="2.99156">
        <ele>1302</ele>
        <time>2022-07-23T10:52:30Z</time>
      </trkpt>
      <trkpt lat="45.36392" lon="2.99177">
        <ele>1303</ele>
        <time>2022-07-23T10:52:33Z</time>
      </trkpt>
      <trkpt lat="45.3642" lon="2.99239">
        <ele>1305</ele>
        <time>2022-07-23T10:52:42Z</time>
      </trkpt>
      <trkpt lat="45.36425" lon="2.99246">
        <ele>1305</ele>
        <time>2022-07-23T10:52:44Z</time>
      </trkpt>
      <trkpt lat="45.36444" lon="2.99262">
        <ele>1304</ele>
        <time>2022-07-23T10:52:48Z</time>
      </trkpt>
      <trkpt lat="45.36466" lon="2.99283">
        <ele>1304</ele>
        <time>2022-07-23T10:52:52Z</time>
      </trkpt>
      <trkpt lat="45.36486" lon="2.99309">
        <ele>1304</ele>
        <time>2022-07-23T10:52:57Z</time>
      </trkpt>
      <trkpt lat="45.365" lon="2.99338">
        <ele>1306</ele>
        <time>2022-07-23T10:53:01Z</time>
      </trkpt>
      <trkpt lat="45.36507" lon="2.99356">
        <ele>1307</ele>
        <time>2022-07-23T10:53:04Z</time>
      </trkpt>
      <trkpt lat="45.36518" lon="2.99392">
        <ele>1311</ele>
        <time>2022-07-23T10:53:09Z</time>
      </trkpt>
      <trkpt lat="45.36526" lon="2.99413">
        <ele>1313</ele>
        <time>2022-07-23T10:53:12Z</time>
      </trkpt>
      <trkpt lat="45.36542" lon="2.99433">
        <ele>1314</ele>
        <time>2022-07-23T10:53:16Z</time>
      </trkpt>
      <trkpt lat="45.36569" lon="2.9945">
        <ele>1313</ele>
        <time>2022-07-23T10:53:21Z</time>
      </trkpt>
      <trkpt lat="45.3658" lon="2.99462">
        <ele>1313</ele>
        <time>2022-07-23T10:53:23Z</time>
      </trkpt>
      <trkpt lat="45.36644" lon="2.99583">
        <ele>1317</ele>
        <time>2022-07-23T10:53:42Z</time>
      </trkpt>
      <trkpt lat="45.3665" lon="2.99596">
        <ele>1316</ele>
        <time>2022-07-23T10:53:44Z</time>
      </trkpt>
      <trkpt lat="45.36657" lon="2.99621">
        <ele>1315</ele>
        <time>2022-07-23T10:53:48Z</time>
      </trkpt>
      <trkpt lat="45.36662" lon="2.99665">
        <ele>1314</ele>
        <time>2022-07-23T10:53:53Z</time>
      </trkpt>
      <trkpt lat="45.3666" lon="2.99692">
        <ele>1314</ele>
        <time>2022-07-23T10:53:57Z</time>
      </trkpt>
      <trkpt lat="45.36657" lon="2.99704">
        <ele>1314</ele>
        <time>2022-07-23T10:53:58Z</time>
      </trkpt>
      <trkpt lat="45.36645" lon="2.99734">
        <ele>1313</ele>
        <time>2022-07-23T10:54:03Z</time>
      </trkpt>
      <trkpt lat="45.36651" lon="2.9975">
        <ele>1312</ele>
        <time>2022-07-23T10:54:05Z</time>
      </trkpt>
      <trkpt lat="45.36653" lon="2.99759">
        <ele>1312</ele>
        <time>2022-07-23T10:54:06Z</time>
      </trkpt>
      <trkpt lat="45.36651" lon="2.9975">
        <ele>1312</ele>
        <time>2022-07-23T10:54:07Z</time>
      </trkpt>
      <trkpt lat="45.36645" lon="2.99734">
        <ele>1313</ele>
        <time>2022-07-23T10:54:09Z</time>
      </trkpt>
      <trkpt lat="45.36588" lon="2.99882">
        <ele>1308</ele>
        <time>2022-07-23T10:54:31Z</time>
      </trkpt>
      <trkpt lat="45.36578" lon="2.99901">
        <ele>1306</ele>
        <time>2022-07-23T10:54:34Z</time>
      </trkpt>
      <trkpt lat="45.36565" lon="2.99915">
        <ele>1304</ele>
        <time>2022-07-23T10:54:36Z</time>
      </trkpt>
      <trkpt lat="45.36539" lon="2.99931">
        <ele>1302</ele>
        <time>2022-07-23T10:54:41Z</time>
      </trkpt>
      <trkpt lat="45.36439" lon="2.99963">
        <ele>1296</ele>
        <time>2022-07-23T10:55:00Z</time>
      </trkpt>
      <trkpt lat="45.36344" lon="2.99971">
        <ele>1292</ele>
        <time>2022-07-23T10:55:17Z</time>
      </trkpt>
      <trkpt lat="45.36336" lon="2.99969">
        <ele>1292</ele>
        <time>2022-07-23T10:55:18Z</time>
      </trkpt>
      <trkpt lat="45.36313" lon="2.99947">
        <ele>1291</ele>
        <time>2022-07-23T10:55:23Z</time>
      </trkpt>
      <trkpt lat="45.36304" lon="2.99942">
        <ele>1290</ele>
        <time>2022-07-23T10:55:25Z</time>
      </trkpt>
      <trkpt lat="45.36275" lon="2.99932">
        <ele>1287</ele>
        <time>2022-07-23T10:55:30Z</time>
      </trkpt>
      <trkpt lat="45.36268" lon="2.99929">
        <ele>1287</ele>
        <time>2022-07-23T10:55:31Z</time>
      </trkpt>
      <trkpt lat="45.36263" lon="2.99924">
        <ele>1286</ele>
        <time>2022-07-23T10:55:32Z</time>
      </trkpt>
      <trkpt lat="45.36257" lon="2.99914">
        <ele>1286</ele>
        <time>2022-07-23T10:55:34Z</time>
      </trkpt>
      <trkpt lat="45.36255" lon="2.99906">
        <ele>1286</ele>
        <time>2022-07-23T10:55:35Z</time>
      </trkpt>
      <trkpt lat="45.36252" lon="2.99865">
        <ele>1287</ele>
        <time>2022-07-23T10:55:40Z</time>
      </trkpt>
      <trkpt lat="45.36245" lon="2.99846">
        <ele>1287</ele>
        <time>2022-07-23T10:55:43Z</time>
      </trkpt>
      <trkpt lat="45.3624" lon="2.99839">
        <ele>1286</ele>
        <time>2022-07-23T10:55:44Z</time>
      </trkpt>
      <trkpt lat="45.36235" lon="2.99834">
        <ele>1286</ele>
        <time>2022-07-23T10:55:45Z</time>
      </trkpt>
      <trkpt lat="45.36213" lon="2.99823">
        <ele>1284</ele>
        <time>2022-07-23T10:55:49Z</time>
      </trkpt>
      <trkpt lat="45.36203" lon="2.99814">
        <ele>1283</ele>
        <time>2022-07-23T10:55:52Z</time>
      </trkpt>
      <trkpt lat="45.36174" lon="2.99771">
        <ele>1284</ele>
        <time>2022-07-23T10:55:59Z</time>
      </trkpt>
      <trkpt lat="45.36168" lon="2.99766">
        <ele>1284</ele>
        <time>2022-07-23T10:56:00Z</time>
      </trkpt>
      <trkpt lat="45.36161" lon="2.99763">
        <ele>1284</ele>
        <time>2022-07-23T10:56:02Z</time>
      </trkpt>
      <trkpt lat="45.36131" lon="2.99758">
        <ele>1282</ele>
        <time>2022-07-23T10:56:07Z</time>
      </trkpt>
      <trkpt lat="45.36125" lon="2.99755">
        <ele>1282</ele>
        <time>2022-07-23T10:56:08Z</time>
      </trkpt>
      <trkpt lat="45.3612" lon="2.99749">
        <ele>1282</ele>
        <time>2022-07-23T10:56:09Z</time>
      </trkpt>
      <trkpt lat="45.36105" lon="2.9972">
        <ele>1286</ele>
        <time>2022-07-23T10:56:14Z</time>
      </trkpt>
      <trkpt lat="45.36099" lon="2.99713">
        <ele>1287</ele>
        <time>2022-07-23T10:56:15Z</time>
      </trkpt>
      <trkpt lat="45.36076" lon="2.99695">
        <ele>1287</ele>
        <time>2022-07-23T10:56:20Z</time>
      </trkpt>
      <trkpt lat="45.36038" lon="2.99652">
        <ele>1291</ele>
        <time>2022-07-23T10:56:28Z</time>
      </trkpt>
      <trkpt lat="45.3603" lon="2.99649">
        <ele>1291</ele>
        <time>2022-07-23T10:56:30Z</time>
      </trkpt>
      <trkpt lat="45.36015" lon="2.99649">
        <ele>1290</ele>
        <time>2022-07-23T10:56:33Z</time>
      </trkpt>
      <trkpt lat="45.35996" lon="2.99661">
        <ele>1288</ele>
        <time>2022-07-23T10:56:36Z</time>
      </trkpt>
      <trkpt lat="45.3598" lon="2.99678">
        <ele>1287</ele>
        <time>2022-07-23T10:56:40Z</time>
      </trkpt>
      <trkpt lat="45.35966" lon="2.99684">
        <ele>1288</ele>
        <time>2022-07-23T10:56:42Z</time>
      </trkpt>
      <trkpt lat="45.35948" lon="2.99684">
        <ele>1289</ele>
        <time>2022-07-23T10:56:46Z</time>
      </trkpt>
      <trkpt lat="45.35932" lon="2.99675">
        <ele>1290</ele>
        <time>2022-07-23T10:56:49Z</time>
      </trkpt>
      <trkpt lat="45.35793" lon="2.99558">
        <ele>1295</ele>
        <time>2022-07-23T10:57:17Z</time>
      </trkpt>
      <trkpt lat="45.35781" lon="2.99553">
        <ele>1294</ele>
        <time>2022-07-23T10:57:20Z</time>
      </trkpt>
      <trkpt lat="45.35751" lon="2.99549">
        <ele>1292</ele>
        <time>2022-07-23T10:57:25Z</time>
      </trkpt>
      <trkpt lat="45.35728" lon="2.99542">
        <ele>1292</ele>
        <time>2022-07-23T10:57:29Z</time>
      </trkpt>
      <trkpt lat="45.35713" lon="2.99544">
        <ele>1292</ele>
        <time>2022-07-23T10:57:32Z</time>
      </trkpt>
      <trkpt lat="45.35706" lon="2.9955">
        <ele>1291</ele>
        <time>2022-07-23T10:57:33Z</time>
      </trkpt>
      <trkpt lat="45.35699" lon="2.9956">
        <ele>1290</ele>
        <time>2022-07-23T10:57:35Z</time>
      </trkpt>
      <trkpt lat="45.35662" lon="2.99624">
        <ele>1289</ele>
        <time>2022-07-23T10:57:45Z</time>
      </trkpt>
      <trkpt lat="45.35639" lon="2.99652">
        <ele>1288</ele>
        <time>2022-07-23T10:57:51Z</time>
      </trkpt>
      <trkpt lat="45.35603" lon="2.99693">
        <ele>1287</ele>
        <time>2022-07-23T10:57:59Z</time>
      </trkpt>
      <trkpt lat="45.35585" lon="2.99713">
        <ele>1286</ele>
        <time>2022-07-23T10:58:03Z</time>
      </trkpt>
      <trkpt lat="45.35578" lon="2.99726">
        <ele>1286</ele>
        <time>2022-07-23T10:58:05Z</time>
      </trkpt>
      <trkpt lat="45.35525" lon="2.99863">
        <ele>1283</ele>
        <time>2022-07-23T10:58:25Z</time>
      </trkpt>
      <trkpt lat="45.35515" lon="2.99887">
        <ele>1283</ele>
        <time>2022-07-23T10:58:28Z</time>
      </trkpt>
      <trkpt lat="45.35504" lon="2.999">
        <ele>1283</ele>
        <time>2022-07-23T10:58:31Z</time>
      </trkpt>
      <trkpt lat="45.3546" lon="2.99929">
        <ele>1283</ele>
        <time>2022-07-23T10:58:39Z</time>
      </trkpt>
      <trkpt lat="45.35453" lon="2.99935">
        <ele>1283</ele>
        <time>2022-07-23T10:58:41Z</time>
      </trkpt>
      <trkpt lat="45.35425" lon="2.99975">
        <ele>1280</ele>
        <time>2022-07-23T10:58:48Z</time>
      </trkpt>
      <trkpt lat="45.35417" lon="2.99989">
        <ele>1279</ele>
        <time>2022-07-23T10:58:50Z</time>
      </trkpt>
      <trkpt lat="45.354" lon="3.0003">
        <ele>1275</ele>
        <time>2022-07-23T10:58:56Z</time>
      </trkpt>
      <trkpt lat="45.3539" lon="3.0004">
        <ele>1274</ele>
        <time>2022-07-23T10:58:58Z</time>
      </trkpt>
      <trkpt lat="45.35376" lon="3.00042">
        <ele>1274</ele>
        <time>2022-07-23T10:59:01Z</time>
      </trkpt>
      <trkpt lat="45.35319" lon="3.00038">
        <ele>1275</ele>
        <time>2022-07-23T10:59:11Z</time>
      </trkpt>
      <trkpt lat="45.35244" lon="3.0004">
        <ele>1274</ele>
        <time>2022-07-23T10:59:24Z</time>
      </trkpt>
      <trkpt lat="45.35229" lon="3.00047">
        <ele>1273</ele>
        <time>2022-07-23T10:59:27Z</time>
      </trkpt>
      <trkpt lat="45.35184" lon="3.00088">
        <ele>1267</ele>
        <time>2022-07-23T10:59:37Z</time>
      </trkpt>
      <trkpt lat="45.35131" lon="3.00114">
        <ele>1265</ele>
        <time>2022-07-23T10:59:47Z</time>
      </trkpt>
      <trkpt lat="45.35099" lon="3.00134">
        <ele>1262</ele>
        <time>2022-07-23T10:59:53Z</time>
      </trkpt>
      <trkpt lat="45.35086" lon="3.00136">
        <ele>1262</ele>
        <time>2022-07-23T10:59:55Z</time>
      </trkpt>
      <trkpt lat="45.35057" lon="3.0013">
        <ele>1267</ele>
        <time>2022-07-23T11:00:00Z</time>
      </trkpt>
      <trkpt lat="45.3505" lon="3.00132">
        <ele>1268</ele>
        <time>2022-07-23T11:00:02Z</time>
      </trkpt>
      <trkpt lat="45.35038" lon="3.00145">
        <ele>1269</ele>
        <time>2022-07-23T11:00:04Z</time>
      </trkpt>
      <trkpt lat="45.35035" lon="3.00154">
        <ele>1270</ele>
        <time>2022-07-23T11:00:05Z</time>
      </trkpt>
      <trkpt lat="45.35033" lon="3.00167">
        <ele>1269</ele>
        <time>2022-07-23T11:00:07Z</time>
      </trkpt>
      <trkpt lat="45.35033" lon="3.0018">
        <ele>1270</ele>
        <time>2022-07-23T11:00:09Z</time>
      </trkpt>
      <trkpt lat="45.35047" lon="3.00238">
        <ele>1267</ele>
        <time>2022-07-23T11:00:16Z</time>
      </trkpt>
      <trkpt lat="45.35056" lon="3.00294">
        <ele>1264</ele>
        <time>2022-07-23T11:00:24Z</time>
      </trkpt>
      <trkpt lat="45.35075" lon="3.00378">
        <ele>1257</ele>
        <time>2022-07-23T11:00:35Z</time>
      </trkpt>
      <trkpt lat="45.35079" lon="3.00395">
        <ele>1255</ele>
        <time>2022-07-23T11:00:37Z</time>
      </trkpt>
      <trkpt lat="45.35079" lon="3.00408">
        <ele>1255</ele>
        <time>2022-07-23T11:00:39Z</time>
      </trkpt>
      <trkpt lat="45.35079" lon="3.00422">
        <ele>1254</ele>
        <time>2022-07-23T11:00:40Z</time>
      </trkpt>
      <trkpt lat="45.35057" lon="3.00557">
        <ele>1249</ele>
        <time>2022-07-23T11:00:58Z</time>
      </trkpt>
      <trkpt lat="45.35053" lon="3.00569">
        <ele>1248</ele>
        <time>2022-07-23T11:00:59Z</time>
      </trkpt>
      <trkpt lat="45.35036" lon="3.00609">
        <ele>1248</ele>
        <time>2022-07-23T11:01:05Z</time>
      </trkpt>
      <trkpt lat="45.35015" lon="3.00669">
        <ele>1243</ele>
        <time>2022-07-23T11:01:13Z</time>
      </trkpt>
      <trkpt lat="45.35001" lon="3.00688">
        <ele>1243</ele>
        <time>2022-07-23T11:01:17Z</time>
      </trkpt>
      <trkpt lat="45.34943" lon="3.00754">
        <ele>1238</ele>
        <time>2022-07-23T11:01:30Z</time>
      </trkpt>
      <trkpt lat="45.34935" lon="3.00762">
        <ele>1238</ele>
        <time>2022-07-23T11:01:32Z</time>
      </trkpt>
      <trkpt lat="45.34916" lon="3.00776">
        <ele>1238</ele>
        <time>2022-07-23T11:01:36Z</time>
      </trkpt>
      <trkpt lat="45.34896" lon="3.00782">
        <ele>1237</ele>
        <time>2022-07-23T11:01:39Z</time>
      </trkpt>
      <trkpt lat="45.34886" lon="3.00783">
        <ele>1237</ele>
        <time>2022-07-23T11:01:41Z</time>
      </trkpt>
      <trkpt lat="45.34877" lon="3.00781">
        <ele>1237</ele>
        <time>2022-07-23T11:01:43Z</time>
      </trkpt>
      <trkpt lat="45.34868" lon="3.00777">
        <ele>1238</ele>
        <time>2022-07-23T11:01:44Z</time>
      </trkpt>
      <trkpt lat="45.34835" lon="3.00752">
        <ele>1243</ele>
        <time>2022-07-23T11:01:51Z</time>
      </trkpt>
      <trkpt lat="45.34819" lon="3.00745">
        <ele>1247</ele>
        <time>2022-07-23T11:01:54Z</time>
      </trkpt>
      <trkpt lat="45.34804" lon="3.00745">
        <ele>1250</ele>
        <time>2022-07-23T11:01:57Z</time>
      </trkpt>
      <trkpt lat="45.34791" lon="3.00753">
        <ele>1249</ele>
        <time>2022-07-23T11:01:59Z</time>
      </trkpt>
      <trkpt lat="45.34784" lon="3.00761">
        <ele>1248</ele>
        <time>2022-07-23T11:02:01Z</time>
      </trkpt>
      <trkpt lat="45.3476" lon="3.00807">
        <ele>1236</ele>
        <time>2022-07-23T11:02:08Z</time>
      </trkpt>
      <trkpt lat="45.34743" lon="3.00836">
        <ele>1228</ele>
        <time>2022-07-23T11:02:13Z</time>
      </trkpt>
      <trkpt lat="45.34703" lon="3.00927">
        <ele>1213</ele>
        <time>2022-07-23T11:02:26Z</time>
      </trkpt>
      <trkpt lat="45.34691" lon="3.00938">
        <ele>1211</ele>
        <time>2022-07-23T11:02:29Z</time>
      </trkpt>
      <trkpt lat="45.34677" lon="3.00943">
        <ele>1211</ele>
        <time>2022-07-23T11:02:31Z</time>
      </trkpt>
      <trkpt lat="45.34669" lon="3.00942">
        <ele>1211</ele>
        <time>2022-07-23T11:02:33Z</time>
      </trkpt>
      <trkpt lat="45.34661" lon="3.00939">
        <ele>1211</ele>
        <time>2022-07-23T11:02:34Z</time>
      </trkpt>
      <trkpt lat="45.34651" lon="3.00931">
        <ele>1211</ele>
        <time>2022-07-23T11:02:36Z</time>
      </trkpt>
      <trkpt lat="45.3463" lon="3.00905">
        <ele>1212</ele>
        <time>2022-07-23T11:02:41Z</time>
      </trkpt>
      <trkpt lat="45.346" lon="3.00856">
        <ele>1217</ele>
        <time>2022-07-23T11:02:49Z</time>
      </trkpt>
      <trkpt lat="45.34592" lon="3.00846">
        <ele>1217</ele>
        <time>2022-07-23T11:02:51Z</time>
      </trkpt>
      <trkpt lat="45.34569" lon="3.00827">
        <ele>1220</ele>
        <time>2022-07-23T11:02:56Z</time>
      </trkpt>
      <trkpt lat="45.34554" lon="3.00821">
        <ele>1222</ele>
        <time>2022-07-23T11:02:59Z</time>
      </trkpt>
      <trkpt lat="45.34542" lon="3.00821">
        <ele>1222</ele>
        <time>2022-07-23T11:03:01Z</time>
      </trkpt>
      <trkpt lat="45.34522" lon="3.00827">
        <ele>1221</ele>
        <time>2022-07-23T11:03:04Z</time>
      </trkpt>
      <trkpt lat="45.34495" lon="3.00847">
        <ele>1214</ele>
        <time>2022-07-23T11:03:10Z</time>
      </trkpt>
      <trkpt lat="45.34481" lon="3.00851">
        <ele>1210</ele>
        <time>2022-07-23T11:03:12Z</time>
      </trkpt>
      <trkpt lat="45.34462" lon="3.00852">
        <ele>1207</ele>
        <time>2022-07-23T11:03:16Z</time>
      </trkpt>
      <trkpt lat="45.34443" lon="3.00845">
        <ele>1208</ele>
        <time>2022-07-23T11:03:19Z</time>
      </trkpt>
      <trkpt lat="45.34428" lon="3.00837">
        <ele>1209</ele>
        <time>2022-07-23T11:03:22Z</time>
      </trkpt>
      <trkpt lat="45.34411" lon="3.0082">
        <ele>1211</ele>
        <time>2022-07-23T11:03:26Z</time>
      </trkpt>
      <trkpt lat="45.34381" lon="3.00759">
        <ele>1220</ele>
        <time>2022-07-23T11:03:35Z</time>
      </trkpt>
      <trkpt lat="45.34364" lon="3.00734">
        <ele>1222</ele>
        <time>2022-07-23T11:03:39Z</time>
      </trkpt>
      <trkpt lat="45.34354" lon="3.00727">
        <ele>1220</ele>
        <time>2022-07-23T11:03:41Z</time>
      </trkpt>
      <trkpt lat="45.34345" lon="3.00723">
        <ele>1218</ele>
        <time>2022-07-23T11:03:43Z</time>
      </trkpt>
      <trkpt lat="45.34329" lon="3.00722">
        <ele>1214</ele>
        <time>2022-07-23T11:03:46Z</time>
      </trkpt>
      <trkpt lat="45.34314" lon="3.00722">
        <ele>1215</ele>
        <time>2022-07-23T11:03:49Z</time>
      </trkpt>
      <trkpt lat="45.34287" lon="3.0073">
        <ele>1212</ele>
        <time>2022-07-23T11:03:54Z</time>
      </trkpt>
      <trkpt lat="45.34215" lon="3.00781">
        <ele>1200</ele>
        <time>2022-07-23T11:04:08Z</time>
      </trkpt>
      <trkpt lat="45.34177" lon="3.00802">
        <ele>1197</ele>
        <time>2022-07-23T11:04:15Z</time>
      </trkpt>
      <trkpt lat="45.34159" lon="3.0081">
        <ele>1196</ele>
        <time>2022-07-23T11:04:18Z</time>
      </trkpt>
      <trkpt lat="45.34144" lon="3.00819">
        <ele>1197</ele>
        <time>2022-07-23T11:04:21Z</time>
      </trkpt>
      <trkpt lat="45.34135" lon="3.00828">
        <ele>1196</ele>
        <time>2022-07-23T11:04:23Z</time>
      </trkpt>
      <trkpt lat="45.34126" lon="3.00844">
        <ele>1194</ele>
        <time>2022-07-23T11:04:26Z</time>
      </trkpt>
      <trkpt lat="45.34108" lon="3.00893">
        <ele>1187</ele>
        <time>2022-07-23T11:04:33Z</time>
      </trkpt>
      <trkpt lat="45.34097" lon="3.00906">
        <ele>1186</ele>
        <time>2022-07-23T11:04:35Z</time>
      </trkpt>
      <trkpt lat="45.34091" lon="3.0091">
        <ele>1186</ele>
        <time>2022-07-23T11:04:37Z</time>
      </trkpt>
      <trkpt lat="45.34082" lon="3.00911">
        <ele>1186</ele>
        <time>2022-07-23T11:04:38Z</time>
      </trkpt>
      <trkpt lat="45.34038" lon="3.00904">
        <ele>1190</ele>
        <time>2022-07-23T11:04:46Z</time>
      </trkpt>
      <trkpt lat="45.3401" lon="3.00904">
        <ele>1192</ele>
        <time>2022-07-23T11:04:51Z</time>
      </trkpt>
      <trkpt lat="45.34003" lon="3.00908">
        <ele>1191</ele>
        <time>2022-07-23T11:04:52Z</time>
      </trkpt>
      <trkpt lat="45.33989" lon="3.00923">
        <ele>1187</ele>
        <time>2022-07-23T11:04:55Z</time>
      </trkpt>
      <trkpt lat="45.3398" lon="3.00928">
        <ele>1186</ele>
        <time>2022-07-23T11:04:57Z</time>
      </trkpt>
      <trkpt lat="45.33973" lon="3.00928">
        <ele>1186</ele>
        <time>2022-07-23T11:04:58Z</time>
      </trkpt>
      <trkpt lat="45.33964" lon="3.00925">
        <ele>1186</ele>
        <time>2022-07-23T11:05:00Z</time>
      </trkpt>
      <trkpt lat="45.33913" lon="3.00896">
        <ele>1193</ele>
        <time>2022-07-23T11:05:10Z</time>
      </trkpt>
      <trkpt lat="45.33901" lon="3.00895">
        <ele>1194</ele>
        <time>2022-07-23T11:05:12Z</time>
      </trkpt>
      <trkpt lat="45.33887" lon="3.00902">
        <ele>1192</ele>
        <time>2022-07-23T11:05:15Z</time>
      </trkpt>
      <trkpt lat="45.33881" lon="3.00913">
        <ele>1190</ele>
        <time>2022-07-23T11:05:16Z</time>
      </trkpt>
      <trkpt lat="45.33854" lon="3.00997">
        <ele>1180</ele>
        <time>2022-07-23T11:05:28Z</time>
      </trkpt>
      <trkpt lat="45.33853" lon="3.01011">
        <ele>1179</ele>
        <time>2022-07-23T11:05:30Z</time>
      </trkpt>
      <trkpt lat="45.33854" lon="3.01023">
        <ele>1179</ele>
        <time>2022-07-23T11:05:31Z</time>
      </trkpt>
      <trkpt lat="45.33858" lon="3.01035">
        <ele>1178</ele>
        <time>2022-07-23T11:05:33Z</time>
      </trkpt>
      <trkpt lat="45.33874" lon="3.01066">
        <ele>1174</ele>
        <time>2022-07-23T11:05:38Z</time>
      </trkpt>
      <trkpt lat="45.33887" lon="3.01103">
        <ele>1170</ele>
        <time>2022-07-23T11:05:43Z</time>
      </trkpt>
      <trkpt lat="45.33891" lon="3.01122">
        <ele>1169</ele>
        <time>2022-07-23T11:05:45Z</time>
      </trkpt>
      <trkpt lat="45.33891" lon="3.01134">
        <ele>1168</ele>
        <time>2022-07-23T11:05:47Z</time>
      </trkpt>
      <trkpt lat="45.33888" lon="3.01161">
        <ele>1168</ele>
        <time>2022-07-23T11:05:50Z</time>
      </trkpt>
      <trkpt lat="45.3389" lon="3.01175">
        <ele>1167</ele>
        <time>2022-07-23T11:05:52Z</time>
      </trkpt>
      <trkpt lat="45.339" lon="3.01195">
        <ele>1166</ele>
        <time>2022-07-23T11:05:55Z</time>
      </trkpt>
      <trkpt lat="45.33911" lon="3.01204">
        <ele>1164</ele>
        <time>2022-07-23T11:05:57Z</time>
      </trkpt>
      <trkpt lat="45.33917" lon="3.01213">
        <ele>1162</ele>
        <time>2022-07-23T11:05:59Z</time>
      </trkpt>
      <trkpt lat="45.33922" lon="3.01225">
        <ele>1161</ele>
        <time>2022-07-23T11:06:01Z</time>
      </trkpt>
      <trkpt lat="45.33925" lon="3.01242">
        <ele>1161</ele>
        <time>2022-07-23T11:06:03Z</time>
      </trkpt>
      <trkpt lat="45.33926" lon="3.01315">
        <ele>1161</ele>
        <time>2022-07-23T11:06:12Z</time>
      </trkpt>
      <trkpt lat="45.33947" lon="3.01374">
        <ele>1161</ele>
        <time>2022-07-23T11:06:20Z</time>
      </trkpt>
      <trkpt lat="45.33951" lon="3.0142">
        <ele>1165</ele>
        <time>2022-07-23T11:06:26Z</time>
      </trkpt>
      <trkpt lat="45.33957" lon="3.01442">
        <ele>1167</ele>
        <time>2022-07-23T11:06:29Z</time>
      </trkpt>
      <trkpt lat="45.33981" lon="3.01467">
        <ele>1163</ele>
        <time>2022-07-23T11:06:34Z</time>
      </trkpt>
      <trkpt lat="45.3399" lon="3.01479">
        <ele>1163</ele>
        <time>2022-07-23T11:06:36Z</time>
      </trkpt>
      <trkpt lat="45.3401" lon="3.01514">
        <ele>1164</ele>
        <time>2022-07-23T11:06:42Z</time>
      </trkpt>
      <trkpt lat="45.3413" lon="3.01687">
        <ele>1167</ele>
        <time>2022-07-23T11:07:13Z</time>
      </trkpt>
      <trkpt lat="45.34149" lon="3.01719">
        <ele>1167</ele>
        <time>2022-07-23T11:07:18Z</time>
      </trkpt>
      <trkpt lat="45.34159" lon="3.01745">
        <ele>1168</ele>
        <time>2022-07-23T11:07:21Z</time>
      </trkpt>
      <trkpt lat="45.34163" lon="3.01761">
        <ele>1169</ele>
        <time>2022-07-23T11:07:24Z</time>
      </trkpt>
      <trkpt lat="45.34167" lon="3.01831">
        <ele>1173</ele>
        <time>2022-07-23T11:07:32Z</time>
      </trkpt>
      <trkpt lat="45.34166" lon="3.01864">
        <ele>1172</ele>
        <time>2022-07-23T11:07:37Z</time>
      </trkpt>
      <trkpt lat="45.34156" lon="3.01964">
        <ele>1175</ele>
        <time>2022-07-23T11:07:49Z</time>
      </trkpt>
      <trkpt lat="45.34156" lon="3.01988">
        <ele>1175</ele>
        <time>2022-07-23T11:07:52Z</time>
      </trkpt>
      <trkpt lat="45.3416" lon="3.02044">
        <ele>1177</ele>
        <time>2022-07-23T11:07:59Z</time>
      </trkpt>
      <trkpt lat="45.34167" lon="3.02097">
        <ele>1179</ele>
        <time>2022-07-23T11:08:06Z</time>
      </trkpt>
      <trkpt lat="45.34183" lon="3.02159">
        <ele>1179</ele>
        <time>2022-07-23T11:08:14Z</time>
      </trkpt>
      <trkpt lat="45.34186" lon="3.02181">
        <ele>1180</ele>
        <time>2022-07-23T11:08:17Z</time>
      </trkpt>
      <trkpt lat="45.34201" lon="3.0232">
        <ele>1184</ele>
        <time>2022-07-23T11:08:35Z</time>
      </trkpt>
      <trkpt lat="45.34215" lon="3.02398">
        <ele>1186</ele>
        <time>2022-07-23T11:08:45Z</time>
      </trkpt>
      <trkpt lat="45.34228" lon="3.02494">
        <ele>1188</ele>
        <time>2022-07-23T11:08:57Z</time>
      </trkpt>
      <trkpt lat="45.34233" lon="3.02592">
        <ele>1191</ele>
        <time>2022-07-23T11:09:09Z</time>
      </trkpt>
      <trkpt lat="45.34249" lon="3.02683">
        <ele>1193</ele>
        <time>2022-07-23T11:09:21Z</time>
      </trkpt>
      <trkpt lat="45.34257" lon="3.02756">
        <ele>1195</ele>
        <time>2022-07-23T11:09:30Z</time>
      </trkpt>
      <trkpt lat="45.3426" lon="3.02774">
        <ele>1196</ele>
        <time>2022-07-23T11:09:32Z</time>
      </trkpt>
      <trkpt lat="45.34301" lon="3.02894">
        <ele>1199</ele>
        <time>2022-07-23T11:09:49Z</time>
      </trkpt>
      <trkpt lat="45.34308" lon="3.02909">
        <ele>1199</ele>
        <time>2022-07-23T11:09:51Z</time>
      </trkpt>
      <trkpt lat="45.34351" lon="3.02974">
        <ele>1201</ele>
        <time>2022-07-23T11:10:03Z</time>
      </trkpt>
      <trkpt lat="45.34398" lon="3.03055">
        <ele>1205</ele>
        <time>2022-07-23T11:10:16Z</time>
      </trkpt>
      <trkpt lat="45.34411" lon="3.0307">
        <ele>1206</ele>
        <time>2022-07-23T11:10:19Z</time>
      </trkpt>
      <trkpt lat="45.34455" lon="3.03109">
        <ele>1206</ele>
        <time>2022-07-23T11:10:28Z</time>
      </trkpt>
      <trkpt lat="45.34463" lon="3.03119">
        <ele>1206</ele>
        <time>2022-07-23T11:10:30Z</time>
      </trkpt>
      <trkpt lat="45.34471" lon="3.03131">
        <ele>1206</ele>
        <time>2022-07-23T11:10:32Z</time>
      </trkpt>
      <trkpt lat="45.34474" lon="3.03144">
        <ele>1207</ele>
        <time>2022-07-23T11:10:34Z</time>
      </trkpt>
      <trkpt lat="45.34476" lon="3.03162">
        <ele>1208</ele>
        <time>2022-07-23T11:10:36Z</time>
      </trkpt>
      <trkpt lat="45.34472" lon="3.03266">
        <ele>1204</ele>
        <time>2022-07-23T11:10:49Z</time>
      </trkpt>
      <trkpt lat="45.34469" lon="3.03281">
        <ele>1203</ele>
        <time>2022-07-23T11:10:51Z</time>
      </trkpt>
      <trkpt lat="45.34459" lon="3.03317">
        <ele>1202</ele>
        <time>2022-07-23T11:10:56Z</time>
      </trkpt>
      <trkpt lat="45.34448" lon="3.03342">
        <ele>1200</ele>
        <time>2022-07-23T11:10:59Z</time>
      </trkpt>
      <trkpt lat="45.3444" lon="3.03358">
        <ele>1199</ele>
        <time>2022-07-23T11:11:02Z</time>
      </trkpt>
      <trkpt lat="45.34431" lon="3.03369">
        <ele>1198</ele>
        <time>2022-07-23T11:11:04Z</time>
      </trkpt>
      <trkpt lat="45.34408" lon="3.03387">
        <ele>1197</ele>
        <time>2022-07-23T11:11:09Z</time>
      </trkpt>
      <trkpt lat="45.34395" lon="3.03395">
        <ele>1197</ele>
        <time>2022-07-23T11:11:11Z</time>
      </trkpt>
      <trkpt lat="45.34378" lon="3.03401">
        <ele>1197</ele>
        <time>2022-07-23T11:11:14Z</time>
      </trkpt>
      <trkpt lat="45.34325" lon="3.03409">
        <ele>1198</ele>
        <time>2022-07-23T11:11:24Z</time>
      </trkpt>
      <trkpt lat="45.34287" lon="3.03413">
        <ele>1195</ele>
        <time>2022-07-23T11:11:30Z</time>
      </trkpt>
      <trkpt lat="45.34265" lon="3.03412">
        <ele>1194</ele>
        <time>2022-07-23T11:11:34Z</time>
      </trkpt>
      <trkpt lat="45.34169" lon="3.034">
        <ele>1194</ele>
        <time>2022-07-23T11:11:52Z</time>
      </trkpt>
      <trkpt lat="45.34081" lon="3.03383">
        <ele>1190</ele>
        <time>2022-07-23T11:12:07Z</time>
      </trkpt>
      <trkpt lat="45.34027" lon="3.0337">
        <ele>1189</ele>
        <time>2022-07-23T11:12:17Z</time>
      </trkpt>
      <trkpt lat="45.34" lon="3.03368">
        <ele>1187</ele>
        <time>2022-07-23T11:12:22Z</time>
      </trkpt>
      <trkpt lat="45.33987" lon="3.03371">
        <ele>1187</ele>
        <time>2022-07-23T11:12:24Z</time>
      </trkpt>
      <trkpt lat="45.33898" lon="3.03411">
        <ele>1179</ele>
        <time>2022-07-23T11:12:41Z</time>
      </trkpt>
      <trkpt lat="45.33884" lon="3.03415">
        <ele>1178</ele>
        <time>2022-07-23T11:12:43Z</time>
      </trkpt>
      <trkpt lat="45.33871" lon="3.03415">
        <ele>1178</ele>
        <time>2022-07-23T11:12:46Z</time>
      </trkpt>
      <trkpt lat="45.33829" lon="3.03408">
        <ele>1178</ele>
        <time>2022-07-23T11:12:53Z</time>
      </trkpt>
      <trkpt lat="45.33812" lon="3.03414">
        <ele>1177</ele>
        <time>2022-07-23T11:12:56Z</time>
      </trkpt>
      <trkpt lat="45.33804" lon="3.03421">
        <ele>1176</ele>
        <time>2022-07-23T11:12:58Z</time>
      </trkpt>
      <trkpt lat="45.33786" lon="3.03445">
        <ele>1172</ele>
        <time>2022-07-23T11:13:02Z</time>
      </trkpt>
      <trkpt lat="45.33776" lon="3.03457">
        <ele>1170</ele>
        <time>2022-07-23T11:13:05Z</time>
      </trkpt>
      <trkpt lat="45.33752" lon="3.03475">
        <ele>1166</ele>
        <time>2022-07-23T11:13:10Z</time>
      </trkpt>
      <trkpt lat="45.33714" lon="3.03494">
        <ele>1165</ele>
        <time>2022-07-23T11:13:17Z</time>
      </trkpt>
      <trkpt lat="45.33686" lon="3.03517">
        <ele>1163</ele>
        <time>2022-07-23T11:13:22Z</time>
      </trkpt>
      <trkpt lat="45.33677" lon="3.03527">
        <ele>1162</ele>
        <time>2022-07-23T11:13:25Z</time>
      </trkpt>
      <trkpt lat="45.33658" lon="3.03567">
        <ele>1158</ele>
        <time>2022-07-23T11:13:31Z</time>
      </trkpt>
      <trkpt lat="45.33649" lon="3.03575">
        <ele>1158</ele>
        <time>2022-07-23T11:13:32Z</time>
      </trkpt>
      <trkpt lat="45.33621" lon="3.03595">
        <ele>1157</ele>
        <time>2022-07-23T11:13:38Z</time>
      </trkpt>
      <trkpt lat="45.33615" lon="3.03603">
        <ele>1157</ele>
        <time>2022-07-23T11:13:39Z</time>
      </trkpt>
      <trkpt lat="45.33609" lon="3.03615">
        <ele>1156</ele>
        <time>2022-07-23T11:13:41Z</time>
      </trkpt>
      <trkpt lat="45.33604" lon="3.03645">
        <ele>1154</ele>
        <time>2022-07-23T11:13:45Z</time>
      </trkpt>
      <trkpt lat="45.33603" lon="3.03662">
        <ele>1152</ele>
        <time>2022-07-23T11:13:47Z</time>
      </trkpt>
      <trkpt lat="45.33607" lon="3.03746">
        <ele>1148</ele>
        <time>2022-07-23T11:13:58Z</time>
      </trkpt>
      <trkpt lat="45.33606" lon="3.03762">
        <ele>1147</ele>
        <time>2022-07-23T11:14:00Z</time>
      </trkpt>
      <trkpt lat="45.33595" lon="3.03802">
        <ele>1145</ele>
        <time>2022-07-23T11:14:05Z</time>
      </trkpt>
      <trkpt lat="45.33579" lon="3.03841">
        <ele>1144</ele>
        <time>2022-07-23T11:14:11Z</time>
      </trkpt>
      <trkpt lat="45.33575" lon="3.03853">
        <ele>1143</ele>
        <time>2022-07-23T11:14:13Z</time>
      </trkpt>
      <trkpt lat="45.33575" lon="3.03864">
        <ele>1142</ele>
        <time>2022-07-23T11:14:14Z</time>
      </trkpt>
      <trkpt lat="45.33577" lon="3.03877">
        <ele>1142</ele>
        <time>2022-07-23T11:14:16Z</time>
      </trkpt>
      <trkpt lat="45.33588" lon="3.03918">
        <ele>1139</ele>
        <time>2022-07-23T11:14:21Z</time>
      </trkpt>
      <trkpt lat="45.33588" lon="3.03944">
        <ele>1137</ele>
        <time>2022-07-23T11:14:24Z</time>
      </trkpt>
      <trkpt lat="45.33587" lon="3.03956">
        <ele>1136</ele>
        <time>2022-07-23T11:14:26Z</time>
      </trkpt>
      <trkpt lat="45.33583" lon="3.0397">
        <ele>1135</ele>
        <time>2022-07-23T11:14:28Z</time>
      </trkpt>
      <trkpt lat="45.33576" lon="3.03984">
        <ele>1134</ele>
        <time>2022-07-23T11:14:30Z</time>
      </trkpt>
      <trkpt lat="45.33566" lon="3.03994">
        <ele>1134</ele>
        <time>2022-07-23T11:14:32Z</time>
      </trkpt>
      <trkpt lat="45.33555" lon="3.04001">
        <ele>1134</ele>
        <time>2022-07-23T11:14:34Z</time>
      </trkpt>
      <trkpt lat="45.33399" lon="3.04083">
        <ele>1129</ele>
        <time>2022-07-23T11:15:04Z</time>
      </trkpt>
      <trkpt lat="45.33393" lon="3.04089">
        <ele>1129</ele>
        <time>2022-07-23T11:15:05Z</time>
      </trkpt>
      <trkpt lat="45.3339" lon="3.04096">
        <ele>1129</ele>
        <time>2022-07-23T11:15:06Z</time>
      </trkpt>
      <trkpt lat="45.3339" lon="3.04105">
        <ele>1128</ele>
        <time>2022-07-23T11:15:07Z</time>
      </trkpt>
      <trkpt lat="45.33373" lon="3.04123">
        <ele>1128</ele>
        <time>2022-07-23T11:15:11Z</time>
      </trkpt>
      <trkpt lat="45.33351" lon="3.04152">
        <ele>1126</ele>
        <time>2022-07-23T11:15:16Z</time>
      </trkpt>
      <trkpt lat="45.33338" lon="3.04165">
        <ele>1126</ele>
        <time>2022-07-23T11:15:19Z</time>
      </trkpt>
      <trkpt lat="45.3329" lon="3.04196">
        <ele>1128</ele>
        <time>2022-07-23T11:15:29Z</time>
      </trkpt>
      <trkpt lat="45.33264" lon="3.04207">
        <ele>1129</ele>
        <time>2022-07-23T11:15:33Z</time>
      </trkpt>
      <trkpt lat="45.33241" lon="3.04212">
        <ele>1129</ele>
        <time>2022-07-23T11:15:38Z</time>
      </trkpt>
      <trkpt lat="45.33229" lon="3.04212">
        <ele>1129</ele>
        <time>2022-07-23T11:15:40Z</time>
      </trkpt>
      <trkpt lat="45.33211" lon="3.04208">
        <ele>1129</ele>
        <time>2022-07-23T11:15:43Z</time>
      </trkpt>
      <trkpt lat="45.33201" lon="3.04203">
        <ele>1129</ele>
        <time>2022-07-23T11:15:45Z</time>
      </trkpt>
      <trkpt lat="45.33193" lon="3.04195">
        <ele>1129</ele>
        <time>2022-07-23T11:15:47Z</time>
      </trkpt>
      <trkpt lat="45.33172" lon="3.04159">
        <ele>1131</ele>
        <time>2022-07-23T11:15:52Z</time>
      </trkpt>
      <trkpt lat="45.33158" lon="3.04121">
        <ele>1130</ele>
        <time>2022-07-23T11:15:58Z</time>
      </trkpt>
      <trkpt lat="45.3315" lon="3.04042">
        <ele>1131</ele>
        <time>2022-07-23T11:16:08Z</time>
      </trkpt>
      <trkpt lat="45.33146" lon="3.0402">
        <ele>1131</ele>
        <time>2022-07-23T11:16:11Z</time>
      </trkpt>
      <trkpt lat="45.33113" lon="3.03906">
        <ele>1128</ele>
        <time>2022-07-23T11:16:26Z</time>
      </trkpt>
      <trkpt lat="45.33101" lon="3.0387">
        <ele>1126</ele>
        <time>2022-07-23T11:16:31Z</time>
      </trkpt>
      <trkpt lat="45.33083" lon="3.03831">
        <ele>1123</ele>
        <time>2022-07-23T11:16:37Z</time>
      </trkpt>
      <trkpt lat="45.33073" lon="3.03806">
        <ele>1121</ele>
        <time>2022-07-23T11:16:40Z</time>
      </trkpt>
      <trkpt lat="45.3307" lon="3.03789">
        <ele>1120</ele>
        <time>2022-07-23T11:16:43Z</time>
      </trkpt>
      <trkpt lat="45.33059" lon="3.03688">
        <ele>1116</ele>
        <time>2022-07-23T11:16:55Z</time>
      </trkpt>
      <trkpt lat="45.33068" lon="3.03553">
        <ele>1114</ele>
        <time>2022-07-23T11:17:12Z</time>
      </trkpt>
      <trkpt lat="45.33053" lon="3.03554">
        <ele>1111</ele>
        <time>2022-07-23T11:17:15Z</time>
      </trkpt>
      <trkpt lat="45.33046" lon="3.03562">
        <ele>1110</ele>
        <time>2022-07-23T11:17:17Z</time>
      </trkpt>
      <trkpt lat="45.33031" lon="3.03604">
        <ele>1109</ele>
        <time>2022-07-23T11:17:22Z</time>
      </trkpt>
      <trkpt lat="45.3302" lon="3.03617">
        <ele>1107</ele>
        <time>2022-07-23T11:17:25Z</time>
      </trkpt>
      <trkpt lat="45.33002" lon="3.03624">
        <ele>1105</ele>
        <time>2022-07-23T11:17:28Z</time>
      </trkpt>
      <trkpt lat="45.32972" lon="3.03619">
        <ele>1100</ele>
        <time>2022-07-23T11:17:34Z</time>
      </trkpt>
      <trkpt lat="45.32962" lon="3.0362">
        <ele>1098</ele>
        <time>2022-07-23T11:17:36Z</time>
      </trkpt>
      <trkpt lat="45.32954" lon="3.03623">
        <ele>1097</ele>
        <time>2022-07-23T11:17:37Z</time>
      </trkpt>
      <trkpt lat="45.32943" lon="3.03641">
        <ele>1094</ele>
        <time>2022-07-23T11:17:40Z</time>
      </trkpt>
      <trkpt lat="45.32941" lon="3.03667">
        <ele>1093</ele>
        <time>2022-07-23T11:17:43Z</time>
      </trkpt>
      <trkpt lat="45.32943" lon="3.03701">
        <ele>1094</ele>
        <time>2022-07-23T11:17:48Z</time>
      </trkpt>
      <trkpt lat="45.3294" lon="3.03728">
        <ele>1093</ele>
        <time>2022-07-23T11:17:51Z</time>
      </trkpt>
      <trkpt lat="45.32924" lon="3.03772">
        <ele>1089</ele>
        <time>2022-07-23T11:17:57Z</time>
      </trkpt>
      <trkpt lat="45.32916" lon="3.03805">
        <ele>1087</ele>
        <time>2022-07-23T11:18:01Z</time>
      </trkpt>
      <trkpt lat="45.32911" lon="3.03874">
        <ele>1086</ele>
        <time>2022-07-23T11:18:10Z</time>
      </trkpt>
      <trkpt lat="45.32898" lon="3.03966">
        <ele>1082</ele>
        <time>2022-07-23T11:18:22Z</time>
      </trkpt>
      <trkpt lat="45.32894" lon="3.04061">
        <ele>1079</ele>
        <time>2022-07-23T11:18:34Z</time>
      </trkpt>
      <trkpt lat="45.32858" lon="3.04291">
        <ele>1067</ele>
        <time>2022-07-23T11:19:03Z</time>
      </trkpt>
      <trkpt lat="45.32858" lon="3.04311">
        <ele>1066</ele>
        <time>2022-07-23T11:19:06Z</time>
      </trkpt>
      <trkpt lat="45.32858" lon="3.04326">
        <ele>1066</ele>
        <time>2022-07-23T11:19:08Z</time>
      </trkpt>
      <trkpt lat="45.32864" lon="3.04379">
        <ele>1065</ele>
        <time>2022-07-23T11:19:14Z</time>
      </trkpt>
      <trkpt lat="45.32861" lon="3.04411">
        <ele>1064</ele>
        <time>2022-07-23T11:19:18Z</time>
      </trkpt>
      <trkpt lat="45.32855" lon="3.04423">
        <ele>1063</ele>
        <time>2022-07-23T11:19:20Z</time>
      </trkpt>
      <trkpt lat="45.32835" lon="3.04445">
        <ele>1059</ele>
        <time>2022-07-23T11:19:25Z</time>
      </trkpt>
      <trkpt lat="45.32778" lon="3.04493">
        <ele>1054</ele>
        <time>2022-07-23T11:19:37Z</time>
      </trkpt>
      <trkpt lat="45.32771" lon="3.04499">
        <ele>1053</ele>
        <time>2022-07-23T11:19:38Z</time>
      </trkpt>
      <trkpt lat="45.32733" lon="3.04532">
        <ele>1055</ele>
        <time>2022-07-23T11:19:46Z</time>
      </trkpt>
      <trkpt lat="45.32726" lon="3.04542">
        <ele>1057</ele>
        <time>2022-07-23T11:19:48Z</time>
      </trkpt>
      <trkpt lat="45.32722" lon="3.04554">
        <ele>1058</ele>
        <time>2022-07-23T11:19:49Z</time>
      </trkpt>
      <trkpt lat="45.3272" lon="3.04567">
        <ele>1058</ele>
        <time>2022-07-23T11:19:51Z</time>
      </trkpt>
      <trkpt lat="45.32725" lon="3.04595">
        <ele>1059</ele>
        <time>2022-07-23T11:19:55Z</time>
      </trkpt>
      <trkpt lat="45.32753" lon="3.04657">
        <ele>1059</ele>
        <time>2022-07-23T11:20:04Z</time>
      </trkpt>
      <trkpt lat="45.32756" lon="3.0468">
        <ele>1061</ele>
        <time>2022-07-23T11:20:07Z</time>
      </trkpt>
      <trkpt lat="45.32751" lon="3.04698">
        <ele>1063</ele>
        <time>2022-07-23T11:20:09Z</time>
      </trkpt>
      <trkpt lat="45.327" lon="3.04762">
        <ele>1070</ele>
        <time>2022-07-23T11:20:21Z</time>
      </trkpt>
      <trkpt lat="45.3269" lon="3.04785">
        <ele>1071</ele>
        <time>2022-07-23T11:20:25Z</time>
      </trkpt>
      <trkpt lat="45.32681" lon="3.04825">
        <ele>1071</ele>
        <time>2022-07-23T11:20:30Z</time>
      </trkpt>
      <trkpt lat="45.32665" lon="3.04865">
        <ele>1070</ele>
        <time>2022-07-23T11:20:36Z</time>
      </trkpt>
      <trkpt lat="45.32589" lon="3.04983">
        <ele>1070</ele>
        <time>2022-07-23T11:20:56Z</time>
      </trkpt>
      <trkpt lat="45.32556" lon="3.05039">
        <ele>1075</ele>
        <time>2022-07-23T11:21:05Z</time>
      </trkpt>
      <trkpt lat="45.32527" lon="3.05115">
        <ele>1077</ele>
        <time>2022-07-23T11:21:16Z</time>
      </trkpt>
      <trkpt lat="45.32487" lon="3.0518">
        <ele>1080</ele>
        <time>2022-07-23T11:21:26Z</time>
      </trkpt>
      <trkpt lat="45.32478" lon="3.0521">
        <ele>1080</ele>
        <time>2022-07-23T11:21:31Z</time>
      </trkpt>
      <trkpt lat="45.32473" lon="3.05244">
        <ele>1079</ele>
        <time>2022-07-23T11:21:35Z</time>
      </trkpt>
      <trkpt lat="45.32462" lon="3.05454">
        <ele>1076</ele>
        <time>2022-07-23T11:22:01Z</time>
      </trkpt>
      <trkpt lat="45.32465" lon="3.05489">
        <ele>1076</ele>
        <time>2022-07-23T11:22:06Z</time>
      </trkpt>
      <trkpt lat="45.32496" lon="3.05668">
        <ele>1072</ele>
        <time>2022-07-23T11:22:29Z</time>
      </trkpt>
      <trkpt lat="45.32532" lon="3.0579">
        <ele>1072</ele>
        <time>2022-07-23T11:22:45Z</time>
      </trkpt>
      <trkpt lat="45.3255" lon="3.05873">
        <ele>1073</ele>
        <time>2022-07-23T11:22:56Z</time>
      </trkpt>
      <trkpt lat="45.32619" lon="3.06103">
        <ele>1074</ele>
        <time>2022-07-23T11:23:27Z</time>
      </trkpt>
      <trkpt lat="45.32632" lon="3.06135">
        <ele>1074</ele>
        <time>2022-07-23T11:23:32Z</time>
      </trkpt>
      <trkpt lat="45.32694" lon="3.06249">
        <ele>1077</ele>
        <time>2022-07-23T11:23:50Z</time>
      </trkpt>
      <trkpt lat="45.32713" lon="3.06272">
        <ele>1077</ele>
        <time>2022-07-23T11:23:55Z</time>
      </trkpt>
      <trkpt lat="45.32734" lon="3.06289">
        <ele>1077</ele>
        <time>2022-07-23T11:23:59Z</time>
      </trkpt>
      <trkpt lat="45.32757" lon="3.06297">
        <ele>1077</ele>
        <time>2022-07-23T11:24:03Z</time>
      </trkpt>
      <trkpt lat="45.32781" lon="3.06294">
        <ele>1078</ele>
        <time>2022-07-23T11:24:07Z</time>
      </trkpt>
      <trkpt lat="45.32826" lon="3.06276">
        <ele>1078</ele>
        <time>2022-07-23T11:24:16Z</time>
      </trkpt>
      <trkpt lat="45.32849" lon="3.06276">
        <ele>1077</ele>
        <time>2022-07-23T11:24:20Z</time>
      </trkpt>
      <trkpt lat="45.3286" lon="3.06281">
        <ele>1077</ele>
        <time>2022-07-23T11:24:22Z</time>
      </trkpt>
      <trkpt lat="45.32864" lon="3.06292">
        <ele>1079</ele>
        <time>2022-07-23T11:24:23Z</time>
      </trkpt>
      <trkpt lat="45.32877" lon="3.06353">
        <ele>1083</ele>
        <time>2022-07-23T11:24:31Z</time>
      </trkpt>
      <trkpt lat="45.3288" lon="3.06387">
        <ele>1084</ele>
        <time>2022-07-23T11:24:36Z</time>
      </trkpt>
      <trkpt lat="45.32873" lon="3.06548">
        <ele>1089</ele>
        <time>2022-07-23T11:24:56Z</time>
      </trkpt>
      <trkpt lat="45.32876" lon="3.06581">
        <ele>1088</ele>
        <time>2022-07-23T11:25:00Z</time>
      </trkpt>
      <trkpt lat="45.32883" lon="3.06613">
        <ele>1087</ele>
        <time>2022-07-23T11:25:04Z</time>
      </trkpt>
      <trkpt lat="45.32899" lon="3.06657">
        <ele>1085</ele>
        <time>2022-07-23T11:25:10Z</time>
      </trkpt>
      <trkpt lat="45.32952" lon="3.06764">
        <ele>1089</ele>
        <time>2022-07-23T11:25:27Z</time>
      </trkpt>
      <trkpt lat="45.32958" lon="3.06794">
        <ele>1091</ele>
        <time>2022-07-23T11:25:31Z</time>
      </trkpt>
      <trkpt lat="45.32959" lon="3.06877">
        <ele>1094</ele>
        <time>2022-07-23T11:25:41Z</time>
      </trkpt>
      <trkpt lat="45.32955" lon="3.06963">
        <ele>1095</ele>
        <time>2022-07-23T11:25:52Z</time>
      </trkpt>
      <trkpt lat="45.32958" lon="3.06997">
        <ele>1095</ele>
        <time>2022-07-23T11:25:56Z</time>
      </trkpt>
      <trkpt lat="45.32965" lon="3.07029">
        <ele>1094</ele>
        <time>2022-07-23T11:26:00Z</time>
      </trkpt>
      <trkpt lat="45.32979" lon="3.07079">
        <ele>1094</ele>
        <time>2022-07-23T11:26:07Z</time>
      </trkpt>
      <trkpt lat="45.32999" lon="3.07126">
        <ele>1095</ele>
        <time>2022-07-23T11:26:14Z</time>
      </trkpt>
      <trkpt lat="45.33034" lon="3.0718">
        <ele>1094</ele>
        <time>2022-07-23T11:26:23Z</time>
      </trkpt>
      <trkpt lat="45.33048" lon="3.07212">
        <ele>1093</ele>
        <time>2022-07-23T11:26:28Z</time>
      </trkpt>
      <trkpt lat="45.33068" lon="3.07234">
        <ele>1092</ele>
        <time>2022-07-23T11:26:32Z</time>
      </trkpt>
      <trkpt lat="45.33104" lon="3.07253">
        <ele>1090</ele>
        <time>2022-07-23T11:26:39Z</time>
      </trkpt>
      <trkpt lat="45.33115" lon="3.07255">
        <ele>1088</ele>
        <time>2022-07-23T11:26:41Z</time>
      </trkpt>
      <trkpt lat="45.33158" lon="3.0725">
        <ele>1083</ele>
        <time>2022-07-23T11:26:49Z</time>
      </trkpt>
      <trkpt lat="45.33165" lon="3.07255">
        <ele>1082</ele>
        <time>2022-07-23T11:26:50Z</time>
      </trkpt>
      <trkpt lat="45.33175" lon="3.07274">
        <ele>1081</ele>
        <time>2022-07-23T11:26:53Z</time>
      </trkpt>
      <trkpt lat="45.3318" lon="3.073">
        <ele>1082</ele>
        <time>2022-07-23T11:26:56Z</time>
      </trkpt>
      <trkpt lat="45.33185" lon="3.07346">
        <ele>1082</ele>
        <time>2022-07-23T11:27:02Z</time>
      </trkpt>
      <trkpt lat="45.33182" lon="3.07395">
        <ele>1080</ele>
        <time>2022-07-23T11:27:08Z</time>
      </trkpt>
      <trkpt lat="45.33173" lon="3.07424">
        <ele>1079</ele>
        <time>2022-07-23T11:27:12Z</time>
      </trkpt>
      <trkpt lat="45.33094" lon="3.07592">
        <ele>1073</ele>
        <time>2022-07-23T11:27:38Z</time>
      </trkpt>
      <trkpt lat="45.33082" lon="3.07629">
        <ele>1071</ele>
        <time>2022-07-23T11:27:43Z</time>
      </trkpt>
      <trkpt lat="45.33081" lon="3.07645">
        <ele>1070</ele>
        <time>2022-07-23T11:27:45Z</time>
      </trkpt>
      <trkpt lat="45.33086" lon="3.07746">
        <ele>1064</ele>
        <time>2022-07-23T11:27:57Z</time>
      </trkpt>
      <trkpt lat="45.33085" lon="3.07774">
        <ele>1063</ele>
        <time>2022-07-23T11:28:01Z</time>
      </trkpt>
      <trkpt lat="45.33077" lon="3.07833">
        <ele>1061</ele>
        <time>2022-07-23T11:28:08Z</time>
      </trkpt>
      <trkpt lat="45.33076" lon="3.07854">
        <ele>1061</ele>
        <time>2022-07-23T11:28:11Z</time>
      </trkpt>
      <trkpt lat="45.33079" lon="3.07889">
        <ele>1060</ele>
        <time>2022-07-23T11:28:16Z</time>
      </trkpt>
      <trkpt lat="45.33086" lon="3.0791">
        <ele>1060</ele>
        <time>2022-07-23T11:28:18Z</time>
      </trkpt>
      <trkpt lat="45.33102" lon="3.07933">
        <ele>1060</ele>
        <time>2022-07-23T11:28:22Z</time>
      </trkpt>
      <trkpt lat="45.33162" lon="3.07999">
        <ele>1061</ele>
        <time>2022-07-23T11:28:36Z</time>
      </trkpt>
      <trkpt lat="45.33177" lon="3.08022">
        <ele>1059</ele>
        <time>2022-07-23T11:28:40Z</time>
      </trkpt>
      <trkpt lat="45.33223" lon="3.08144">
        <ele>1055</ele>
        <time>2022-07-23T11:28:57Z</time>
      </trkpt>
      <trkpt lat="45.33246" lon="3.08211">
        <ele>1054</ele>
        <time>2022-07-23T11:29:07Z</time>
      </trkpt>
      <trkpt lat="45.33271" lon="3.08257">
        <ele>1050</ele>
        <time>2022-07-23T11:29:14Z</time>
      </trkpt>
      <trkpt lat="45.3334" lon="3.08354">
        <ele>1044</ele>
        <time>2022-07-23T11:29:31Z</time>
      </trkpt>
      <trkpt lat="45.33357" lon="3.08385">
        <ele>1043</ele>
        <time>2022-07-23T11:29:36Z</time>
      </trkpt>
      <trkpt lat="45.33383" lon="3.08453">
        <ele>1041</ele>
        <time>2022-07-23T11:29:46Z</time>
      </trkpt>
      <trkpt lat="45.33398" lon="3.08504">
        <ele>1041</ele>
        <time>2022-07-23T11:29:53Z</time>
      </trkpt>
      <trkpt lat="45.33432" lon="3.08637">
        <ele>1034</ele>
        <time>2022-07-23T11:30:10Z</time>
      </trkpt>
      <trkpt lat="45.33445" lon="3.08668">
        <ele>1032</ele>
        <time>2022-07-23T11:30:15Z</time>
      </trkpt>
      <trkpt lat="45.33482" lon="3.0874">
        <ele>1028</ele>
        <time>2022-07-23T11:30:26Z</time>
      </trkpt>
      <trkpt lat="45.33504" lon="3.08801">
        <ele>1025</ele>
        <time>2022-07-23T11:30:35Z</time>
      </trkpt>
      <trkpt lat="45.33512" lon="3.0883">
        <ele>1024</ele>
        <time>2022-07-23T11:30:38Z</time>
      </trkpt>
      <trkpt lat="45.33533" lon="3.08933">
        <ele>1018</ele>
        <time>2022-07-23T11:30:52Z</time>
      </trkpt>
      <trkpt lat="45.33542" lon="3.08964">
        <ele>1017</ele>
        <time>2022-07-23T11:30:56Z</time>
      </trkpt>
      <trkpt lat="45.33574" lon="3.09035">
        <ele>1015</ele>
        <time>2022-07-23T11:31:07Z</time>
      </trkpt>
      <trkpt lat="45.3359" lon="3.09062">
        <ele>1014</ele>
        <time>2022-07-23T11:31:11Z</time>
      </trkpt>
      <trkpt lat="45.33691" lon="3.09187">
        <ele>1005</ele>
        <time>2022-07-23T11:31:35Z</time>
      </trkpt>
      <trkpt lat="45.33738" lon="3.09264">
        <ele>999</ele>
        <time>2022-07-23T11:31:48Z</time>
      </trkpt>
      <trkpt lat="45.33756" lon="3.09308">
        <ele>996</ele>
        <time>2022-07-23T11:31:54Z</time>
      </trkpt>
      <trkpt lat="45.33769" lon="3.09356">
        <ele>994</ele>
        <time>2022-07-23T11:32:00Z</time>
      </trkpt>
      <trkpt lat="45.33777" lon="3.09403">
        <ele>991</ele>
        <time>2022-07-23T11:32:06Z</time>
      </trkpt>
      <trkpt lat="45.33786" lon="3.09483">
        <ele>986</ele>
        <time>2022-07-23T11:32:17Z</time>
      </trkpt>
      <trkpt lat="45.33797" lon="3.09527">
        <ele>984</ele>
        <time>2022-07-23T11:32:22Z</time>
      </trkpt>
      <trkpt lat="45.33811" lon="3.09572">
        <ele>981</ele>
        <time>2022-07-23T11:32:29Z</time>
      </trkpt>
      <trkpt lat="45.33824" lon="3.09601">
        <ele>980</ele>
        <time>2022-07-23T11:32:33Z</time>
      </trkpt>
      <trkpt lat="45.33869" lon="3.09687">
        <ele>979</ele>
        <time>2022-07-23T11:32:46Z</time>
      </trkpt>
      <trkpt lat="45.33942" lon="3.09819">
        <ele>983</ele>
        <time>2022-07-23T11:33:07Z</time>
      </trkpt>
      <trkpt lat="45.33994" lon="3.09918">
        <ele>986</ele>
        <time>2022-07-23T11:33:23Z</time>
      </trkpt>
      <trkpt lat="45.34" lon="3.09938">
        <ele>986</ele>
        <time>2022-07-23T11:33:25Z</time>
      </trkpt>
      <trkpt lat="45.34004" lon="3.09963">
        <ele>986</ele>
        <time>2022-07-23T11:33:29Z</time>
      </trkpt>
      <trkpt lat="45.34004" lon="3.09987">
        <ele>985</ele>
        <time>2022-07-23T11:33:32Z</time>
      </trkpt>
      <trkpt lat="45.33994" lon="3.10067">
        <ele>985</ele>
        <time>2022-07-23T11:33:42Z</time>
      </trkpt>
      <trkpt lat="45.33997" lon="3.10083">
        <ele>986</ele>
        <time>2022-07-23T11:33:44Z</time>
      </trkpt>
      <trkpt lat="45.34006" lon="3.10095">
        <ele>985</ele>
        <time>2022-07-23T11:33:46Z</time>
      </trkpt>
      <trkpt lat="45.34062" lon="3.1011">
        <ele>984</ele>
        <time>2022-07-23T11:33:56Z</time>
      </trkpt>
      <trkpt lat="45.34085" lon="3.10107">
        <ele>984</ele>
        <time>2022-07-23T11:34:00Z</time>
      </trkpt>
      <trkpt lat="45.34143" lon="3.10147">
        <ele>980</ele>
        <time>2022-07-23T11:34:12Z</time>
      </trkpt>
      <trkpt lat="45.34162" lon="3.10166">
        <ele>979</ele>
        <time>2022-07-23T11:34:16Z</time>
      </trkpt>
      <trkpt lat="45.34191" lon="3.10214">
        <ele>978</ele>
        <time>2022-07-23T11:34:24Z</time>
      </trkpt>
      <trkpt lat="45.34212" lon="3.1026">
        <ele>977</ele>
        <time>2022-07-23T11:34:31Z</time>
      </trkpt>
      <trkpt lat="45.34228" lon="3.10298">
        <ele>975</ele>
        <time>2022-07-23T11:34:36Z</time>
      </trkpt>
      <trkpt lat="45.3427" lon="3.10366">
        <ele>973</ele>
        <time>2022-07-23T11:34:48Z</time>
      </trkpt>
      <trkpt lat="45.34283" lon="3.10395">
        <ele>972</ele>
        <time>2022-07-23T11:34:52Z</time>
      </trkpt>
      <trkpt lat="45.34306" lon="3.10477">
        <ele>969</ele>
        <time>2022-07-23T11:35:03Z</time>
      </trkpt>
      <trkpt lat="45.34315" lon="3.10535">
        <ele>966</ele>
        <time>2022-07-23T11:35:10Z</time>
      </trkpt>
      <trkpt lat="45.34328" lon="3.10652">
        <ele>960</ele>
        <time>2022-07-23T11:35:25Z</time>
      </trkpt>
      <trkpt lat="45.34343" lon="3.10728">
        <ele>956</ele>
        <time>2022-07-23T11:35:35Z</time>
      </trkpt>
      <trkpt lat="45.34348" lon="3.10785">
        <ele>953</ele>
        <time>2022-07-23T11:35:42Z</time>
      </trkpt>
      <trkpt lat="45.34361" lon="3.11058">
        <ele>944</ele>
        <time>2022-07-23T11:36:16Z</time>
      </trkpt>
      <trkpt lat="45.34361" lon="3.11084">
        <ele>943</ele>
        <time>2022-07-23T11:36:20Z</time>
      </trkpt>
      <trkpt lat="45.3435" lon="3.11182">
        <ele>939</ele>
        <time>2022-07-23T11:36:32Z</time>
      </trkpt>
      <trkpt lat="45.34341" lon="3.11214">
        <ele>938</ele>
        <time>2022-07-23T11:36:36Z</time>
      </trkpt>
      <trkpt lat="45.34323" lon="3.1126">
        <ele>936</ele>
        <time>2022-07-23T11:36:43Z</time>
      </trkpt>
      <trkpt lat="45.34316" lon="3.11298">
        <ele>935</ele>
        <time>2022-07-23T11:36:48Z</time>
      </trkpt>
      <trkpt lat="45.34319" lon="3.11336">
        <ele>935</ele>
        <time>2022-07-23T11:36:53Z</time>
      </trkpt>
      <trkpt lat="45.34362" lon="3.11578">
        <ele>923</ele>
        <time>2022-07-23T11:37:24Z</time>
      </trkpt>
      <trkpt lat="45.34367" lon="3.1164">
        <ele>919</ele>
        <time>2022-07-23T11:37:32Z</time>
      </trkpt>
      <trkpt lat="45.34383" lon="3.12077">
        <ele>903</ele>
        <time>2022-07-23T11:38:26Z</time>
      </trkpt>
      <trkpt lat="45.3438" lon="3.12141">
        <ele>899</ele>
        <time>2022-07-23T11:38:34Z</time>
      </trkpt>
      <trkpt lat="45.34372" lon="3.12182">
        <ele>898</ele>
        <time>2022-07-23T11:38:40Z</time>
      </trkpt>
      <trkpt lat="45.34322" lon="3.12318">
        <ele>896</ele>
        <time>2022-07-23T11:38:59Z</time>
      </trkpt>
      <trkpt lat="45.34316" lon="3.12359">
        <ele>895</ele>
        <time>2022-07-23T11:39:04Z</time>
      </trkpt>
      <trkpt lat="45.34317" lon="3.12402">
        <ele>894</ele>
        <time>2022-07-23T11:39:10Z</time>
      </trkpt>
      <trkpt lat="45.34324" lon="3.12427">
        <ele>893</ele>
        <time>2022-07-23T11:39:13Z</time>
      </trkpt>
      <trkpt lat="45.34336" lon="3.12441">
        <ele>893</ele>
        <time>2022-07-23T11:39:16Z</time>
      </trkpt>
      <trkpt lat="45.34362" lon="3.12462">
        <ele>892</ele>
        <time>2022-07-23T11:39:21Z</time>
      </trkpt>
      <trkpt lat="45.34369" lon="3.12472">
        <ele>892</ele>
        <time>2022-07-23T11:39:23Z</time>
      </trkpt>
      <trkpt lat="45.34371" lon="3.12489">
        <ele>892</ele>
        <time>2022-07-23T11:39:25Z</time>
      </trkpt>
      <trkpt lat="45.34307" lon="3.12773">
        <ele>876</ele>
        <time>2022-07-23T11:40:02Z</time>
      </trkpt>
      <trkpt lat="45.34292" lon="3.12813">
        <ele>873</ele>
        <time>2022-07-23T11:40:08Z</time>
      </trkpt>
      <trkpt lat="45.34272" lon="3.12859">
        <ele>869</ele>
        <time>2022-07-23T11:40:15Z</time>
      </trkpt>
      <trkpt lat="45.34258" lon="3.12879">
        <ele>868</ele>
        <time>2022-07-23T11:40:18Z</time>
      </trkpt>
      <trkpt lat="45.3424" lon="3.1289">
        <ele>867</ele>
        <time>2022-07-23T11:40:22Z</time>
      </trkpt>
      <trkpt lat="45.34223" lon="3.12893">
        <ele>866</ele>
        <time>2022-07-23T11:40:25Z</time>
      </trkpt>
      <trkpt lat="45.34207" lon="3.12889">
        <ele>866</ele>
        <time>2022-07-23T11:40:28Z</time>
      </trkpt>
      <trkpt lat="45.34193" lon="3.12878">
        <ele>865</ele>
        <time>2022-07-23T11:40:30Z</time>
      </trkpt>
      <trkpt lat="45.34143" lon="3.12829">
        <ele>864</ele>
        <time>2022-07-23T11:40:41Z</time>
      </trkpt>
      <trkpt lat="45.34123" lon="3.12822">
        <ele>863</ele>
        <time>2022-07-23T11:40:45Z</time>
      </trkpt>
      <trkpt lat="45.34057" lon="3.1284">
        <ele>858</ele>
        <time>2022-07-23T11:40:57Z</time>
      </trkpt>
      <trkpt lat="45.34018" lon="3.12841">
        <ele>856</ele>
        <time>2022-07-23T11:41:04Z</time>
      </trkpt>
      <trkpt lat="45.34011" lon="3.12846">
        <ele>855</ele>
        <time>2022-07-23T11:41:05Z</time>
      </trkpt>
      <trkpt lat="45.34006" lon="3.12854">
        <ele>855</ele>
        <time>2022-07-23T11:41:07Z</time>
      </trkpt>
      <trkpt lat="45.33987" lon="3.12922">
        <ele>853</ele>
        <time>2022-07-23T11:41:16Z</time>
      </trkpt>
      <trkpt lat="45.33974" lon="3.12946">
        <ele>853</ele>
        <time>2022-07-23T11:41:19Z</time>
      </trkpt>
      <trkpt lat="45.3392" lon="3.12997">
        <ele>849</ele>
        <time>2022-07-23T11:41:31Z</time>
      </trkpt>
      <trkpt lat="45.33912" lon="3.13008">
        <ele>849</ele>
        <time>2022-07-23T11:41:33Z</time>
      </trkpt>
      <trkpt lat="45.33902" lon="3.13034">
        <ele>847</ele>
        <time>2022-07-23T11:41:37Z</time>
      </trkpt>
      <trkpt lat="45.33896" lon="3.13063">
        <ele>845</ele>
        <time>2022-07-23T11:41:40Z</time>
      </trkpt>
      <trkpt lat="45.3389" lon="3.13124">
        <ele>842</ele>
        <time>2022-07-23T11:41:48Z</time>
      </trkpt>
      <trkpt lat="45.3387" lon="3.13196">
        <ele>837</ele>
        <time>2022-07-23T11:41:58Z</time>
      </trkpt>
      <trkpt lat="45.33855" lon="3.13216">
        <ele>835</ele>
        <time>2022-07-23T11:42:02Z</time>
      </trkpt>
      <trkpt lat="45.33817" lon="3.13236">
        <ele>831</ele>
        <time>2022-07-23T11:42:09Z</time>
      </trkpt>
      <trkpt lat="45.33808" lon="3.13244">
        <ele>830</ele>
        <time>2022-07-23T11:42:11Z</time>
      </trkpt>
      <trkpt lat="45.33794" lon="3.13265">
        <ele>829</ele>
        <time>2022-07-23T11:42:14Z</time>
      </trkpt>
      <trkpt lat="45.33771" lon="3.13322">
        <ele>826</ele>
        <time>2022-07-23T11:42:22Z</time>
      </trkpt>
      <trkpt lat="45.33725" lon="3.13507">
        <ele>818</ele>
        <time>2022-07-23T11:42:47Z</time>
      </trkpt>
      <trkpt lat="45.33717" lon="3.13527">
        <ele>817</ele>
        <time>2022-07-23T11:42:50Z</time>
      </trkpt>
      <trkpt lat="45.33708" lon="3.13541">
        <ele>817</ele>
        <time>2022-07-23T11:42:52Z</time>
      </trkpt>
      <trkpt lat="45.33696" lon="3.13551">
        <ele>816</ele>
        <time>2022-07-23T11:42:55Z</time>
      </trkpt>
      <trkpt lat="45.33677" lon="3.13559">
        <ele>816</ele>
        <time>2022-07-23T11:42:58Z</time>
      </trkpt>
      <trkpt lat="45.33629" lon="3.13563">
        <ele>814</ele>
        <time>2022-07-23T11:43:07Z</time>
      </trkpt>
      <trkpt lat="45.33617" lon="3.13575">
        <ele>813</ele>
        <time>2022-07-23T11:43:09Z</time>
      </trkpt>
      <trkpt lat="45.33609" lon="3.13588">
        <ele>813</ele>
        <time>2022-07-23T11:43:12Z</time>
      </trkpt>
      <trkpt lat="45.33605" lon="3.13599">
        <ele>812</ele>
        <time>2022-07-23T11:43:13Z</time>
      </trkpt>
      <trkpt lat="45.33607" lon="3.13622">
        <ele>810</ele>
        <time>2022-07-23T11:43:16Z</time>
      </trkpt>
      <trkpt lat="45.33617" lon="3.1366">
        <ele>808</ele>
        <time>2022-07-23T11:43:21Z</time>
      </trkpt>
      <trkpt lat="45.33643" lon="3.13719">
        <ele>806</ele>
        <time>2022-07-23T11:43:30Z</time>
      </trkpt>
      <trkpt lat="45.33648" lon="3.13747">
        <ele>804</ele>
        <time>2022-07-23T11:43:33Z</time>
      </trkpt>
      <trkpt lat="45.33649" lon="3.13807">
        <ele>800</ele>
        <time>2022-07-23T11:43:41Z</time>
      </trkpt>
      <trkpt lat="45.33652" lon="3.13821">
        <ele>799</ele>
        <time>2022-07-23T11:43:43Z</time>
      </trkpt>
      <trkpt lat="45.33665" lon="3.13841">
        <ele>798</ele>
        <time>2022-07-23T11:43:46Z</time>
      </trkpt>
      <trkpt lat="45.33682" lon="3.13849">
        <ele>798</ele>
        <time>2022-07-23T11:43:49Z</time>
      </trkpt>
      <trkpt lat="45.33751" lon="3.13844">
        <ele>798</ele>
        <time>2022-07-23T11:44:02Z</time>
      </trkpt>
      <trkpt lat="45.33772" lon="3.13847">
        <ele>799</ele>
        <time>2022-07-23T11:44:05Z</time>
      </trkpt>
      <trkpt lat="45.33789" lon="3.13857">
        <ele>799</ele>
        <time>2022-07-23T11:44:09Z</time>
      </trkpt>
      <trkpt lat="45.33797" lon="3.13869">
        <ele>800</ele>
        <time>2022-07-23T11:44:11Z</time>
      </trkpt>
      <trkpt lat="45.33803" lon="3.1388">
        <ele>800</ele>
        <time>2022-07-23T11:44:13Z</time>
      </trkpt>
      <trkpt lat="45.33815" lon="3.1394">
        <ele>800</ele>
        <time>2022-07-23T11:44:20Z</time>
      </trkpt>
      <trkpt lat="45.3382" lon="3.14054">
        <ele>794</ele>
        <time>2022-07-23T11:44:35Z</time>
      </trkpt>
      <trkpt lat="45.33825" lon="3.14077">
        <ele>791</ele>
        <time>2022-07-23T11:44:38Z</time>
      </trkpt>
      <trkpt lat="45.33832" lon="3.14086">
        <ele>790</ele>
        <time>2022-07-23T11:44:39Z</time>
      </trkpt>
      <trkpt lat="45.33858" lon="3.14107">
        <ele>792</ele>
        <time>2022-07-23T11:44:45Z</time>
      </trkpt>
      <trkpt lat="45.33875" lon="3.14126">
        <ele>793</ele>
        <time>2022-07-23T11:44:48Z</time>
      </trkpt>
      <trkpt lat="45.33887" lon="3.1415">
        <ele>792</ele>
        <time>2022-07-23T11:44:52Z</time>
      </trkpt>
      <trkpt lat="45.33915" lon="3.14231">
        <ele>785</ele>
        <time>2022-07-23T11:45:03Z</time>
      </trkpt>
      <trkpt lat="45.33953" lon="3.14316">
        <ele>785</ele>
        <time>2022-07-23T11:45:16Z</time>
      </trkpt>
      <trkpt lat="45.33971" lon="3.14368">
        <ele>782</ele>
        <time>2022-07-23T11:45:23Z</time>
      </trkpt>
      <trkpt lat="45.33982" lon="3.14393">
        <ele>781</ele>
        <time>2022-07-23T11:45:27Z</time>
      </trkpt>
      <trkpt lat="45.34012" lon="3.1444">
        <ele>780</ele>
        <time>2022-07-23T11:45:35Z</time>
      </trkpt>
      <trkpt lat="45.3402" lon="3.14469">
        <ele>778</ele>
        <time>2022-07-23T11:45:39Z</time>
      </trkpt>
      <trkpt lat="45.34086" lon="3.14796">
        <ele>762</ele>
        <time>2022-07-23T11:46:21Z</time>
      </trkpt>
      <trkpt lat="45.34095" lon="3.1483">
        <ele>760</ele>
        <time>2022-07-23T11:46:26Z</time>
      </trkpt>
      <trkpt lat="45.34107" lon="3.14856">
        <ele>760</ele>
        <time>2022-07-23T11:46:30Z</time>
      </trkpt>
      <trkpt lat="45.34124" lon="3.14878">
        <ele>762</ele>
        <time>2022-07-23T11:46:34Z</time>
      </trkpt>
      <trkpt lat="45.34131" lon="3.14921">
        <ele>759</ele>
        <time>2022-07-23T11:46:39Z</time>
      </trkpt>
      <trkpt lat="45.34135" lon="3.14933">
        <ele>759</ele>
        <time>2022-07-23T11:46:41Z</time>
      </trkpt>
      <trkpt lat="45.34165" lon="3.14976">
        <ele>762</ele>
        <time>2022-07-23T11:46:49Z</time>
      </trkpt>
      <trkpt lat="45.34175" lon="3.15005">
        <ele>761</ele>
        <time>2022-07-23T11:46:53Z</time>
      </trkpt>
      <trkpt lat="45.34179" lon="3.15052">
        <ele>758</ele>
        <time>2022-07-23T11:46:59Z</time>
      </trkpt>
      <trkpt lat="45.34186" lon="3.15102">
        <ele>755</ele>
        <time>2022-07-23T11:47:05Z</time>
      </trkpt>
      <trkpt lat="45.34199" lon="3.15147">
        <ele>753</ele>
        <time>2022-07-23T11:47:11Z</time>
      </trkpt>
      <trkpt lat="45.3421" lon="3.15172">
        <ele>752</ele>
        <time>2022-07-23T11:47:15Z</time>
      </trkpt>
      <trkpt lat="45.34224" lon="3.15193">
        <ele>750</ele>
        <time>2022-07-23T11:47:18Z</time>
      </trkpt>
      <trkpt lat="45.34233" lon="3.15201">
        <ele>750</ele>
        <time>2022-07-23T11:47:20Z</time>
      </trkpt>
      <trkpt lat="45.34243" lon="3.15204">
        <ele>750</ele>
        <time>2022-07-23T11:47:22Z</time>
      </trkpt>
      <trkpt lat="45.34252" lon="3.15203">
        <ele>751</ele>
        <time>2022-07-23T11:47:24Z</time>
      </trkpt>
      <trkpt lat="45.34261" lon="3.15198">
        <ele>753</ele>
        <time>2022-07-23T11:47:25Z</time>
      </trkpt>
      <trkpt lat="45.34281" lon="3.15174">
        <ele>758</ele>
        <time>2022-07-23T11:47:30Z</time>
      </trkpt>
      <trkpt lat="45.34297" lon="3.15169">
        <ele>759</ele>
        <time>2022-07-23T11:47:33Z</time>
      </trkpt>
      <trkpt lat="45.34305" lon="3.15171">
        <ele>759</ele>
        <time>2022-07-23T11:47:34Z</time>
      </trkpt>
      <trkpt lat="45.3432" lon="3.15185">
        <ele>758</ele>
        <time>2022-07-23T11:47:38Z</time>
      </trkpt>
      <trkpt lat="45.34326" lon="3.15209">
        <ele>755</ele>
        <time>2022-07-23T11:47:41Z</time>
      </trkpt>
      <trkpt lat="45.34329" lon="3.15254">
        <ele>750</ele>
        <time>2022-07-23T11:47:46Z</time>
      </trkpt>
      <trkpt lat="45.34333" lon="3.15269">
        <ele>748</ele>
        <time>2022-07-23T11:47:48Z</time>
      </trkpt>
      <trkpt lat="45.34346" lon="3.1529">
        <ele>747</ele>
        <time>2022-07-23T11:47:52Z</time>
      </trkpt>
      <trkpt lat="45.34384" lon="3.15324">
        <ele>749</ele>
        <time>2022-07-23T11:48:00Z</time>
      </trkpt>
      <trkpt lat="45.34425" lon="3.15353">
        <ele>752</ele>
        <time>2022-07-23T11:48:08Z</time>
      </trkpt>
      <trkpt lat="45.34434" lon="3.15363">
        <ele>753</ele>
        <time>2022-07-23T11:48:10Z</time>
      </trkpt>
      <trkpt lat="45.34464" lon="3.15412">
        <ele>751</ele>
        <time>2022-07-23T11:48:18Z</time>
      </trkpt>
      <trkpt lat="45.34476" lon="3.1544">
        <ele>750</ele>
        <time>2022-07-23T11:48:22Z</time>
      </trkpt>
      <trkpt lat="45.34486" lon="3.15485">
        <ele>746</ele>
        <time>2022-07-23T11:48:28Z</time>
      </trkpt>
      <trkpt lat="45.34492" lon="3.15555">
        <ele>740</ele>
        <time>2022-07-23T11:48:37Z</time>
      </trkpt>
      <trkpt lat="45.34501" lon="3.15602">
        <ele>738</ele>
        <time>2022-07-23T11:48:43Z</time>
      </trkpt>
      <trkpt lat="45.34506" lon="3.15615">
        <ele>740</ele>
        <time>2022-07-23T11:48:45Z</time>
      </trkpt>
      <trkpt lat="45.34511" lon="3.15646">
        <ele>740</ele>
        <time>2022-07-23T11:48:49Z</time>
      </trkpt>
      <trkpt lat="45.34527" lon="3.15847">
        <ele>732</ele>
        <time>2022-07-23T11:49:14Z</time>
      </trkpt>
      <trkpt lat="45.34528" lon="3.15942">
        <ele>729</ele>
        <time>2022-07-23T11:49:26Z</time>
      </trkpt>
      <trkpt lat="45.34518" lon="3.16067">
        <ele>729</ele>
        <time>2022-07-23T11:49:42Z</time>
      </trkpt>
      <trkpt lat="45.34507" lon="3.16115">
        <ele>729</ele>
        <time>2022-07-23T11:49:48Z</time>
      </trkpt>
      <trkpt lat="45.34475" lon="3.16159">
        <ele>721</ele>
        <time>2022-07-23T11:49:56Z</time>
      </trkpt>
      <trkpt lat="45.34461" lon="3.16187">
        <ele>719</ele>
        <time>2022-07-23T11:50:00Z</time>
      </trkpt>
      <trkpt lat="45.34406" lon="3.16322">
        <ele>716</ele>
        <time>2022-07-23T11:50:20Z</time>
      </trkpt>
      <trkpt lat="45.3439" lon="3.16349">
        <ele>714</ele>
        <time>2022-07-23T11:50:24Z</time>
      </trkpt>
      <trkpt lat="45.34371" lon="3.16372">
        <ele>712</ele>
        <time>2022-07-23T11:50:29Z</time>
      </trkpt>
      <trkpt lat="45.34288" lon="3.16447">
        <ele>701</ele>
        <time>2022-07-23T11:50:46Z</time>
      </trkpt>
      <trkpt lat="45.34268" lon="3.16467">
        <ele>698</ele>
        <time>2022-07-23T11:50:51Z</time>
      </trkpt>
      <trkpt lat="45.34252" lon="3.16492">
        <ele>698</ele>
        <time>2022-07-23T11:50:55Z</time>
      </trkpt>
      <trkpt lat="45.34224" lon="3.16545">
        <ele>700</ele>
        <time>2022-07-23T11:51:03Z</time>
      </trkpt>
      <trkpt lat="45.342" lon="3.16581">
        <ele>696</ele>
        <time>2022-07-23T11:51:09Z</time>
      </trkpt>
      <trkpt lat="45.34164" lon="3.16619">
        <ele>693</ele>
        <time>2022-07-23T11:51:17Z</time>
      </trkpt>
      <trkpt lat="45.34096" lon="3.16659">
        <ele>688</ele>
        <time>2022-07-23T11:51:30Z</time>
      </trkpt>
      <trkpt lat="45.34059" lon="3.16675">
        <ele>684</ele>
        <time>2022-07-23T11:51:37Z</time>
      </trkpt>
      <trkpt lat="45.34037" lon="3.16689">
        <ele>683</ele>
        <time>2022-07-23T11:51:42Z</time>
      </trkpt>
      <trkpt lat="45.33998" lon="3.16722">
        <ele>685</ele>
        <time>2022-07-23T11:51:50Z</time>
      </trkpt>
      <trkpt lat="45.33968" lon="3.16735">
        <ele>680</ele>
        <time>2022-07-23T11:51:55Z</time>
      </trkpt>
      <trkpt lat="45.33923" lon="3.16778">
        <ele>680</ele>
        <time>2022-07-23T11:52:05Z</time>
      </trkpt>
      <trkpt lat="45.33881" lon="3.16804">
        <ele>678</ele>
        <time>2022-07-23T11:52:13Z</time>
      </trkpt>
      <trkpt lat="45.33819" lon="3.16834">
        <ele>672</ele>
        <time>2022-07-23T11:52:25Z</time>
      </trkpt>
      <trkpt lat="45.33791" lon="3.16841">
        <ele>669</ele>
        <time>2022-07-23T11:52:30Z</time>
      </trkpt>
      <trkpt lat="45.33742" lon="3.16866">
        <ele>669</ele>
        <time>2022-07-23T11:52:39Z</time>
      </trkpt>
      <trkpt lat="45.33718" lon="3.16871">
        <ele>668</ele>
        <time>2022-07-23T11:52:43Z</time>
      </trkpt>
      <trkpt lat="45.33679" lon="3.16865">
        <ele>659</ele>
        <time>2022-07-23T11:52:50Z</time>
      </trkpt>
      <trkpt lat="45.33662" lon="3.16867">
        <ele>657</ele>
        <time>2022-07-23T11:52:53Z</time>
      </trkpt>
      <trkpt lat="45.33647" lon="3.16878">
        <ele>656</ele>
        <time>2022-07-23T11:52:56Z</time>
      </trkpt>
      <trkpt lat="45.33621" lon="3.16914">
        <ele>659</ele>
        <time>2022-07-23T11:53:03Z</time>
      </trkpt>
      <trkpt lat="45.33605" lon="3.16926">
        <ele>657</ele>
        <time>2022-07-23T11:53:06Z</time>
      </trkpt>
      <trkpt lat="45.33576" lon="3.1694">
        <ele>653</ele>
        <time>2022-07-23T11:53:11Z</time>
      </trkpt>
      <trkpt lat="45.33558" lon="3.16954">
        <ele>651</ele>
        <time>2022-07-23T11:53:15Z</time>
      </trkpt>
      <trkpt lat="45.33492" lon="3.17028">
        <ele>648</ele>
        <time>2022-07-23T11:53:30Z</time>
      </trkpt>
      <trkpt lat="45.3348" lon="3.17047">
        <ele>648</ele>
        <time>2022-07-23T11:53:33Z</time>
      </trkpt>
      <trkpt lat="45.33457" lon="3.17099">
        <ele>654</ele>
        <time>2022-07-23T11:53:41Z</time>
      </trkpt>
      <trkpt lat="45.3345" lon="3.17106">
        <ele>654</ele>
        <time>2022-07-23T11:53:42Z</time>
      </trkpt>
      <trkpt lat="45.33419" lon="3.17126">
        <ele>651</ele>
        <time>2022-07-23T11:53:49Z</time>
      </trkpt>
      <trkpt lat="45.33402" lon="3.17132">
        <ele>651</ele>
        <time>2022-07-23T11:53:52Z</time>
      </trkpt>
      <trkpt lat="45.33361" lon="3.17131">
        <ele>644</ele>
        <time>2022-07-23T11:53:59Z</time>
      </trkpt>
      <trkpt lat="45.33304" lon="3.17135">
        <ele>641</ele>
        <time>2022-07-23T11:54:09Z</time>
      </trkpt>
      <trkpt lat="45.33276" lon="3.17126">
        <ele>638</ele>
        <time>2022-07-23T11:54:14Z</time>
      </trkpt>
      <trkpt lat="45.3324" lon="3.17106">
        <ele>632</ele>
        <time>2022-07-23T11:54:21Z</time>
      </trkpt>
      <trkpt lat="45.33184" lon="3.17082">
        <ele>628</ele>
        <time>2022-07-23T11:54:31Z</time>
      </trkpt>
      <trkpt lat="45.33146" lon="3.17071">
        <ele>626</ele>
        <time>2022-07-23T11:54:38Z</time>
      </trkpt>
      <trkpt lat="45.33103" lon="3.17047">
        <ele>619</ele>
        <time>2022-07-23T11:54:47Z</time>
      </trkpt>
      <trkpt lat="45.33078" lon="3.17041">
        <ele>617</ele>
        <time>2022-07-23T11:54:51Z</time>
      </trkpt>
      <trkpt lat="45.33062" lon="3.17043">
        <ele>618</ele>
        <time>2022-07-23T11:54:54Z</time>
      </trkpt>
      <trkpt lat="45.33033" lon="3.17052">
        <ele>622</ele>
        <time>2022-07-23T11:54:59Z</time>
      </trkpt>
      <trkpt lat="45.33018" lon="3.17046">
        <ele>620</ele>
        <time>2022-07-23T11:55:02Z</time>
      </trkpt>
      <trkpt lat="45.32994" lon="3.17019">
        <ele>612</ele>
        <time>2022-07-23T11:55:07Z</time>
      </trkpt>
      <trkpt lat="45.32955" lon="3.16995">
        <ele>609</ele>
        <time>2022-07-23T11:55:15Z</time>
      </trkpt>
      <trkpt lat="45.32921" lon="3.16986">
        <ele>609</ele>
        <time>2022-07-23T11:55:21Z</time>
      </trkpt>
      <trkpt lat="45.32886" lon="3.16965">
        <ele>605</ele>
        <time>2022-07-23T11:55:28Z</time>
      </trkpt>
      <trkpt lat="45.32868" lon="3.16958">
        <ele>605</ele>
        <time>2022-07-23T11:55:31Z</time>
      </trkpt>
      <trkpt lat="45.32833" lon="3.16951">
        <ele>607</ele>
        <time>2022-07-23T11:55:38Z</time>
      </trkpt>
      <trkpt lat="45.32818" lon="3.16938">
        <ele>606</ele>
        <time>2022-07-23T11:55:41Z</time>
      </trkpt>
      <trkpt lat="45.32797" lon="3.16902">
        <ele>600</ele>
        <time>2022-07-23T11:55:47Z</time>
      </trkpt>
      <trkpt lat="45.32738" lon="3.16826">
        <ele>589</ele>
        <time>2022-07-23T11:56:01Z</time>
      </trkpt>
      <trkpt lat="45.32708" lon="3.16781">
        <ele>587</ele>
        <time>2022-07-23T11:56:08Z</time>
      </trkpt>
      <trkpt lat="45.32655" lon="3.16723">
        <ele>584</ele>
        <time>2022-07-23T11:56:20Z</time>
      </trkpt>
      <trkpt lat="45.32611" lon="3.16655">
        <ele>573</ele>
        <time>2022-07-23T11:56:32Z</time>
      </trkpt>
      <trkpt lat="45.32595" lon="3.16644">
        <ele>572</ele>
        <time>2022-07-23T11:56:35Z</time>
      </trkpt>
      <trkpt lat="45.32552" lon="3.16634">
        <ele>568</ele>
        <time>2022-07-23T11:56:43Z</time>
      </trkpt>
      <trkpt lat="45.32536" lon="3.16635">
        <ele>567</ele>
        <time>2022-07-23T11:56:46Z</time>
      </trkpt>
      <trkpt lat="45.32509" lon="3.16642">
        <ele>568</ele>
        <time>2022-07-23T11:56:51Z</time>
      </trkpt>
      <trkpt lat="45.32481" lon="3.16644">
        <ele>564</ele>
        <time>2022-07-23T11:56:56Z</time>
      </trkpt>
      <trkpt lat="45.32464" lon="3.1665">
        <ele>561</ele>
        <time>2022-07-23T11:56:59Z</time>
      </trkpt>
      <trkpt lat="45.32448" lon="3.16664">
        <ele>559</ele>
        <time>2022-07-23T11:57:02Z</time>
      </trkpt>
      <trkpt lat="45.32435" lon="3.16683">
        <ele>560</ele>
        <time>2022-07-23T11:57:05Z</time>
      </trkpt>
      <trkpt lat="45.32369" lon="3.16792">
        <ele>563</ele>
        <time>2022-07-23T11:57:23Z</time>
      </trkpt>
      <trkpt lat="45.32355" lon="3.16806">
        <ele>561</ele>
        <time>2022-07-23T11:57:26Z</time>
      </trkpt>
      <trkpt lat="45.32323" lon="3.16818">
        <ele>554</ele>
        <time>2022-07-23T11:57:32Z</time>
      </trkpt>
      <trkpt lat="45.32301" lon="3.16833">
        <ele>550</ele>
        <time>2022-07-23T11:57:37Z</time>
      </trkpt>
      <trkpt lat="45.3225" lon="3.16878">
        <ele>546</ele>
        <time>2022-07-23T11:57:47Z</time>
      </trkpt>
      <trkpt lat="45.322" lon="3.16909">
        <ele>543</ele>
        <time>2022-07-23T11:57:57Z</time>
      </trkpt>
      <trkpt lat="45.3215" lon="3.16935">
        <ele>540</ele>
        <time>2022-07-23T11:58:06Z</time>
      </trkpt>
      <trkpt lat="45.32091" lon="3.1696">
        <ele>537</ele>
        <time>2022-07-23T11:58:17Z</time>
      </trkpt>
      <trkpt lat="45.31978" lon="3.17034">
        <ele>530</ele>
        <time>2022-07-23T11:58:40Z</time>
      </trkpt>
      <trkpt lat="45.31969" lon="3.17035">
        <ele>530</ele>
        <time>2022-07-23T11:58:41Z</time>
      </trkpt>
      <trkpt lat="45.3196" lon="3.17027">
        <ele>527</ele>
        <time>2022-07-23T11:58:43Z</time>
      </trkpt>
      <trkpt lat="45.31956" lon="3.17022">
        <ele>526</ele>
        <time>2022-07-23T11:58:44Z</time>
      </trkpt>
      <trkpt lat="45.31943" lon="3.17013">
        <ele>525</ele>
        <time>2022-07-23T11:58:47Z</time>
      </trkpt>
      <trkpt lat="45.31939" lon="3.17017">
        <ele>525</ele>
        <time>2022-07-23T11:58:47Z</time>
      </trkpt>
      <trkpt lat="45.31929" lon="3.17036">
        <ele>525</ele>
        <time>2022-07-23T11:58:50Z</time>
      </trkpt>
      <trkpt lat="45.31911" lon="3.17082">
        <ele>523</ele>
        <time>2022-07-23T11:58:57Z</time>
      </trkpt>
      <trkpt lat="45.31903" lon="3.17095">
        <ele>523</ele>
        <time>2022-07-23T11:58:59Z</time>
      </trkpt>
      <trkpt lat="45.31865" lon="3.17136">
        <ele>522</ele>
        <time>2022-07-23T11:59:08Z</time>
      </trkpt>
      <trkpt lat="45.31846" lon="3.17154">
        <ele>520</ele>
        <time>2022-07-23T11:59:12Z</time>
      </trkpt>
      <trkpt lat="45.31818" lon="3.17145">
        <ele>516</ele>
        <time>2022-07-23T11:59:17Z</time>
      </trkpt>
      <trkpt lat="45.318" lon="3.17221">
        <ele>516</ele>
        <time>2022-07-23T11:59:27Z</time>
      </trkpt>
      <trkpt lat="45.31765" lon="3.17313">
        <ele>512</ele>
        <time>2022-07-23T11:59:40Z</time>
      </trkpt>
      <trkpt lat="45.3175" lon="3.17371">
        <ele>510</ele>
        <time>2022-07-23T11:59:48Z</time>
      </trkpt>
      <trkpt lat="45.31722" lon="3.1755">
        <ele>516</ele>
        <time>2022-07-23T12:00:11Z</time>
      </trkpt>
      <trkpt lat="45.31727" lon="3.17558">
        <ele>516</ele>
        <time>2022-07-23T12:00:12Z</time>
      </trkpt>
      <trkpt lat="45.3173" lon="3.17572">
        <ele>516</ele>
        <time>2022-07-23T12:00:14Z</time>
      </trkpt>
      <trkpt lat="45.31727" lon="3.17558">
        <ele>516</ele>
        <time>2022-07-23T12:00:16Z</time>
      </trkpt>
      <trkpt lat="45.31722" lon="3.1755">
        <ele>516</ele>
        <time>2022-07-23T12:00:17Z</time>
      </trkpt>
      <trkpt lat="45.31719" lon="3.17561">
        <ele>516</ele>
        <time>2022-07-23T12:00:18Z</time>
      </trkpt>
      <trkpt lat="45.31712" lon="3.17589">
        <ele>517</ele>
        <time>2022-07-23T12:00:22Z</time>
      </trkpt>
      <trkpt lat="45.31686" lon="3.1769">
        <ele>516</ele>
        <time>2022-07-23T12:00:36Z</time>
      </trkpt>
      <trkpt lat="45.31672" lon="3.17736">
        <ele>509</ele>
        <time>2022-07-23T12:00:42Z</time>
      </trkpt>
      <trkpt lat="45.31666" lon="3.17751">
        <ele>506</ele>
        <time>2022-07-23T12:00:44Z</time>
      </trkpt>
      <trkpt lat="45.3164" lon="3.17796">
        <ele>511</ele>
        <time>2022-07-23T12:00:51Z</time>
      </trkpt>
      <trkpt lat="45.31605" lon="3.17848">
        <ele>510</ele>
        <time>2022-07-23T12:01:00Z</time>
      </trkpt>
      <trkpt lat="45.3146" lon="3.18005">
        <ele>500</ele>
        <time>2022-07-23T12:01:33Z</time>
      </trkpt>
      <trkpt lat="45.31399" lon="3.18056">
        <ele>499</ele>
        <time>2022-07-23T12:01:45Z</time>
      </trkpt>
      <trkpt lat="45.31375" lon="3.1807">
        <ele>498</ele>
        <time>2022-07-23T12:01:50Z</time>
      </trkpt>
      <trkpt lat="45.31364" lon="3.18072">
        <ele>498</ele>
        <time>2022-07-23T12:01:52Z</time>
      </trkpt>
      <trkpt lat="45.31304" lon="3.18072">
        <ele>498</ele>
        <time>2022-07-23T12:02:03Z</time>
      </trkpt>
      <trkpt lat="45.31271" lon="3.18071">
        <ele>498</ele>
        <time>2022-07-23T12:02:08Z</time>
      </trkpt>
      <trkpt lat="45.31253" lon="3.1807">
        <ele>498</ele>
        <time>2022-07-23T12:02:12Z</time>
      </trkpt>
      <trkpt lat="45.3124" lon="3.18072">
        <ele>499</ele>
        <time>2022-07-23T12:02:14Z</time>
      </trkpt>
      <trkpt lat="45.31222" lon="3.18082">
        <ele>501</ele>
        <time>2022-07-23T12:02:17Z</time>
      </trkpt>
      <trkpt lat="45.31149" lon="3.18174">
        <ele>509</ele>
        <time>2022-07-23T12:02:35Z</time>
      </trkpt>
      <trkpt lat="45.31134" lon="3.18198">
        <ele>512</ele>
        <time>2022-07-23T12:02:39Z</time>
      </trkpt>
      <trkpt lat="45.31125" lon="3.18223">
        <ele>514</ele>
        <time>2022-07-23T12:02:42Z</time>
      </trkpt>
      <trkpt lat="45.31113" lon="3.18263">
        <ele>515</ele>
        <time>2022-07-23T12:02:48Z</time>
      </trkpt>
      <trkpt lat="45.31107" lon="3.18296">
        <ele>513</ele>
        <time>2022-07-23T12:02:52Z</time>
      </trkpt>
      <trkpt lat="45.31106" lon="3.18317">
        <ele>512</ele>
        <time>2022-07-23T12:02:55Z</time>
      </trkpt>
      <trkpt lat="45.31105" lon="3.18343">
        <ele>510</ele>
        <time>2022-07-23T12:02:58Z</time>
      </trkpt>
      <trkpt lat="45.31099" lon="3.1837">
        <ele>509</ele>
        <time>2022-07-23T12:03:01Z</time>
      </trkpt>
      <trkpt lat="45.31095" lon="3.18412">
        <ele>506</ele>
        <time>2022-07-23T12:03:07Z</time>
      </trkpt>
      <trkpt lat="45.31096" lon="3.18446">
        <ele>503</ele>
        <time>2022-07-23T12:03:11Z</time>
      </trkpt>
      <trkpt lat="45.31093" lon="3.18476">
        <ele>502</ele>
        <time>2022-07-23T12:03:15Z</time>
      </trkpt>
      <trkpt lat="45.31088" lon="3.18489">
        <ele>501</ele>
        <time>2022-07-23T12:03:17Z</time>
      </trkpt>
      <trkpt lat="45.3107" lon="3.18507">
        <ele>502</ele>
        <time>2022-07-23T12:03:21Z</time>
      </trkpt>
      <trkpt lat="45.31067" lon="3.18519">
        <ele>501</ele>
        <time>2022-07-23T12:03:22Z</time>
      </trkpt>
      <trkpt lat="45.31066" lon="3.18562">
        <ele>498</ele>
        <time>2022-07-23T12:03:28Z</time>
      </trkpt>
      <trkpt lat="45.31066" lon="3.18603">
        <ele>497</ele>
        <time>2022-07-23T12:03:33Z</time>
      </trkpt>
      <trkpt lat="45.31086" lon="3.18596">
        <ele>497</ele>
        <time>2022-07-23T12:03:36Z</time>
      </trkpt>
      <trkpt lat="45.31098" lon="3.18595">
        <ele>497</ele>
        <time>2022-07-23T12:03:38Z</time>
      </trkpt>
      <trkpt lat="45.31119" lon="3.18599">
        <ele>496</ele>
        <time>2022-07-23T12:03:42Z</time>
      </trkpt>
      <trkpt lat="45.31132" lon="3.18606">
        <ele>496</ele>
        <time>2022-07-23T12:03:45Z</time>
      </trkpt>
      <trkpt lat="45.31161" lon="3.18627">
        <ele>496</ele>
        <time>2022-07-23T12:03:51Z</time>
      </trkpt>
      <trkpt lat="45.312" lon="3.18659">
        <ele>494</ele>
        <time>2022-07-23T12:03:59Z</time>
      </trkpt>
      <trkpt lat="45.31215" lon="3.18675">
        <ele>494</ele>
        <time>2022-07-23T12:04:02Z</time>
      </trkpt>
      <trkpt lat="45.31224" lon="3.18687">
        <ele>495</ele>
        <time>2022-07-23T12:04:04Z</time>
      </trkpt>
      <trkpt lat="45.31241" lon="3.18723">
        <ele>496</ele>
        <time>2022-07-23T12:04:10Z</time>
      </trkpt>
      <trkpt lat="45.31258" lon="3.18767">
        <ele>499</ele>
        <time>2022-07-23T12:04:16Z</time>
      </trkpt>
      <trkpt lat="45.31263" lon="3.18778">
        <ele>501</ele>
        <time>2022-07-23T12:04:17Z</time>
      </trkpt>
      <trkpt lat="45.31282" lon="3.18804">
        <ele>503</ele>
        <time>2022-07-23T12:04:22Z</time>
      </trkpt>
      <trkpt lat="45.31339" lon="3.18857">
        <ele>506</ele>
        <time>2022-07-23T12:04:34Z</time>
      </trkpt>
      <trkpt lat="45.31371" lon="3.1888">
        <ele>507</ele>
        <time>2022-07-23T12:04:41Z</time>
      </trkpt>
      <trkpt lat="45.31402" lon="3.18897">
        <ele>506</ele>
        <time>2022-07-23T12:04:47Z</time>
      </trkpt>
      <trkpt lat="45.31454" lon="3.18914">
        <ele>501</ele>
        <time>2022-07-23T12:04:56Z</time>
      </trkpt>
      <trkpt lat="45.31491" lon="3.18952">
        <ele>504</ele>
        <time>2022-07-23T12:05:04Z</time>
      </trkpt>
      <trkpt lat="45.3154" lon="3.19025">
        <ele>507</ele>
        <time>2022-07-23T12:05:17Z</time>
      </trkpt>
      <trkpt lat="45.31581" lon="3.19081">
        <ele>504</ele>
        <time>2022-07-23T12:05:27Z</time>
      </trkpt>
      <trkpt lat="45.31627" lon="3.19135">
        <ele>505</ele>
        <time>2022-07-23T12:05:37Z</time>
      </trkpt>
      <trkpt lat="45.318" lon="3.19289">
        <ele>501</ele>
        <time>2022-07-23T12:06:14Z</time>
      </trkpt>
      <trkpt lat="45.31893" lon="3.19378">
        <ele>499</ele>
        <time>2022-07-23T12:06:34Z</time>
      </trkpt>
      <trkpt lat="45.31921" lon="3.19417">
        <ele>498</ele>
        <time>2022-07-23T12:06:41Z</time>
      </trkpt>
      <trkpt lat="45.31946" lon="3.19479">
        <ele>499</ele>
        <time>2022-07-23T12:06:50Z</time>
      </trkpt>
      <trkpt lat="45.31971" lon="3.19557">
        <ele>497</ele>
        <time>2022-07-23T12:07:00Z</time>
      </trkpt>
      <trkpt lat="45.32008" lon="3.19607">
        <ele>497</ele>
        <time>2022-07-23T12:07:09Z</time>
      </trkpt>
      <trkpt lat="45.32046" lon="3.19643">
        <ele>499</ele>
        <time>2022-07-23T12:07:18Z</time>
      </trkpt>
      <trkpt lat="45.32067" lon="3.19667">
        <ele>499</ele>
        <time>2022-07-23T12:07:22Z</time>
      </trkpt>
      <trkpt lat="45.32095" lon="3.19723">
        <ele>498</ele>
        <time>2022-07-23T12:07:31Z</time>
      </trkpt>
      <trkpt lat="45.32115" lon="3.19769">
        <ele>499</ele>
        <time>2022-07-23T12:07:38Z</time>
      </trkpt>
      <trkpt lat="45.32191" lon="3.19867">
        <ele>496</ele>
        <time>2022-07-23T12:07:56Z</time>
      </trkpt>
      <trkpt lat="45.32232" lon="3.19901">
        <ele>496</ele>
        <time>2022-07-23T12:08:04Z</time>
      </trkpt>
      <trkpt lat="45.32347" lon="3.19959">
        <ele>499</ele>
        <time>2022-07-23T12:08:26Z</time>
      </trkpt>
      <trkpt lat="45.32373" lon="3.1997">
        <ele>500</ele>
        <time>2022-07-23T12:08:31Z</time>
      </trkpt>
      <trkpt lat="45.32394" lon="3.19973">
        <ele>499</ele>
        <time>2022-07-23T12:08:35Z</time>
      </trkpt>
      <trkpt lat="45.32443" lon="3.19969">
        <ele>498</ele>
        <time>2022-07-23T12:08:43Z</time>
      </trkpt>
      <trkpt lat="45.32469" lon="3.19974">
        <ele>499</ele>
        <time>2022-07-23T12:08:48Z</time>
      </trkpt>
      <trkpt lat="45.32516" lon="3.19989">
        <ele>501</ele>
        <time>2022-07-23T12:08:57Z</time>
      </trkpt>
      <trkpt lat="45.32572" lon="3.1998">
        <ele>499</ele>
        <time>2022-07-23T12:09:07Z</time>
      </trkpt>
      <trkpt lat="45.32624" lon="3.19982">
        <ele>498</ele>
        <time>2022-07-23T12:09:16Z</time>
      </trkpt>
      <trkpt lat="45.32652" lon="3.19987">
        <ele>498</ele>
        <time>2022-07-23T12:09:21Z</time>
      </trkpt>
      <trkpt lat="45.32688" lon="3.20005">
        <ele>496</ele>
        <time>2022-07-23T12:09:28Z</time>
      </trkpt>
      <trkpt lat="45.32718" lon="3.20026">
        <ele>497</ele>
        <time>2022-07-23T12:09:34Z</time>
      </trkpt>
      <trkpt lat="45.3279" lon="3.20094">
        <ele>496</ele>
        <time>2022-07-23T12:09:49Z</time>
      </trkpt>
      <trkpt lat="45.32826" lon="3.20136">
        <ele>497</ele>
        <time>2022-07-23T12:09:57Z</time>
      </trkpt>
      <trkpt lat="45.32879" lon="3.20232">
        <ele>498</ele>
        <time>2022-07-23T12:10:13Z</time>
      </trkpt>
      <trkpt lat="45.32906" lon="3.2029">
        <ele>497</ele>
        <time>2022-07-23T12:10:21Z</time>
      </trkpt>
      <trkpt lat="45.32925" lon="3.20351">
        <ele>498</ele>
        <time>2022-07-23T12:10:30Z</time>
      </trkpt>
      <trkpt lat="45.32973" lon="3.20584">
        <ele>506</ele>
        <time>2022-07-23T12:11:00Z</time>
      </trkpt>
      <trkpt lat="45.32999" lon="3.20657">
        <ele>499</ele>
        <time>2022-07-23T12:11:10Z</time>
      </trkpt>
      <trkpt lat="45.33072" lon="3.20785">
        <ele>507</ele>
        <time>2022-07-23T12:11:31Z</time>
      </trkpt>
      <trkpt lat="45.33152" lon="3.20867">
        <ele>501</ele>
        <time>2022-07-23T12:11:49Z</time>
      </trkpt>
      <trkpt lat="45.33187" lon="3.2091">
        <ele>500</ele>
        <time>2022-07-23T12:11:57Z</time>
      </trkpt>
      <trkpt lat="45.33217" lon="3.20932">
        <ele>497</ele>
        <time>2022-07-23T12:12:03Z</time>
      </trkpt>
      <trkpt lat="45.3325" lon="3.20942">
        <ele>492</ele>
        <time>2022-07-23T12:12:09Z</time>
      </trkpt>
      <trkpt lat="45.33272" lon="3.20953">
        <ele>494</ele>
        <time>2022-07-23T12:12:13Z</time>
      </trkpt>
      <trkpt lat="45.33312" lon="3.20968">
        <ele>495</ele>
        <time>2022-07-23T12:12:20Z</time>
      </trkpt>
      <trkpt lat="45.33348" lon="3.20972">
        <ele>497</ele>
        <time>2022-07-23T12:12:27Z</time>
      </trkpt>
      <trkpt lat="45.33367" lon="3.20971">
        <ele>499</ele>
        <time>2022-07-23T12:12:30Z</time>
      </trkpt>
      <trkpt lat="45.33394" lon="3.2096">
        <ele>500</ele>
        <time>2022-07-23T12:12:35Z</time>
      </trkpt>
      <trkpt lat="45.33418" lon="3.20948">
        <ele>499</ele>
        <time>2022-07-23T12:12:40Z</time>
      </trkpt>
      <trkpt lat="45.33434" lon="3.20934">
        <ele>500</ele>
        <time>2022-07-23T12:12:43Z</time>
      </trkpt>
      <trkpt lat="45.33445" lon="3.20912">
        <ele>498</ele>
        <time>2022-07-23T12:12:46Z</time>
      </trkpt>
      <trkpt lat="45.33451" lon="3.20883">
        <ele>497</ele>
        <time>2022-07-23T12:12:50Z</time>
      </trkpt>
      <trkpt lat="45.33456" lon="3.20844">
        <ele>494</ele>
        <time>2022-07-23T12:12:55Z</time>
      </trkpt>
      <trkpt lat="45.33468" lon="3.208">
        <ele>492</ele>
        <time>2022-07-23T12:13:01Z</time>
      </trkpt>
      <trkpt lat="45.33486" lon="3.2075">
        <ele>488</ele>
        <time>2022-07-23T12:13:08Z</time>
      </trkpt>
      <trkpt lat="45.33503" lon="3.20717">
        <ele>487</ele>
        <time>2022-07-23T12:13:13Z</time>
      </trkpt>
      <trkpt lat="45.33522" lon="3.20692">
        <ele>488</ele>
        <time>2022-07-23T12:13:18Z</time>
      </trkpt>
      <trkpt lat="45.33564" lon="3.20654">
        <ele>490</ele>
        <time>2022-07-23T12:13:27Z</time>
      </trkpt>
      <trkpt lat="45.3358" lon="3.20633">
        <ele>489</ele>
        <time>2022-07-23T12:13:30Z</time>
      </trkpt>
      <trkpt lat="45.33596" lon="3.20603">
        <ele>485</ele>
        <time>2022-07-23T12:13:35Z</time>
      </trkpt>
      <trkpt lat="45.33621" lon="3.20568">
        <ele>482</ele>
        <time>2022-07-23T12:13:41Z</time>
      </trkpt>
      <trkpt lat="45.33647" lon="3.20556">
        <ele>483</ele>
        <time>2022-07-23T12:13:46Z</time>
      </trkpt>
      <trkpt lat="45.33705" lon="3.20555">
        <ele>489</ele>
        <time>2022-07-23T12:13:57Z</time>
      </trkpt>
      <trkpt lat="45.33767" lon="3.20537">
        <ele>491</ele>
        <time>2022-07-23T12:14:08Z</time>
      </trkpt>
      <trkpt lat="45.33805" lon="3.20537">
        <ele>490</ele>
        <time>2022-07-23T12:14:15Z</time>
      </trkpt>
      <trkpt lat="45.33872" lon="3.20555">
        <ele>491</ele>
        <time>2022-07-23T12:14:27Z</time>
      </trkpt>
      <trkpt lat="45.33903" lon="3.20558">
        <ele>490</ele>
        <time>2022-07-23T12:14:32Z</time>
      </trkpt>
      <trkpt lat="45.34022" lon="3.20554">
        <ele>489</ele>
        <time>2022-07-23T12:14:53Z</time>
      </trkpt>
      <trkpt lat="45.34296" lon="3.20568">
        <ele>487</ele>
        <time>2022-07-23T12:15:42Z</time>
      </trkpt>
      <trkpt lat="45.34327" lon="3.20577">
        <ele>486</ele>
        <time>2022-07-23T12:15:48Z</time>
      </trkpt>
      <trkpt lat="45.34361" lon="3.20593">
        <ele>486</ele>
        <time>2022-07-23T12:15:54Z</time>
      </trkpt>
      <trkpt lat="45.3453" lon="3.20695">
        <ele>484</ele>
        <time>2022-07-23T12:16:27Z</time>
      </trkpt>
      <trkpt lat="45.34562" lon="3.20716">
        <ele>482</ele>
        <time>2022-07-23T12:16:33Z</time>
      </trkpt>
      <trkpt lat="45.34589" lon="3.20741">
        <ele>479</ele>
        <time>2022-07-23T12:16:39Z</time>
      </trkpt>
      <trkpt lat="45.34619" lon="3.20796">
        <ele>480</ele>
        <time>2022-07-23T12:16:48Z</time>
      </trkpt>
      <trkpt lat="45.34658" lon="3.20884">
        <ele>484</ele>
        <time>2022-07-23T12:17:01Z</time>
      </trkpt>
      <trkpt lat="45.34679" lon="3.2092">
        <ele>488</ele>
        <time>2022-07-23T12:17:06Z</time>
      </trkpt>
      <trkpt lat="45.347" lon="3.20943">
        <ele>490</ele>
        <time>2022-07-23T12:17:11Z</time>
      </trkpt>
      <trkpt lat="45.34783" lon="3.21023">
        <ele>486</ele>
        <time>2022-07-23T12:17:29Z</time>
      </trkpt>
      <trkpt lat="45.34809" lon="3.21037">
        <ele>484</ele>
        <time>2022-07-23T12:17:34Z</time>
      </trkpt>
      <trkpt lat="45.34835" lon="3.21035">
        <ele>480</ele>
        <time>2022-07-23T12:17:39Z</time>
      </trkpt>
      <trkpt lat="45.34871" lon="3.21018">
        <ele>478</ele>
        <time>2022-07-23T12:17:45Z</time>
      </trkpt>
      <trkpt lat="45.34896" lon="3.21012">
        <ele>478</ele>
        <time>2022-07-23T12:17:50Z</time>
      </trkpt>
      <trkpt lat="45.34939" lon="3.21007">
        <ele>477</ele>
        <time>2022-07-23T12:17:58Z</time>
      </trkpt>
      <trkpt lat="45.34971" lon="3.21009">
        <ele>476</ele>
        <time>2022-07-23T12:18:03Z</time>
      </trkpt>
      <trkpt lat="45.35" lon="3.21016">
        <ele>476</ele>
        <time>2022-07-23T12:18:08Z</time>
      </trkpt>
      <trkpt lat="45.35019" lon="3.21028">
        <ele>475</ele>
        <time>2022-07-23T12:18:12Z</time>
      </trkpt>
      <trkpt lat="45.35037" lon="3.21045">
        <ele>474</ele>
        <time>2022-07-23T12:18:16Z</time>
      </trkpt>
      <trkpt lat="45.35049" lon="3.21067">
        <ele>474</ele>
        <time>2022-07-23T12:18:19Z</time>
      </trkpt>
      <trkpt lat="45.35055" lon="3.21092">
        <ele>475</ele>
        <time>2022-07-23T12:18:23Z</time>
      </trkpt>
      <trkpt lat="45.35055" lon="3.21117">
        <ele>475</ele>
        <time>2022-07-23T12:18:26Z</time>
      </trkpt>
      <trkpt lat="45.35047" lon="3.21145">
        <ele>475</ele>
        <time>2022-07-23T12:18:30Z</time>
      </trkpt>
      <trkpt lat="45.35034" lon="3.21168">
        <ele>475</ele>
        <time>2022-07-23T12:18:33Z</time>
      </trkpt>
      <trkpt lat="45.35015" lon="3.21186">
        <ele>475</ele>
        <time>2022-07-23T12:18:37Z</time>
      </trkpt>
      <trkpt lat="45.3499" lon="3.21197">
        <ele>475</ele>
        <time>2022-07-23T12:18:42Z</time>
      </trkpt>
      <trkpt lat="45.34959" lon="3.21208">
        <ele>476</ele>
        <time>2022-07-23T12:18:48Z</time>
      </trkpt>
      <trkpt lat="45.34934" lon="3.21219">
        <ele>476</ele>
        <time>2022-07-23T12:18:52Z</time>
      </trkpt>
      <trkpt lat="45.34911" lon="3.21242">
        <ele>476</ele>
        <time>2022-07-23T12:18:57Z</time>
      </trkpt>
      <trkpt lat="45.34793" lon="3.21413">
        <ele>485</ele>
        <time>2022-07-23T12:19:27Z</time>
      </trkpt>
      <trkpt lat="45.34782" lon="3.21436">
        <ele>488</ele>
        <time>2022-07-23T12:19:31Z</time>
      </trkpt>
      <trkpt lat="45.34774" lon="3.21463">
        <ele>489</ele>
        <time>2022-07-23T12:19:35Z</time>
      </trkpt>
      <trkpt lat="45.34772" lon="3.21491">
        <ele>489</ele>
        <time>2022-07-23T12:19:38Z</time>
      </trkpt>
      <trkpt lat="45.34777" lon="3.21518">
        <ele>486</ele>
        <time>2022-07-23T12:19:42Z</time>
      </trkpt>
      <trkpt lat="45.34793" lon="3.21557">
        <ele>481</ele>
        <time>2022-07-23T12:19:47Z</time>
      </trkpt>
      <trkpt lat="45.34806" lon="3.21593">
        <ele>476</ele>
        <time>2022-07-23T12:19:52Z</time>
      </trkpt>
      <trkpt lat="45.3481" lon="3.21675">
        <ele>476</ele>
        <time>2022-07-23T12:20:03Z</time>
      </trkpt>
      <trkpt lat="45.34816" lon="3.21732">
        <ele>479</ele>
        <time>2022-07-23T12:20:10Z</time>
      </trkpt>
      <trkpt lat="45.34827" lon="3.21783">
        <ele>482</ele>
        <time>2022-07-23T12:20:16Z</time>
      </trkpt>
      <trkpt lat="45.34845" lon="3.21823">
        <ele>483</ele>
        <time>2022-07-23T12:20:22Z</time>
      </trkpt>
      <trkpt lat="45.34872" lon="3.21874">
        <ele>484</ele>
        <time>2022-07-23T12:20:30Z</time>
      </trkpt>
      <trkpt lat="45.34895" lon="3.21929">
        <ele>480</ele>
        <time>2022-07-23T12:20:38Z</time>
      </trkpt>
      <trkpt lat="45.34952" lon="3.22131">
        <ele>477</ele>
        <time>2022-07-23T12:21:06Z</time>
      </trkpt>
      <trkpt lat="45.34955" lon="3.2214">
        <ele>477</ele>
        <time>2022-07-23T12:21:07Z</time>
      </trkpt>
      <trkpt lat="45.34984" lon="3.22189">
        <ele>481</ele>
        <time>2022-07-23T12:21:15Z</time>
      </trkpt>
      <trkpt lat="45.35028" lon="3.22219">
        <ele>485</ele>
        <time>2022-07-23T12:21:23Z</time>
      </trkpt>
      <trkpt lat="45.35061" lon="3.22225">
        <ele>486</ele>
        <time>2022-07-23T12:21:29Z</time>
      </trkpt>
      <trkpt lat="45.3509" lon="3.22219">
        <ele>484</ele>
        <time>2022-07-23T12:21:35Z</time>
      </trkpt>
      <trkpt lat="45.35118" lon="3.22206">
        <ele>483</ele>
        <time>2022-07-23T12:21:40Z</time>
      </trkpt>
      <trkpt lat="45.3516" lon="3.22176">
        <ele>478</ele>
        <time>2022-07-23T12:21:48Z</time>
      </trkpt>
      <trkpt lat="45.35196" lon="3.22132">
        <ele>478</ele>
        <time>2022-07-23T12:21:57Z</time>
      </trkpt>
      <trkpt lat="45.35239" lon="3.2209">
        <ele>474</ele>
        <time>2022-07-23T12:22:06Z</time>
      </trkpt>
      <trkpt lat="45.35286" lon="3.22058">
        <ele>472</ele>
        <time>2022-07-23T12:22:15Z</time>
      </trkpt>
      <trkpt lat="45.35323" lon="3.22041">
        <ele>471</ele>
        <time>2022-07-23T12:22:22Z</time>
      </trkpt>
      <trkpt lat="45.35444" lon="3.21997">
        <ele>465</ele>
        <time>2022-07-23T12:22:44Z</time>
      </trkpt>
      <trkpt lat="45.35469" lon="3.21994">
        <ele>466</ele>
        <time>2022-07-23T12:22:49Z</time>
      </trkpt>
      <trkpt lat="45.35501" lon="3.21998">
        <ele>468</ele>
        <time>2022-07-23T12:22:55Z</time>
      </trkpt>
      <trkpt lat="45.35524" lon="3.22005">
        <ele>468</ele>
        <time>2022-07-23T12:22:59Z</time>
      </trkpt>
      <trkpt lat="45.35552" lon="3.22018">
        <ele>468</ele>
        <time>2022-07-23T12:23:04Z</time>
      </trkpt>
      <trkpt lat="45.356" lon="3.2206">
        <ele>467</ele>
        <time>2022-07-23T12:23:14Z</time>
      </trkpt>
      <trkpt lat="45.35613" lon="3.22075">
        <ele>467</ele>
        <time>2022-07-23T12:23:17Z</time>
      </trkpt>
      <trkpt lat="45.35628" lon="3.22098">
        <ele>466</ele>
        <time>2022-07-23T12:23:21Z</time>
      </trkpt>
      <trkpt lat="45.35639" lon="3.22122">
        <ele>466</ele>
        <time>2022-07-23T12:23:24Z</time>
      </trkpt>
      <trkpt lat="45.35647" lon="3.22138">
        <ele>466</ele>
        <time>2022-07-23T12:23:27Z</time>
      </trkpt>
      <trkpt lat="45.35663" lon="3.22158">
        <ele>467</ele>
        <time>2022-07-23T12:23:31Z</time>
      </trkpt>
      <trkpt lat="45.35672" lon="3.22162">
        <ele>467</ele>
        <time>2022-07-23T12:23:32Z</time>
      </trkpt>
      <trkpt lat="45.35682" lon="3.22164">
        <ele>469</ele>
        <time>2022-07-23T12:23:34Z</time>
      </trkpt>
      <trkpt lat="45.35694" lon="3.22164">
        <ele>470</ele>
        <time>2022-07-23T12:23:36Z</time>
      </trkpt>
      <trkpt lat="45.35713" lon="3.22156">
        <ele>471</ele>
        <time>2022-07-23T12:23:40Z</time>
      </trkpt>
      <trkpt lat="45.35812" lon="3.22088">
        <ele>467</ele>
        <time>2022-07-23T12:23:59Z</time>
      </trkpt>
      <trkpt lat="45.35921" lon="3.22018">
        <ele>469</ele>
        <time>2022-07-23T12:24:21Z</time>
      </trkpt>
      <trkpt lat="45.35941" lon="3.21991">
        <ele>472</ele>
        <time>2022-07-23T12:24:26Z</time>
      </trkpt>
      <trkpt lat="45.35965" lon="3.21948">
        <ele>474</ele>
        <time>2022-07-23T12:24:32Z</time>
      </trkpt>
      <trkpt lat="45.36016" lon="3.21806">
        <ele>475</ele>
        <time>2022-07-23T12:24:52Z</time>
      </trkpt>
      <trkpt lat="45.36044" lon="3.21698">
        <ele>476</ele>
        <time>2022-07-23T12:25:07Z</time>
      </trkpt>
      <trkpt lat="45.36074" lon="3.21531">
        <ele>465</ele>
        <time>2022-07-23T12:25:28Z</time>
      </trkpt>
      <trkpt lat="45.36087" lon="3.21507">
        <ele>464</ele>
        <time>2022-07-23T12:25:32Z</time>
      </trkpt>
      <trkpt lat="45.36106" lon="3.21498">
        <ele>463</ele>
        <time>2022-07-23T12:25:36Z</time>
      </trkpt>
      <trkpt lat="45.36118" lon="3.21497">
        <ele>463</ele>
        <time>2022-07-23T12:25:38Z</time>
      </trkpt>
      <trkpt lat="45.3613" lon="3.21504">
        <ele>464</ele>
        <time>2022-07-23T12:25:40Z</time>
      </trkpt>
      <trkpt lat="45.36162" lon="3.2153">
        <ele>470</ele>
        <time>2022-07-23T12:25:47Z</time>
      </trkpt>
      <trkpt lat="45.36198" lon="3.21564">
        <ele>472</ele>
        <time>2022-07-23T12:25:54Z</time>
      </trkpt>
      <trkpt lat="45.36225" lon="3.21596">
        <ele>472</ele>
        <time>2022-07-23T12:26:01Z</time>
      </trkpt>
      <trkpt lat="45.36279" lon="3.21678">
        <ele>473</ele>
        <time>2022-07-23T12:26:15Z</time>
      </trkpt>
      <trkpt lat="45.36362" lon="3.21821">
        <ele>471</ele>
        <time>2022-07-23T12:26:38Z</time>
      </trkpt>
      <trkpt lat="45.36444" lon="3.21931">
        <ele>468</ele>
        <time>2022-07-23T12:26:58Z</time>
      </trkpt>
      <trkpt lat="45.36591" lon="3.22121">
        <ele>467</ele>
        <time>2022-07-23T12:27:33Z</time>
      </trkpt>
      <trkpt lat="45.3663" lon="3.22151">
        <ele>467</ele>
        <time>2022-07-23T12:27:41Z</time>
      </trkpt>
      <trkpt lat="45.36747" lon="3.22234">
        <ele>468</ele>
        <time>2022-07-23T12:28:04Z</time>
      </trkpt>
      <trkpt lat="45.36821" lon="3.22268">
        <ele>462</ele>
        <time>2022-07-23T12:28:18Z</time>
      </trkpt>
      <trkpt lat="45.36849" lon="3.2229">
        <ele>465</ele>
        <time>2022-07-23T12:28:24Z</time>
      </trkpt>
      <trkpt lat="45.37075" lon="3.22551">
        <ele>470</ele>
        <time>2022-07-23T12:29:16Z</time>
      </trkpt>
      <trkpt lat="45.37086" lon="3.2256">
        <ele>469</ele>
        <time>2022-07-23T12:29:18Z</time>
      </trkpt>
      <trkpt lat="45.37098" lon="3.22569">
        <ele>468</ele>
        <time>2022-07-23T12:29:20Z</time>
      </trkpt>
      <trkpt lat="45.37111" lon="3.22576">
        <ele>468</ele>
        <time>2022-07-23T12:29:23Z</time>
      </trkpt>
      <trkpt lat="45.37127" lon="3.22579">
        <ele>466</ele>
        <time>2022-07-23T12:29:26Z</time>
      </trkpt>
      <trkpt lat="45.37199" lon="3.22573">
        <ele>460</ele>
        <time>2022-07-23T12:29:39Z</time>
      </trkpt>
      <trkpt lat="45.37216" lon="3.22576">
        <ele>458</ele>
        <time>2022-07-23T12:29:42Z</time>
      </trkpt>
      <trkpt lat="45.37231" lon="3.22582">
        <ele>456</ele>
        <time>2022-07-23T12:29:44Z</time>
      </trkpt>
      <trkpt lat="45.37247" lon="3.22593">
        <ele>456</ele>
        <time>2022-07-23T12:29:48Z</time>
      </trkpt>
      <trkpt lat="45.37263" lon="3.22608">
        <ele>458</ele>
        <time>2022-07-23T12:29:51Z</time>
      </trkpt>
      <trkpt lat="45.37278" lon="3.22625">
        <ele>459</ele>
        <time>2022-07-23T12:29:54Z</time>
      </trkpt>
      <trkpt lat="45.37291" lon="3.22643">
        <ele>459</ele>
        <time>2022-07-23T12:29:58Z</time>
      </trkpt>
      <trkpt lat="45.37312" lon="3.22694">
        <ele>459</ele>
        <time>2022-07-23T12:30:05Z</time>
      </trkpt>
      <trkpt lat="45.37338" lon="3.22777">
        <ele>463</ele>
        <time>2022-07-23T12:30:16Z</time>
      </trkpt>
      <trkpt lat="45.37351" lon="3.22799">
        <ele>464</ele>
        <time>2022-07-23T12:30:20Z</time>
      </trkpt>
      <trkpt lat="45.37359" lon="3.22816">
        <ele>465</ele>
        <time>2022-07-23T12:30:22Z</time>
      </trkpt>
      <trkpt lat="45.37365" lon="3.22835">
        <ele>466</ele>
        <time>2022-07-23T12:30:25Z</time>
      </trkpt>
      <trkpt lat="45.37375" lon="3.22898">
        <ele>470</ele>
        <time>2022-07-23T12:30:33Z</time>
      </trkpt>
      <trkpt lat="45.37391" lon="3.22951">
        <ele>469</ele>
        <time>2022-07-23T12:30:40Z</time>
      </trkpt>
      <trkpt lat="45.37402" lon="3.22974">
        <ele>468</ele>
        <time>2022-07-23T12:30:44Z</time>
      </trkpt>
      <trkpt lat="45.37413" lon="3.22991">
        <ele>465</ele>
        <time>2022-07-23T12:30:47Z</time>
      </trkpt>
      <trkpt lat="45.37426" lon="3.23007">
        <ele>465</ele>
        <time>2022-07-23T12:30:50Z</time>
      </trkpt>
      <trkpt lat="45.37456" lon="3.23032">
        <ele>465</ele>
        <time>2022-07-23T12:30:56Z</time>
      </trkpt>
      <trkpt lat="45.37466" lon="3.23045">
        <ele>465</ele>
        <time>2022-07-23T12:30:58Z</time>
      </trkpt>
      <trkpt lat="45.37477" lon="3.23072">
        <ele>464</ele>
        <time>2022-07-23T12:31:02Z</time>
      </trkpt>
      <trkpt lat="45.3748" lon="3.23086">
        <ele>464</ele>
        <time>2022-07-23T12:31:04Z</time>
      </trkpt>
      <trkpt lat="45.3748" lon="3.23101">
        <ele>463</ele>
        <time>2022-07-23T12:31:06Z</time>
      </trkpt>
      <trkpt lat="45.37477" lon="3.23119">
        <ele>463</ele>
        <time>2022-07-23T12:31:08Z</time>
      </trkpt>
      <trkpt lat="45.37472" lon="3.23135">
        <ele>463</ele>
        <time>2022-07-23T12:31:10Z</time>
      </trkpt>
      <trkpt lat="45.37464" lon="3.23149">
        <ele>463</ele>
        <time>2022-07-23T12:31:13Z</time>
      </trkpt>
      <trkpt lat="45.37452" lon="3.23162">
        <ele>464</ele>
        <time>2022-07-23T12:31:15Z</time>
      </trkpt>
      <trkpt lat="45.37375" lon="3.2321">
        <ele>462</ele>
        <time>2022-07-23T12:31:30Z</time>
      </trkpt>
      <trkpt lat="45.37361" lon="3.23215">
        <ele>462</ele>
        <time>2022-07-23T12:31:33Z</time>
      </trkpt>
      <trkpt lat="45.3734" lon="3.23217">
        <ele>462</ele>
        <time>2022-07-23T12:31:37Z</time>
      </trkpt>
      <trkpt lat="45.3732" lon="3.23215">
        <ele>463</ele>
        <time>2022-07-23T12:31:40Z</time>
      </trkpt>
      <trkpt lat="45.37268" lon="3.23198">
        <ele>466</ele>
        <time>2022-07-23T12:31:50Z</time>
      </trkpt>
      <trkpt lat="45.3724" lon="3.23195">
        <ele>466</ele>
        <time>2022-07-23T12:31:55Z</time>
      </trkpt>
      <trkpt lat="45.37223" lon="3.23196">
        <ele>467</ele>
        <time>2022-07-23T12:31:58Z</time>
      </trkpt>
      <trkpt lat="45.37106" lon="3.23229">
        <ele>470</ele>
        <time>2022-07-23T12:32:19Z</time>
      </trkpt>
      <trkpt lat="45.3709" lon="3.23237">
        <ele>469</ele>
        <time>2022-07-23T12:32:22Z</time>
      </trkpt>
      <trkpt lat="45.37069" lon="3.23257">
        <ele>474</ele>
        <time>2022-07-23T12:32:27Z</time>
      </trkpt>
      <trkpt lat="45.3706" lon="3.2327">
        <ele>477</ele>
        <time>2022-07-23T12:32:29Z</time>
      </trkpt>
      <trkpt lat="45.37052" lon="3.23287">
        <ele>478</ele>
        <time>2022-07-23T12:32:31Z</time>
      </trkpt>
      <trkpt lat="45.37047" lon="3.23305">
        <ele>478</ele>
        <time>2022-07-23T12:32:34Z</time>
      </trkpt>
      <trkpt lat="45.37046" lon="3.23325">
        <ele>475</ele>
        <time>2022-07-23T12:32:36Z</time>
      </trkpt>
      <trkpt lat="45.37048" lon="3.23347">
        <ele>474</ele>
        <time>2022-07-23T12:32:39Z</time>
      </trkpt>
      <trkpt lat="45.37052" lon="3.23363">
        <ele>474</ele>
        <time>2022-07-23T12:32:41Z</time>
      </trkpt>
      <trkpt lat="45.37067" lon="3.23395">
        <ele>469</ele>
        <time>2022-07-23T12:32:46Z</time>
      </trkpt>
      <trkpt lat="45.37079" lon="3.23411">
        <ele>464</ele>
        <time>2022-07-23T12:32:49Z</time>
      </trkpt>
      <trkpt lat="45.37096" lon="3.23425">
        <ele>464</ele>
        <time>2022-07-23T12:32:52Z</time>
      </trkpt>
      <trkpt lat="45.37164" lon="3.23473">
        <ele>459</ele>
        <time>2022-07-23T12:33:06Z</time>
      </trkpt>
      <trkpt lat="45.37204" lon="3.235">
        <ele>457</ele>
        <time>2022-07-23T12:33:14Z</time>
      </trkpt>
      <trkpt lat="45.37251" lon="3.23527">
        <ele>457</ele>
        <time>2022-07-23T12:33:23Z</time>
      </trkpt>
      <trkpt lat="45.37288" lon="3.23545">
        <ele>458</ele>
        <time>2022-07-23T12:33:30Z</time>
      </trkpt>
      <trkpt lat="45.37344" lon="3.23562">
        <ele>454</ele>
        <time>2022-07-23T12:33:40Z</time>
      </trkpt>
      <trkpt lat="45.3738" lon="3.23583">
        <ele>455</ele>
        <time>2022-07-23T12:33:47Z</time>
      </trkpt>
      <trkpt lat="45.37389" lon="3.23592">
        <ele>455</ele>
        <time>2022-07-23T12:33:49Z</time>
      </trkpt>
      <trkpt lat="45.37398" lon="3.23604">
        <ele>455</ele>
        <time>2022-07-23T12:33:51Z</time>
      </trkpt>
      <trkpt lat="45.37403" lon="3.23617">
        <ele>455</ele>
        <time>2022-07-23T12:33:53Z</time>
      </trkpt>
      <trkpt lat="45.37407" lon="3.23634">
        <ele>455</ele>
        <time>2022-07-23T12:33:55Z</time>
      </trkpt>
      <trkpt lat="45.37409" lon="3.23652">
        <ele>454</ele>
        <time>2022-07-23T12:33:57Z</time>
      </trkpt>
      <trkpt lat="45.37406" lon="3.23668">
        <ele>455</ele>
        <time>2022-07-23T12:33:59Z</time>
      </trkpt>
      <trkpt lat="45.37402" lon="3.23682">
        <ele>455</ele>
        <time>2022-07-23T12:34:01Z</time>
      </trkpt>
      <trkpt lat="45.37392" lon="3.23701">
        <ele>455</ele>
        <time>2022-07-23T12:34:04Z</time>
      </trkpt>
      <trkpt lat="45.37372" lon="3.23733">
        <ele>454</ele>
        <time>2022-07-23T12:34:10Z</time>
      </trkpt>
      <trkpt lat="45.37358" lon="3.23751">
        <ele>453</ele>
        <time>2022-07-23T12:34:13Z</time>
      </trkpt>
      <trkpt lat="45.37255" lon="3.23839">
        <ele>457</ele>
        <time>2022-07-23T12:34:34Z</time>
      </trkpt>
      <trkpt lat="45.37215" lon="3.23876">
        <ele>469</ele>
        <time>2022-07-23T12:34:43Z</time>
      </trkpt>
      <trkpt lat="45.372" lon="3.23895">
        <ele>471</ele>
        <time>2022-07-23T12:34:46Z</time>
      </trkpt>
      <trkpt lat="45.37188" lon="3.23913">
        <ele>472</ele>
        <time>2022-07-23T12:34:50Z</time>
      </trkpt>
      <trkpt lat="45.37179" lon="3.23933">
        <ele>472</ele>
        <time>2022-07-23T12:34:53Z</time>
      </trkpt>
      <trkpt lat="45.3717" lon="3.23958">
        <ele>470</ele>
        <time>2022-07-23T12:34:56Z</time>
      </trkpt>
      <trkpt lat="45.37162" lon="3.23986">
        <ele>468</ele>
        <time>2022-07-23T12:35:00Z</time>
      </trkpt>
      <trkpt lat="45.37156" lon="3.24019">
        <ele>468</ele>
        <time>2022-07-23T12:35:04Z</time>
      </trkpt>
      <trkpt lat="45.37154" lon="3.24047">
        <ele>467</ele>
        <time>2022-07-23T12:35:08Z</time>
      </trkpt>
      <trkpt lat="45.37154" lon="3.24076">
        <ele>465</ele>
        <time>2022-07-23T12:35:11Z</time>
      </trkpt>
      <trkpt lat="45.37157" lon="3.2411">
        <ele>464</ele>
        <time>2022-07-23T12:35:16Z</time>
      </trkpt>
      <trkpt lat="45.37168" lon="3.24165">
        <ele>459</ele>
        <time>2022-07-23T12:35:23Z</time>
      </trkpt>
      <trkpt lat="45.37173" lon="3.24198">
        <ele>462</ele>
        <time>2022-07-23T12:35:27Z</time>
      </trkpt>
      <trkpt lat="45.37182" lon="3.24305">
        <ele>466</ele>
        <time>2022-07-23T12:35:40Z</time>
      </trkpt>
      <trkpt lat="45.37183" lon="3.24344">
        <ele>467</ele>
        <time>2022-07-23T12:35:45Z</time>
      </trkpt>
      <trkpt lat="45.37177" lon="3.24394">
        <ele>466</ele>
        <time>2022-07-23T12:35:52Z</time>
      </trkpt>
      <trkpt lat="45.3717" lon="3.24423">
        <ele>464</ele>
        <time>2022-07-23T12:35:55Z</time>
      </trkpt>
      <trkpt lat="45.37148" lon="3.24487">
        <ele>466</ele>
        <time>2022-07-23T12:36:04Z</time>
      </trkpt>
      <trkpt lat="45.37139" lon="3.24521">
        <ele>467</ele>
        <time>2022-07-23T12:36:09Z</time>
      </trkpt>
      <trkpt lat="45.37136" lon="3.24549">
        <ele>466</ele>
        <time>2022-07-23T12:36:12Z</time>
      </trkpt>
      <trkpt lat="45.37136" lon="3.24574">
        <ele>464</ele>
        <time>2022-07-23T12:36:16Z</time>
      </trkpt>
      <trkpt lat="45.37138" lon="3.24599">
        <ele>463</ele>
        <time>2022-07-23T12:36:19Z</time>
      </trkpt>
      <trkpt lat="45.37147" lon="3.24641">
        <ele>461</ele>
        <time>2022-07-23T12:36:24Z</time>
      </trkpt>
      <trkpt lat="45.37148" lon="3.24654">
        <ele>461</ele>
        <time>2022-07-23T12:36:26Z</time>
      </trkpt>
      <trkpt lat="45.37144" lon="3.24683">
        <ele>462</ele>
        <time>2022-07-23T12:36:29Z</time>
      </trkpt>
      <trkpt lat="45.37144" lon="3.24701">
        <ele>461</ele>
        <time>2022-07-23T12:36:32Z</time>
      </trkpt>
      <trkpt lat="45.37159" lon="3.2483">
        <ele>456</ele>
        <time>2022-07-23T12:36:48Z</time>
      </trkpt>
      <trkpt lat="45.37163" lon="3.24849">
        <ele>458</ele>
        <time>2022-07-23T12:36:51Z</time>
      </trkpt>
      <trkpt lat="45.37171" lon="3.24869">
        <ele>461</ele>
        <time>2022-07-23T12:36:53Z</time>
      </trkpt>
      <trkpt lat="45.37182" lon="3.24887">
        <ele>464</ele>
        <time>2022-07-23T12:36:56Z</time>
      </trkpt>
      <trkpt lat="45.37193" lon="3.249">
        <ele>465</ele>
        <time>2022-07-23T12:36:59Z</time>
      </trkpt>
      <trkpt lat="45.37209" lon="3.24909">
        <ele>466</ele>
        <time>2022-07-23T12:37:02Z</time>
      </trkpt>
      <trkpt lat="45.37222" lon="3.24913">
        <ele>466</ele>
        <time>2022-07-23T12:37:04Z</time>
      </trkpt>
      <trkpt lat="45.37237" lon="3.24912">
        <ele>464</ele>
        <time>2022-07-23T12:37:07Z</time>
      </trkpt>
      <trkpt lat="45.37251" lon="3.24909">
        <ele>462</ele>
        <time>2022-07-23T12:37:10Z</time>
      </trkpt>
      <trkpt lat="45.37268" lon="3.24903">
        <ele>463</ele>
        <time>2022-07-23T12:37:13Z</time>
      </trkpt>
      <trkpt lat="45.37315" lon="3.24869">
        <ele>459</ele>
        <time>2022-07-23T12:37:22Z</time>
      </trkpt>
      <trkpt lat="45.37376" lon="3.24829">
        <ele>452</ele>
        <time>2022-07-23T12:37:34Z</time>
      </trkpt>
      <trkpt lat="45.37462" lon="3.24787">
        <ele>452</ele>
        <time>2022-07-23T12:37:50Z</time>
      </trkpt>
      <trkpt lat="45.37501" lon="3.24773">
        <ele>450</ele>
        <time>2022-07-23T12:37:57Z</time>
      </trkpt>
      <trkpt lat="45.37519" lon="3.24769">
        <ele>448</ele>
        <time>2022-07-23T12:38:01Z</time>
      </trkpt>
      <trkpt lat="45.37538" lon="3.24768">
        <ele>448</ele>
        <time>2022-07-23T12:38:04Z</time>
      </trkpt>
      <trkpt lat="45.37555" lon="3.24774">
        <ele>448</ele>
        <time>2022-07-23T12:38:07Z</time>
      </trkpt>
      <trkpt lat="45.37576" lon="3.24785">
        <ele>448</ele>
        <time>2022-07-23T12:38:11Z</time>
      </trkpt>
      <trkpt lat="45.37599" lon="3.24805">
        <ele>449</ele>
        <time>2022-07-23T12:38:16Z</time>
      </trkpt>
      <trkpt lat="45.37609" lon="3.24819">
        <ele>449</ele>
        <time>2022-07-23T12:38:18Z</time>
      </trkpt>
      <trkpt lat="45.37619" lon="3.24836">
        <ele>449</ele>
        <time>2022-07-23T12:38:21Z</time>
      </trkpt>
      <trkpt lat="45.37682" lon="3.24986">
        <ele>454</ele>
        <time>2022-07-23T12:38:43Z</time>
      </trkpt>
      <trkpt lat="45.37695" lon="3.25041">
        <ele>460</ele>
        <time>2022-07-23T12:38:50Z</time>
      </trkpt>
      <trkpt lat="45.37705" lon="3.25091">
        <ele>462</ele>
        <time>2022-07-23T12:38:57Z</time>
      </trkpt>
      <trkpt lat="45.37731" lon="3.2525">
        <ele>457</ele>
        <time>2022-07-23T12:39:17Z</time>
      </trkpt>
      <trkpt lat="45.37738" lon="3.25277">
        <ele>458</ele>
        <time>2022-07-23T12:39:21Z</time>
      </trkpt>
      <trkpt lat="45.37742" lon="3.25289">
        <ele>459</ele>
        <time>2022-07-23T12:39:22Z</time>
      </trkpt>
      <trkpt lat="45.37755" lon="3.25309">
        <ele>459</ele>
        <time>2022-07-23T12:39:26Z</time>
      </trkpt>
      <trkpt lat="45.37768" lon="3.25322">
        <ele>459</ele>
        <time>2022-07-23T12:39:29Z</time>
      </trkpt>
      <trkpt lat="45.37786" lon="3.25332">
        <ele>456</ele>
        <time>2022-07-23T12:39:32Z</time>
      </trkpt>
      <trkpt lat="45.37834" lon="3.25348">
        <ele>452</ele>
        <time>2022-07-23T12:39:41Z</time>
      </trkpt>
      <trkpt lat="45.37857" lon="3.25358">
        <ele>453</ele>
        <time>2022-07-23T12:39:45Z</time>
      </trkpt>
      <trkpt lat="45.37883" lon="3.25377">
        <ele>452</ele>
        <time>2022-07-23T12:39:50Z</time>
      </trkpt>
      <trkpt lat="45.37897" lon="3.2539">
        <ele>451</ele>
        <time>2022-07-23T12:39:53Z</time>
      </trkpt>
      <trkpt lat="45.37912" lon="3.25408">
        <ele>447</ele>
        <time>2022-07-23T12:39:57Z</time>
      </trkpt>
      <trkpt lat="45.37929" lon="3.25435">
        <ele>451</ele>
        <time>2022-07-23T12:40:01Z</time>
      </trkpt>
      <trkpt lat="45.37937" lon="3.25451">
        <ele>454</ele>
        <time>2022-07-23T12:40:04Z</time>
      </trkpt>
      <trkpt lat="45.37951" lon="3.25486">
        <ele>456</ele>
        <time>2022-07-23T12:40:09Z</time>
      </trkpt>
      <trkpt lat="45.37961" lon="3.2553">
        <ele>456</ele>
        <time>2022-07-23T12:40:15Z</time>
      </trkpt>
      <trkpt lat="45.37973" lon="3.25611">
        <ele>455</ele>
        <time>2022-07-23T12:40:25Z</time>
      </trkpt>
      <trkpt lat="45.38006" lon="3.25884">
        <ele>445</ele>
        <time>2022-07-23T12:41:00Z</time>
      </trkpt>
      <trkpt lat="45.38016" lon="3.25933">
        <ele>447</ele>
        <time>2022-07-23T12:41:06Z</time>
      </trkpt>
      <trkpt lat="45.38023" lon="3.25958">
        <ele>450</ele>
        <time>2022-07-23T12:41:09Z</time>
      </trkpt>
      <trkpt lat="45.38038" lon="3.25997">
        <ele>452</ele>
        <time>2022-07-23T12:41:15Z</time>
      </trkpt>
      <trkpt lat="45.38068" lon="3.26062">
        <ele>446</ele>
        <time>2022-07-23T12:41:25Z</time>
      </trkpt>
      <trkpt lat="45.38073" lon="3.26076">
        <ele>445</ele>
        <time>2022-07-23T12:41:27Z</time>
      </trkpt>
      <trkpt lat="45.38076" lon="3.26103">
        <ele>445</ele>
        <time>2022-07-23T12:41:30Z</time>
      </trkpt>
      <trkpt lat="45.38077" lon="3.26177">
        <ele>449</ele>
        <time>2022-07-23T12:41:39Z</time>
      </trkpt>
      <trkpt lat="45.3808" lon="3.26207">
        <ele>449</ele>
        <time>2022-07-23T12:41:43Z</time>
      </trkpt>
      <trkpt lat="45.38086" lon="3.26233">
        <ele>449</ele>
        <time>2022-07-23T12:41:46Z</time>
      </trkpt>
      <trkpt lat="45.38093" lon="3.26253">
        <ele>450</ele>
        <time>2022-07-23T12:41:49Z</time>
      </trkpt>
      <trkpt lat="45.38107" lon="3.2628">
        <ele>453</ele>
        <time>2022-07-23T12:41:53Z</time>
      </trkpt>
      <trkpt lat="45.3817" lon="3.26379">
        <ele>446</ele>
        <time>2022-07-23T12:42:10Z</time>
      </trkpt>
      <trkpt lat="45.38214" lon="3.26451">
        <ele>446</ele>
        <time>2022-07-23T12:42:22Z</time>
      </trkpt>
      <trkpt lat="45.38233" lon="3.26477">
        <ele>445</ele>
        <time>2022-07-23T12:42:27Z</time>
      </trkpt>
      <trkpt lat="45.38243" lon="3.26488">
        <ele>443</ele>
        <time>2022-07-23T12:42:29Z</time>
      </trkpt>
      <trkpt lat="45.38264" lon="3.2652">
        <ele>442</ele>
        <time>2022-07-23T12:42:34Z</time>
      </trkpt>
      <trkpt lat="45.38289" lon="3.26569">
        <ele>439</ele>
        <time>2022-07-23T12:42:42Z</time>
      </trkpt>
      <trkpt lat="45.38298" lon="3.26598">
        <ele>439</ele>
        <time>2022-07-23T12:42:46Z</time>
      </trkpt>
      <trkpt lat="45.38302" lon="3.26631">
        <ele>439</ele>
        <time>2022-07-23T12:42:50Z</time>
      </trkpt>
      <trkpt lat="45.38305" lon="3.26754">
        <ele>440</ele>
        <time>2022-07-23T12:43:06Z</time>
      </trkpt>
      <trkpt lat="45.38308" lon="3.26766">
        <ele>440</ele>
        <time>2022-07-23T12:43:07Z</time>
      </trkpt>
      <trkpt lat="45.38327" lon="3.26811">
        <ele>439</ele>
        <time>2022-07-23T12:43:14Z</time>
      </trkpt>
      <trkpt lat="45.38344" lon="3.26813">
        <ele>438</ele>
        <time>2022-07-23T12:43:17Z</time>
      </trkpt>
      <trkpt lat="45.38486" lon="3.26901">
        <ele>435</ele>
        <time>2022-07-23T12:43:44Z</time>
      </trkpt>
      <trkpt lat="45.38507" lon="3.26914">
        <ele>435</ele>
        <time>2022-07-23T12:43:48Z</time>
      </trkpt>
      <trkpt lat="45.38529" lon="3.2692">
        <ele>435</ele>
        <time>2022-07-23T12:43:52Z</time>
        <extensions>
          <visugpx:TrkExtension xmlns:visugpx="https://www.visugpx.com/editgpx/">
            <visugpx:node>1</visugpx:node>
            </visugpx:TrkExtension>
        </extensions>
      </trkpt>
    </trkseg>
  </trk>
</gpx>